Time,TemperatureF,DewpointF,PressureIn,WindDirection,WindDirectionDegrees,WindSpeedMPH,WindSpeedGustMPH,Humidity,HourlyPrecipIn,Conditions,Clouds,dailyrainin,SoftwareType,DateUTC
2013-05-02 00:00:00,66.9,20.7,25.42,NNE,22,8.5,8.5,17,0.00,,---,0.00,VWS V14.01,2013-05-02 05:00:00,
2013-05-02 00:01:00,66.9,20.7,25.42,NNE,22,5.4,8.5,17,0.00,,---,0.00,VWS V14.01,2013-05-02 05:01:00,
2013-05-02 00:02:00,66.9,20.7,25.42,NNE,22,5.4,5.4,17,0.00,,---,0.00,VWS V14.01,2013-05-02 05:02:00,
2013-05-02 00:03:00,66.7,20.6,25.42,NNE,22,5.4,5.4,17,0.00,,---,0.00,VWS V14.01,2013-05-02 05:03:00,
2013-05-02 00:04:00,66.7,20.6,25.42,NNE,22,5.4,5.4,17,0.00,,---,0.00,VWS V14.01,2013-05-02 05:04:00,
2013-05-02 00:05:00,66.7,20.6,25.42,NNE,22,5.4,5.4,17,0.00,,---,0.00,VWS V14.01,2013-05-02 05:05:00,
2013-05-02 00:06:00,66.7,20.6,25.42,NNE,22,5.4,5.4,17,0.00,,---,0.00,VWS V14.01,2013-05-02 05:06:00,
2013-05-02 00:07:00,66.7,20.6,25.42,ENE,68,8.7,8.7,17,0.00,,---,0.00,VWS V14.01,2013-05-02 05:07:00,
2013-05-02 00:08:00,66.6,20.4,25.42,ENE,68,8.7,8.7,17,0.00,,---,0.00,VWS V14.01,2013-05-02 05:08:00,
2013-05-02 00:09:00,66.4,24.1,25.42,ENE,68,8.7,8.7,20,0.00,,---,0.00,VWS V14.01,2013-05-02 05:09:00,
2013-05-02 00:10:00,66.4,24.1,25.42,ENE,68,8.7,8.7,20,0.00,,---,0.00,VWS V14.01,2013-05-02 05:10:00,
2013-05-02 00:11:00,66.4,24.1,25.42,ENE,68,8.7,8.7,20,0.00,,---,0.00,VWS V14.01,2013-05-02 05:11:00,
2013-05-02 00:12:00,66.4,24.1,25.42,ENE,68,8.7,8.7,20,0.00,,---,0.00,VWS V14.01,2013-05-02 05:12:00,
2013-05-02 00:13:00,66.6,26.6,25.42,ENE,68,8.7,8.7,22,0.00,,---,0.00,VWS V14.01,2013-05-02 05:13:00,
2013-05-02 00:14:00,66.6,26.6,25.42,ENE,68,8.7,8.7,22,0.00,,---,0.00,VWS V14.01,2013-05-02 05:14:00,
2013-05-02 00:15:00,66.6,26.6,25.42,North,0,10.1,10.1,22,0.00,,---,0.00,VWS V14.01,2013-05-02 05:15:00,
2013-05-02 00:16:00,66.7,27.8,25.42,NNE,22,12.3,13.4,23,0.00,,---,0.00,VWS V14.01,2013-05-02 05:16:00,
2013-05-02 00:17:00,66.9,27.9,25.42,NNE,22,12.3,12.3,23,0.00,,---,0.00,VWS V14.01,2013-05-02 05:17:00,
2013-05-02 00:18:00,67.1,28.1,25.42,NNE,22,15.4,17.7,23,0.00,,---,0.00,VWS V14.01,2013-05-02 05:18:00,
2013-05-02 00:19:00,67.1,28.1,25.42,NNE,22,15.4,15.4,23,0.00,,---,0.00,VWS V14.01,2013-05-02 05:19:00,
2013-05-02 00:20:00,67.1,28.1,25.42,North,0,17.7,17.7,23,0.00,,---,0.00,VWS V14.01,2013-05-02 05:20:00,
2013-05-02 00:21:00,67.1,28.1,25.42,NNE,22,17.2,17.7,23,0.00,,---,0.00,VWS V14.01,2013-05-02 05:21:00,
2013-05-02 00:22:00,67.1,29.1,25.42,NNE,22,13.2,17.7,24,0.00,,---,0.00,VWS V14.01,2013-05-02 05:22:00,
2013-05-02 00:23:00,67.1,29.1,25.42,NNE,22,14.8,14.8,24,0.00,,---,0.00,VWS V14.01,2013-05-02 05:23:00,
2013-05-02 00:24:00,67.1,29.1,25.48,NNE,22,14.5,14.5,24,0.00,,---,0.00,VWS V14.01,2013-05-02 05:24:00,
2013-05-02 00:25:00,67.1,29.1,25.48,NNE,22,17.7,17.7,24,0.00,,---,0.00,VWS V14.01,2013-05-02 05:25:00,
2013-05-02 00:26:00,67.1,29.1,25.48,NNE,22,15.4,17.7,24,0.00,,---,0.00,VWS V14.01,2013-05-02 05:26:00,
2013-05-02 00:27:00,67.1,29.1,25.48,NNE,22,15.4,15.4,24,0.00,,---,0.00,VWS V14.01,2013-05-02 05:27:00,
2013-05-02 00:29:00,67.1,30.1,25.48,NNE,22,20.4,20.4,25,0.00,,---,0.00,VWS V14.01,2013-05-02 05:29:00,
2013-05-02 00:30:00,67.1,30.1,25.48,NNE,22,20.4,20.4,25,0.00,,---,0.00,VWS V14.01,2013-05-02 05:30:00,
2013-05-02 00:31:00,66.9,31.0,25.48,NNE,22,12.8,20.4,26,0.00,,---,0.00,VWS V14.01,2013-05-02 05:31:00,
2013-05-02 00:32:00,66.7,30.8,25.48,NNE,22,23.5,23.5,26,0.00,,---,0.00,VWS V14.01,2013-05-02 05:32:00,
2013-05-02 00:33:00,66.6,30.6,25.48,NNE,22,19.7,23.5,26,0.00,,---,0.00,VWS V14.01,2013-05-02 05:33:00,
2013-05-02 00:34:00,66.6,30.6,25.48,NNE,22,23.7,23.7,26,0.00,,---,0.00,VWS V14.01,2013-05-02 05:34:00,
2013-05-02 00:35:00,66.4,31.4,25.48,NNE,22,21.9,23.7,27,0.00,,---,0.00,VWS V14.01,2013-05-02 05:35:00,
2013-05-02 00:36:00,66.4,31.4,25.48,North,0,23.7,23.7,27,0.00,,---,0.00,VWS V14.01,2013-05-02 05:36:00,
2013-05-02 00:37:00,66.2,32.2,25.48,North,0,23.7,23.7,28,0.00,,---,0.00,VWS V14.01,2013-05-02 05:37:00,
2013-05-02 00:38:00,66.2,32.2,25.48,NNE,22,17.5,17.5,28,0.00,,---,0.00,VWS V14.01,2013-05-02 05:38:00,
2013-05-02 00:39:00,66.0,32.9,25.48,NNE,22,26.4,26.4,29,0.00,,---,0.00,VWS V14.01,2013-05-02 05:39:00,
2013-05-02 00:40:00,65.8,33.6,25.48,NNE,22,26.4,26.4,30,0.00,,---,0.00,VWS V14.01,2013-05-02 05:40:00,
2013-05-02 00:41:00,65.7,34.2,25.48,NNE,22,26.4,26.4,31,0.00,,---,0.00,VWS V14.01,2013-05-02 05:41:00,
2013-05-02 00:42:00,65.5,34.1,25.48,NNE,22,26.4,26.4,31,0.00,,---,0.00,VWS V14.01,2013-05-02 05:42:00,
2013-05-02 00:43:00,65.5,34.9,25.48,NNE,22,26.4,26.4,32,0.00,,---,0.00,VWS V14.01,2013-05-02 05:43:00,
2013-05-02 00:44:00,65.5,35.6,25.48,NNE,22,26.4,26.4,33,0.00,,---,0.00,VWS V14.01,2013-05-02 05:44:00,
2013-05-02 00:45:00,65.3,35.5,25.48,NNE,22,26.4,26.4,33,0.00,,---,0.00,VWS V14.01,2013-05-02 05:45:00,
2013-05-02 00:46:00,65.3,35.5,25.48,NNE,22,26.4,26.4,33,0.00,,---,0.00,VWS V14.01,2013-05-02 05:46:00,
2013-05-02 00:48:00,65.1,35.3,25.48,NNE,22,26.4,26.4,33,0.00,,---,0.00,VWS V14.01,2013-05-02 05:48:00,
2013-05-02 00:49:00,64.8,35.0,25.48,NNE,22,26.4,26.4,33,0.00,,---,0.00,VWS V14.01,2013-05-02 05:49:00,
2013-05-02 00:50:00,64.6,35.6,25.48,NNE,22,22.8,26.4,34,0.00,,---,0.00,VWS V14.01,2013-05-02 05:50:00,
2013-05-02 00:51:00,64.4,35.5,25.48,North,0,25.5,25.5,34,0.00,,---,0.00,VWS V14.01,2013-05-02 05:51:00,
2013-05-02 00:52:00,64.2,35.3,25.48,North,0,25.5,25.5,34,0.00,,---,0.00,VWS V14.01,2013-05-02 05:52:00,
2013-05-02 00:53:00,64.2,35.3,25.48,NNE,22,17.5,25.5,34,0.00,,---,0.00,VWS V14.01,2013-05-02 05:53:00,
2013-05-02 00:54:00,64.0,35.1,25.48,NNE,22,17.5,17.5,34,0.00,,---,0.00,VWS V14.01,2013-05-02 05:54:00,
2013-05-02 00:55:00,63.7,35.5,25.48,NNE,22,17.5,17.5,35,0.00,,---,0.00,VWS V14.01,2013-05-02 05:55:00,
2013-05-02 00:56:00,63.5,35.4,25.48,NNE,22,17.5,17.5,35,0.00,,---,0.00,VWS V14.01,2013-05-02 05:56:00,
2013-05-02 00:57:00,63.5,35.4,25.48,NNE,22,17.5,17.5,35,0.00,,---,0.00,VWS V14.01,2013-05-02 05:57:00,
2013-05-02 00:58:00,63.5,35.4,25.48,NNE,22,17.5,17.5,35,0.00,,---,0.00,VWS V14.01,2013-05-02 05:58:00,
2013-05-02 00:59:00,63.5,35.4,25.48,NNE,22,17.5,17.5,35,0.00,,---,0.00,VWS V14.01,2013-05-02 05:59:00,
2013-05-02 01:00:00,63.5,35.4,25.48,NNE,22,17.5,17.5,35,0.00,,---,0.00,VWS V14.01,2013-05-02 06:00:00,
2013-05-02 01:01:00,63.5,35.4,25.48,NNE,22,17.5,17.5,35,0.00,,---,0.00,VWS V14.01,2013-05-02 06:01:00,
2013-05-02 01:02:00,62.4,34.4,25.48,NNE,22,17.5,17.5,35,0.00,,---,0.00,VWS V14.01,2013-05-02 06:02:00,
2013-05-02 01:03:00,61.9,34.0,25.48,NNE,22,17.5,17.5,35,0.00,,---,0.00,VWS V14.01,2013-05-02 06:03:00,
2013-05-02 01:04:00,61.7,33.8,25.48,NNE,22,17.5,17.5,35,0.00,,---,0.00,VWS V14.01,2013-05-02 06:04:00,
2013-05-02 01:05:00,61.5,33.6,25.48,NNE,22,17.5,17.5,35,0.00,,---,0.00,VWS V14.01,2013-05-02 06:05:00,
2013-05-02 01:06:00,61.3,33.5,25.48,NNE,22,17.5,17.5,35,0.00,,---,0.00,VWS V14.01,2013-05-02 06:06:00,
2013-05-02 01:07:00,61.2,33.3,25.48,NNE,22,17.5,17.5,35,0.00,,---,0.00,VWS V14.01,2013-05-02 06:07:00,
2013-05-02 01:08:00,61.0,33.2,25.48,NNE,22,17.5,17.5,35,0.00,,---,0.00,VWS V14.01,2013-05-02 06:08:00,
2013-05-02 01:09:00,60.8,33.0,25.54,NNE,22,17.5,17.5,35,0.00,,---,0.00,VWS V14.01,2013-05-02 06:09:00,
2013-05-02 01:10:00,60.6,33.5,25.54,NNE,22,17.5,17.5,36,0.00,,---,0.00,VWS V14.01,2013-05-02 06:10:00,
2013-05-02 01:11:00,60.4,33.4,25.54,NNE,22,17.5,17.5,36,0.00,,---,0.00,VWS V14.01,2013-05-02 06:11:00,
2013-05-02 01:12:00,60.3,33.2,25.54,NNE,22,17.5,17.5,36,0.00,,---,0.00,VWS V14.01,2013-05-02 06:12:00,
2013-05-02 01:13:00,59.9,32.2,25.54,NNE,22,32.4,32.4,35,0.00,,---,0.00,VWS V14.01,2013-05-02 06:13:00,
2013-05-02 01:14:00,59.4,31.7,25.54,NNE,22,32.4,32.4,35,0.00,,---,0.00,VWS V14.01,2013-05-02 06:14:00,
2013-05-02 01:15:00,58.8,32.0,25.54,NNE,22,32.4,32.4,36,0.00,,---,0.00,VWS V14.01,2013-05-02 06:15:00,
2013-05-02 01:16:00,58.8,32.0,25.54,NNE,22,32.4,32.4,36,0.00,,---,0.00,VWS V14.01,2013-05-02 06:16:00,
2013-05-02 01:17:00,58.1,31.3,25.54,NNE,22,32.4,32.4,36,0.00,,---,0.00,VWS V14.01,2013-05-02 06:17:00,
2013-05-02 01:19:00,57.9,31.1,25.54,NNE,22,28.0,32.4,36,0.00,,---,0.00,VWS V14.01,2013-05-02 06:19:00,
2013-05-02 01:20:00,57.2,31.2,25.54,NNE,22,28.0,28.0,37,0.00,,---,0.00,VWS V14.01,2013-05-02 06:20:00,
2013-05-02 01:21:00,56.8,31.5,25.54,NNE,22,28.0,28.0,38,0.00,,---,0.00,VWS V14.01,2013-05-02 06:21:00,
2013-05-02 01:22:00,56.7,31.4,25.54,NNE,22,28.0,28.0,38,0.00,,---,0.00,VWS V14.01,2013-05-02 06:22:00,
2013-05-02 01:23:00,56.5,31.2,25.54,NNE,22,28.0,28.0,38,0.00,,---,0.00,VWS V14.01,2013-05-02 06:23:00,
2013-05-02 01:24:00,56.5,31.2,25.54,NNE,22,28.0,28.0,38,0.00,,---,0.00,VWS V14.01,2013-05-02 06:24:00,
2013-05-02 01:25:00,56.1,30.9,25.54,NNE,22,28.0,28.0,38,0.00,,---,0.00,VWS V14.01,2013-05-02 06:25:00,
2013-05-02 01:26:00,55.9,31.4,25.54,NNE,22,28.0,28.0,39,0.00,,---,0.00,VWS V14.01,2013-05-02 06:26:00,
2013-05-02 01:27:00,55.8,31.2,25.54,NNE,22,27.3,28.0,39,0.00,,---,0.00,VWS V14.01,2013-05-02 06:27:00,
2013-05-02 01:28:00,55.8,31.2,25.54,NNE,22,27.3,27.3,39,0.00,,---,0.00,VWS V14.01,2013-05-02 06:28:00,
2013-05-02 01:29:00,55.4,31.5,25.54,NNE,22,27.3,27.3,40,0.00,,---,0.00,VWS V14.01,2013-05-02 06:29:00,
2013-05-02 01:30:00,55.2,31.3,25.54,NNE,22,27.3,27.3,40,0.00,,---,0.00,VWS V14.01,2013-05-02 06:30:00,
2013-05-02 01:31:00,55.0,31.2,25.54,NNE,22,27.3,27.3,40,0.00,,---,0.00,VWS V14.01,2013-05-02 06:31:00,
2013-05-02 01:32:00,54.9,31.0,25.54,NNE,22,27.3,27.3,40,0.00,,---,0.00,VWS V14.01,2013-05-02 06:32:00,
2013-05-02 01:33:00,54.3,31.1,25.54,NNE,22,27.3,27.3,41,0.00,,---,0.00,VWS V14.01,2013-05-02 06:33:00,
2013-05-02 01:34:00,54.1,31.0,25.54,NNE,22,27.3,27.3,41,0.00,,---,0.00,VWS V14.01,2013-05-02 06:34:00,
2013-05-02 01:35:00,54.0,30.8,25.54,NNE,22,27.3,27.3,41,0.00,,---,0.00,VWS V14.01,2013-05-02 06:35:00,
2013-05-02 01:36:00,53.8,31.2,25.54,NNE,22,27.3,27.3,42,0.00,,---,0.00,VWS V14.01,2013-05-02 06:36:00,
2013-05-02 01:37:00,53.8,31.2,25.54,NNE,22,27.3,27.3,42,0.00,,---,0.00,VWS V14.01,2013-05-02 06:37:00,
2013-05-02 01:38:00,53.4,30.9,25.54,NNE,22,27.3,27.3,42,0.00,,---,0.00,VWS V14.01,2013-05-02 06:38:00,
2013-05-02 01:39:00,53.4,31.5,25.54,NNE,22,27.3,27.3,43,0.00,,---,0.00,VWS V14.01,2013-05-02 06:39:00,
2013-05-02 01:40:00,53.2,31.3,25.54,NNE,22,27.3,27.3,43,0.00,,---,0.00,VWS V14.01,2013-05-02 06:40:00,
2013-05-02 01:41:00,53.2,31.3,25.54,NNE,22,27.3,27.3,43,0.00,,---,0.00,VWS V14.01,2013-05-02 06:41:00,
2013-05-02 01:42:00,53.1,31.2,25.54,NNE,22,27.3,27.3,43,0.00,,---,0.00,VWS V14.01,2013-05-02 06:42:00,
2013-05-02 01:43:00,52.9,31.0,25.54,NNE,22,27.3,27.3,43,0.00,,---,0.00,VWS V14.01,2013-05-02 06:43:00,
2013-05-02 01:44:00,52.7,30.9,25.54,NNE,22,27.3,27.3,43,0.00,,---,0.00,VWS V14.01,2013-05-02 06:44:00,
2013-05-02 01:45:00,52.5,31.2,25.54,NNE,22,17.7,27.3,44,0.00,,---,0.00,VWS V14.01,2013-05-02 06:45:00,
2013-05-02 01:46:00,52.5,31.2,25.54,NNE,22,17.7,17.7,44,0.00,,---,0.00,VWS V14.01,2013-05-02 06:46:00,
2013-05-02 01:47:00,52.3,31.1,25.54,NNE,22,17.7,17.7,44,0.00,,---,0.00,VWS V14.01,2013-05-02 06:47:00,
2013-05-02 01:48:00,52.0,30.8,25.54,NNE,22,17.7,17.7,44,0.00,,---,0.00,VWS V14.01,2013-05-02 06:48:00,
2013-05-02 01:49:00,52.0,30.8,25.54,NNE,22,17.7,17.7,44,0.00,,---,0.00,VWS V14.01,2013-05-02 06:49:00,
2013-05-02 01:50:00,51.4,31.4,25.54,NNE,22,17.7,17.7,46,0.00,,---,0.00,VWS V14.01,2013-05-02 06:50:00,
2013-05-02 01:51:00,51.4,31.4,25.54,NNE,22,17.7,17.7,46,0.00,,---,0.00,VWS V14.01,2013-05-02 06:51:00,
2013-05-02 01:52:00,51.3,31.2,25.54,NNE,22,17.7,17.7,46,0.00,,---,0.00,VWS V14.01,2013-05-02 06:52:00,
2013-05-02 01:53:00,51.1,31.0,25.54,NNE,22,17.7,17.7,46,0.00,,---,0.00,VWS V14.01,2013-05-02 06:53:00,
2013-05-02 01:54:00,51.1,31.0,25.57,NNE,22,19.9,19.9,46,0.00,,---,0.00,VWS V14.01,2013-05-02 06:54:00,
2013-05-02 01:55:00,50.9,31.4,25.57,NNE,22,19.9,19.9,47,0.00,,---,0.00,VWS V14.01,2013-05-02 06:55:00,
2013-05-02 01:56:00,50.7,31.2,25.57,NNE,22,19.9,19.9,47,0.00,,---,0.00,VWS V14.01,2013-05-02 06:56:00,
2013-05-02 01:57:00,50.7,31.2,25.57,NNE,22,19.9,19.9,47,0.00,,---,0.00,VWS V14.01,2013-05-02 06:57:00,
2013-05-02 01:58:00,50.5,31.1,25.57,NNE,22,19.9,19.9,47,0.00,,---,0.00,VWS V14.01,2013-05-02 06:58:00,
2013-05-02 01:59:00,50.4,30.9,25.57,NNE,22,19.9,19.9,47,0.00,,---,0.00,VWS V14.01,2013-05-02 06:59:00,
2013-05-02 02:00:00,50.4,30.9,25.57,NNE,22,19.9,19.9,47,0.00,,---,0.00,VWS V14.01,2013-05-02 07:00:00,
2013-05-02 02:01:00,50.2,30.8,25.57,NNE,22,19.9,19.9,47,0.00,,---,0.00,VWS V14.01,2013-05-02 07:01:00,
2013-05-02 02:02:00,50.2,30.8,25.57,NNE,22,19.9,19.9,47,0.00,,---,0.00,VWS V14.01,2013-05-02 07:02:00,
2013-05-02 02:03:00,50.0,30.6,25.57,NNE,22,19.9,19.9,47,0.00,,---,0.00,VWS V14.01,2013-05-02 07:03:00,
2013-05-02 02:04:00,49.8,30.9,25.57,NNE,22,14.8,19.9,48,0.00,,---,0.00,VWS V14.01,2013-05-02 07:04:00,
2013-05-02 02:05:00,49.6,30.8,25.57,NNE,22,14.8,14.8,48,0.00,,---,0.00,VWS V14.01,2013-05-02 07:05:00,
2013-05-02 02:06:00,49.5,30.6,25.57,NE,45,17.0,17.0,48,0.00,,---,0.00,VWS V14.01,2013-05-02 07:06:00,
2013-05-02 02:07:00,49.5,30.6,25.57,NE,45,17.0,17.0,48,0.00,,---,0.00,VWS V14.01,2013-05-02 07:07:00,
2013-05-02 02:08:00,49.3,31.0,25.57,NE,45,17.0,17.0,49,0.00,,---,0.00,VWS V14.01,2013-05-02 07:08:00,
2013-05-02 02:09:00,49.3,31.0,25.57,NE,45,17.0,17.0,49,0.00,,---,0.00,VWS V14.01,2013-05-02 07:09:00,
2013-05-02 02:10:00,49.1,30.8,25.57,NE,45,17.0,17.0,49,0.00,,---,0.00,VWS V14.01,2013-05-02 07:10:00,
2013-05-02 02:11:00,48.9,30.6,25.57,NE,45,17.0,17.0,49,0.00,,---,0.00,VWS V14.01,2013-05-02 07:11:00,
2013-05-02 02:12:00,48.9,30.6,25.57,NE,45,17.0,17.0,49,0.00,,---,0.00,VWS V14.01,2013-05-02 07:12:00,
2013-05-02 02:13:00,48.9,30.6,25.57,NE,45,17.0,17.0,49,0.00,,---,0.00,VWS V14.01,2013-05-02 07:13:00,
2013-05-02 02:14:00,48.7,30.5,25.57,NE,45,17.0,17.0,49,0.00,,---,0.00,VWS V14.01,2013-05-02 07:14:00,
2013-05-02 02:15:00,48.7,30.5,25.57,NE,45,17.0,17.0,49,0.00,,---,0.00,VWS V14.01,2013-05-02 07:15:00,
2013-05-02 02:16:00,48.7,30.5,25.57,NE,45,17.0,17.0,49,0.00,,---,0.00,VWS V14.01,2013-05-02 07:16:00,
2013-05-02 02:17:00,48.7,30.5,25.57,NE,45,17.2,17.2,49,0.00,,---,0.00,VWS V14.01,2013-05-02 07:17:00,
2013-05-02 02:18:00,48.7,30.5,25.57,NE,45,17.2,17.2,49,0.00,,---,0.00,VWS V14.01,2013-05-02 07:18:00,
2013-05-02 02:20:00,48.7,30.5,25.57,NE,45,17.2,17.2,49,0.00,,---,0.00,VWS V14.01,2013-05-02 07:20:00,
2013-05-02 02:21:00,48.4,30.6,25.57,NE,45,17.2,17.2,50,0.00,,---,0.00,VWS V14.01,2013-05-02 07:21:00,
2013-05-02 02:22:00,48.2,30.5,25.57,NE,45,17.2,17.2,50,0.00,,---,0.00,VWS V14.01,2013-05-02 07:22:00,
2013-05-02 02:23:00,48.2,30.5,25.57,NE,45,17.2,17.2,50,0.00,,---,0.00,VWS V14.01,2013-05-02 07:23:00,
2013-05-02 02:24:00,48.2,30.5,25.57,NE,45,17.2,17.2,50,0.00,,---,0.00,VWS V14.01,2013-05-02 07:24:00,
2013-05-02 02:25:00,48.0,30.8,25.60,NE,45,17.2,17.2,51,0.00,,---,0.00,VWS V14.01,2013-05-02 07:25:00,
2013-05-02 02:26:00,48.0,30.8,25.60,NE,45,17.2,17.2,51,0.00,,---,0.00,VWS V14.01,2013-05-02 07:26:00,
2013-05-02 02:27:00,47.8,30.6,25.60,NE,45,17.2,17.2,51,0.00,,---,0.00,VWS V14.01,2013-05-02 07:27:00,
2013-05-02 02:28:00,47.8,30.6,25.60,NE,45,17.2,17.2,51,0.00,,---,0.00,VWS V14.01,2013-05-02 07:28:00,
2013-05-02 02:29:00,47.8,30.6,25.60,NE,45,17.2,17.2,51,0.00,,---,0.00,VWS V14.01,2013-05-02 07:29:00,
2013-05-02 02:30:00,47.8,30.6,25.60,NE,45,17.2,17.2,51,0.00,,---,0.00,VWS V14.01,2013-05-02 07:30:00,
2013-05-02 02:31:00,47.7,30.4,25.60,NE,45,17.2,17.2,51,0.00,,---,0.00,VWS V14.01,2013-05-02 07:31:00,
2013-05-02 02:32:00,47.5,30.3,25.60,NE,45,17.2,17.2,51,0.00,,---,0.00,VWS V14.01,2013-05-02 07:32:00,
2013-05-02 02:33:00,47.5,30.3,25.60,NE,45,17.2,17.2,51,0.00,,---,0.00,VWS V14.01,2013-05-02 07:33:00,
2013-05-02 02:34:00,46.9,30.2,25.60,NNE,22,24.4,24.4,52,0.00,,---,0.00,VWS V14.01,2013-05-02 07:34:00,
2013-05-02 02:35:00,46.9,30.2,25.60,NNE,22,24.4,24.4,52,0.00,,---,0.00,VWS V14.01,2013-05-02 07:35:00,
2013-05-02 02:36:00,46.8,30.5,25.60,NE,45,16.8,24.4,53,0.00,,---,0.00,VWS V14.01,2013-05-02 07:36:00,
2013-05-02 02:37:00,46.8,30.5,25.60,NE,45,16.8,16.8,53,0.00,,---,0.00,VWS V14.01,2013-05-02 07:37:00,
2013-05-02 02:38:00,46.8,30.5,25.60,NE,45,16.8,16.8,53,0.00,,---,0.00,VWS V14.01,2013-05-02 07:38:00,
2013-05-02 02:39:00,46.6,30.4,25.60,NE,45,16.8,16.8,53,0.00,,---,0.00,VWS V14.01,2013-05-02 07:39:00,
2013-05-02 02:40:00,46.6,30.4,25.60,NE,45,16.8,16.8,53,0.00,,---,0.00,VWS V14.01,2013-05-02 07:40:00,
2013-05-02 02:41:00,46.4,30.2,25.60,NE,45,16.8,16.8,53,0.00,,---,0.00,VWS V14.01,2013-05-02 07:41:00,
2013-05-02 02:42:00,46.2,30.5,25.60,NE,45,16.8,16.8,54,0.00,,---,0.00,VWS V14.01,2013-05-02 07:42:00,
2013-05-02 02:43:00,46.2,30.5,25.60,NE,45,16.8,16.8,54,0.00,,---,0.00,VWS V14.01,2013-05-02 07:43:00,
2013-05-02 02:44:00,46.2,30.5,25.60,NE,45,16.8,16.8,54,0.00,,---,0.00,VWS V14.01,2013-05-02 07:44:00,
2013-05-02 02:45:00,46.0,30.3,25.60,NE,45,16.8,16.8,54,0.00,,---,0.00,VWS V14.01,2013-05-02 07:45:00,
2013-05-02 02:46:00,46.0,30.3,25.60,NE,45,16.8,16.8,54,0.00,,---,0.00,VWS V14.01,2013-05-02 07:46:00,
2013-05-02 02:47:00,45.9,30.2,25.60,NE,45,16.8,16.8,54,0.00,,---,0.00,VWS V14.01,2013-05-02 07:47:00,
2013-05-02 02:48:00,45.9,30.2,25.60,NE,45,16.8,16.8,54,0.00,,---,0.00,VWS V14.01,2013-05-02 07:48:00,
2013-05-02 02:49:00,45.9,30.6,25.60,NE,45,16.8,16.8,55,0.00,,---,0.00,VWS V14.01,2013-05-02 07:49:00,
2013-05-02 02:50:00,45.9,30.6,25.60,NE,45,16.8,16.8,55,0.00,,---,0.00,VWS V14.01,2013-05-02 07:50:00,
2013-05-02 02:51:00,45.7,30.5,25.60,NE,45,16.8,16.8,55,0.00,,---,0.00,VWS V14.01,2013-05-02 07:51:00,
2013-05-02 02:52:00,45.7,30.5,25.60,NE,45,16.8,16.8,55,0.00,,---,0.00,VWS V14.01,2013-05-02 07:52:00,
2013-05-02 02:53:00,45.5,30.3,25.60,NE,45,16.8,16.8,55,0.00,,---,0.00,VWS V14.01,2013-05-02 07:53:00,
2013-05-02 02:54:00,45.5,30.3,25.57,NE,45,16.8,16.8,55,0.00,,---,0.00,VWS V14.01,2013-05-02 07:54:00,
2013-05-02 02:55:00,45.3,30.1,25.57,NE,45,16.8,16.8,55,0.00,,---,0.00,VWS V14.01,2013-05-02 07:55:00,
2013-05-02 02:56:00,45.1,30.0,25.57,NE,45,16.8,16.8,55,0.00,,---,0.00,VWS V14.01,2013-05-02 07:56:00,
2013-05-02 02:57:00,45.1,30.0,25.57,NE,45,16.8,16.8,55,0.00,,---,0.00,VWS V14.01,2013-05-02 07:57:00,
2013-05-02 02:58:00,45.1,30.0,25.57,NE,45,16.8,16.8,55,0.00,,---,0.00,VWS V14.01,2013-05-02 07:58:00,
2013-05-02 02:59:00,45.0,30.2,25.57,NE,45,16.8,16.8,56,0.00,,---,0.00,VWS V14.01,2013-05-02 07:59:00,
2013-05-02 03:00:00,44.8,30.1,25.57,NE,45,16.8,16.8,56,0.00,,---,0.00,VWS V14.01,2013-05-02 08:00:00,
2013-05-02 03:01:00,44.8,30.1,25.57,NE,45,16.8,16.8,56,0.00,,---,0.00,VWS V14.01,2013-05-02 08:01:00,
2013-05-02 03:02:00,44.6,29.9,25.57,NNE,22,25.7,25.7,56,0.00,,---,0.00,VWS V14.01,2013-05-02 08:02:00,
2013-05-02 03:03:00,44.4,30.2,25.57,NNE,22,25.7,25.7,57,0.00,,---,0.00,VWS V14.01,2013-05-02 08:03:00,
2013-05-02 03:04:00,44.4,30.2,25.57,NNE,22,25.7,25.7,57,0.00,,---,0.00,VWS V14.01,2013-05-02 08:04:00,
2013-05-02 03:05:00,44.4,30.2,25.57,NNE,22,25.7,25.7,57,0.00,,---,0.00,VWS V14.01,2013-05-02 08:05:00,
2013-05-02 03:06:00,44.4,30.6,25.57,NNE,22,25.7,25.7,58,0.00,,---,0.00,VWS V14.01,2013-05-02 08:06:00,
2013-05-02 03:07:00,44.2,30.4,25.57,NNE,22,25.7,25.7,58,0.00,,---,0.00,VWS V14.01,2013-05-02 08:07:00,
2013-05-02 03:08:00,44.2,30.4,25.57,NE,45,15.4,25.7,58,0.00,,---,0.00,VWS V14.01,2013-05-02 08:08:00,
2013-05-02 03:09:00,44.2,30.4,25.63,NE,45,15.4,15.4,58,0.00,,---,0.00,VWS V14.01,2013-05-02 08:09:00,
2013-05-02 03:10:00,44.1,30.2,25.63,NNE,22,22.6,22.6,58,0.00,,---,0.00,VWS V14.01,2013-05-02 08:10:00,
2013-05-02 03:12:00,44.1,30.7,25.63,NNE,22,22.6,22.6,59,0.00,,---,0.00,VWS V14.01,2013-05-02 08:12:00,
2013-05-02 03:13:00,44.1,30.7,25.63,NNE,22,19.9,22.6,59,0.00,,---,0.00,VWS V14.01,2013-05-02 08:13:00,
2013-05-02 03:14:00,44.1,30.7,25.63,NNE,22,19.9,19.9,59,0.00,,---,0.00,VWS V14.01,2013-05-02 08:14:00,
2013-05-02 03:15:00,44.1,30.7,25.63,NNE,22,19.9,19.9,59,0.00,,---,0.00,VWS V14.01,2013-05-02 08:15:00,
2013-05-02 03:16:00,44.1,30.7,25.63,NNE,22,19.9,19.9,59,0.00,,---,0.00,VWS V14.01,2013-05-02 08:16:00,
2013-05-02 03:17:00,44.1,30.7,25.63,NNE,22,19.9,19.9,59,0.00,,---,0.00,VWS V14.01,2013-05-02 08:17:00,
2013-05-02 03:18:00,44.1,30.7,25.63,NNE,22,19.9,19.9,59,0.00,,---,0.00,VWS V14.01,2013-05-02 08:18:00,
2013-05-02 03:19:00,43.9,30.5,25.63,NNE,22,19.9,19.9,59,0.00,,---,0.00,VWS V14.01,2013-05-02 08:19:00,
2013-05-02 03:20:00,43.7,30.3,25.63,NNE,22,24.2,24.2,59,0.00,,---,0.00,VWS V14.01,2013-05-02 08:20:00,
2013-05-02 03:21:00,43.7,30.3,25.63,NNE,22,22.6,24.2,59,0.00,,---,0.00,VWS V14.01,2013-05-02 08:21:00,
2013-05-02 03:22:00,43.7,30.3,25.63,NNE,22,22.6,22.6,59,0.00,,---,0.00,VWS V14.01,2013-05-02 08:22:00,
2013-05-02 03:23:00,43.7,30.3,25.63,NNE,22,22.6,22.6,59,0.00,,---,0.00,VWS V14.01,2013-05-02 08:23:00,
2013-05-02 03:24:00,43.7,30.3,25.63,NNE,22,22.6,22.6,59,0.00,,---,0.00,VWS V14.01,2013-05-02 08:24:00,
2013-05-02 03:25:00,43.7,30.3,25.63,NNE,22,22.6,22.6,59,0.00,,---,0.00,VWS V14.01,2013-05-02 08:25:00,
2013-05-02 03:26:00,43.7,30.3,25.63,NNE,22,22.6,22.6,59,0.00,,---,0.00,VWS V14.01,2013-05-02 08:26:00,
2013-05-02 03:27:00,43.7,30.3,25.63,NNE,22,22.6,22.6,59,0.00,,---,0.00,VWS V14.01,2013-05-02 08:27:00,
2013-05-02 03:28:00,43.5,30.2,25.63,NNE,22,22.6,22.6,59,0.00,,---,0.00,VWS V14.01,2013-05-02 08:28:00,
2013-05-02 03:29:00,43.5,30.2,25.63,NNE,22,18.8,22.6,59,0.00,,---,0.00,VWS V14.01,2013-05-02 08:29:00,
2013-05-02 03:30:00,43.5,30.2,25.63,NNE,22,18.8,18.8,59,0.00,,---,0.00,VWS V14.01,2013-05-02 08:30:00,
2013-05-02 03:31:00,43.5,30.2,25.63,NNE,22,18.8,18.8,59,0.00,,---,0.00,VWS V14.01,2013-05-02 08:31:00,
2013-05-02 03:32:00,43.5,30.2,25.63,NNE,22,23.9,23.9,59,0.00,,---,0.00,VWS V14.01,2013-05-02 08:32:00,
2013-05-02 03:33:00,43.5,30.2,25.63,NNE,22,20.4,23.9,59,0.00,,---,0.00,VWS V14.01,2013-05-02 08:33:00,
2013-05-02 03:34:00,43.5,30.2,25.63,NNE,22,16.1,20.4,59,0.00,,---,0.00,VWS V14.01,2013-05-02 08:34:00,
2013-05-02 03:35:00,43.3,29.6,25.63,NNE,22,16.1,16.1,58,0.00,,---,0.00,VWS V14.01,2013-05-02 08:35:00,
2013-05-02 03:36:00,43.0,29.2,25.63,NNE,22,16.1,16.1,58,0.00,,---,0.00,VWS V14.01,2013-05-02 08:36:00,
2013-05-02 03:37:00,43.0,29.2,25.63,NNE,22,16.1,16.1,58,0.00,,---,0.00,VWS V14.01,2013-05-02 08:37:00,
2013-05-02 03:38:00,43.0,29.2,25.63,NNE,22,16.1,16.1,58,0.00,,---,0.00,VWS V14.01,2013-05-02 08:38:00,
2013-05-02 03:40:00,43.0,29.2,25.63,NNE,22,16.1,16.1,58,0.00,,---,0.00,VWS V14.01,2013-05-02 08:40:00,
2013-05-02 03:41:00,42.8,29.5,25.63,NNE,22,27.5,27.5,59,0.00,,---,0.00,VWS V14.01,2013-05-02 08:41:00,
2013-05-02 03:42:00,42.8,29.5,25.63,NNE,22,27.5,27.5,59,0.00,,---,0.00,VWS V14.01,2013-05-02 08:42:00,
2013-05-02 03:43:00,42.8,29.5,25.63,NNE,22,18.1,27.5,59,0.00,,---,0.00,VWS V14.01,2013-05-02 08:43:00,
2013-05-02 03:44:00,42.8,29.5,25.63,NNE,22,18.1,18.1,59,0.00,,---,0.00,VWS V14.01,2013-05-02 08:44:00,
2013-05-02 03:45:00,42.6,29.3,25.63,NNE,22,18.1,18.1,59,0.00,,---,0.00,VWS V14.01,2013-05-02 08:45:00,
2013-05-02 03:46:00,42.6,29.3,25.63,NNE,22,20.6,20.6,59,0.00,,---,0.00,VWS V14.01,2013-05-02 08:46:00,
2013-05-02 03:47:00,42.6,29.3,25.63,NNE,22,23.7,23.7,59,0.00,,---,0.00,VWS V14.01,2013-05-02 08:47:00,
2013-05-02 03:48:00,42.6,29.3,25.63,NNE,22,23.7,23.7,59,0.00,,---,0.00,VWS V14.01,2013-05-02 08:48:00,
2013-05-02 03:49:00,42.6,29.3,25.63,NNE,22,23.7,23.7,59,0.00,,---,0.00,VWS V14.01,2013-05-02 08:49:00,
2013-05-02 03:50:00,42.6,29.3,25.63,NNE,22,23.7,23.7,59,0.00,,---,0.00,VWS V14.01,2013-05-02 08:50:00,
2013-05-02 03:51:00,42.4,29.1,25.63,NNE,22,23.7,23.7,59,0.00,,---,0.00,VWS V14.01,2013-05-02 08:51:00,
2013-05-02 03:52:00,42.4,29.1,25.63,NNE,22,23.7,23.7,59,0.00,,---,0.00,VWS V14.01,2013-05-02 08:52:00,
2013-05-02 03:53:00,42.4,29.5,25.63,NNE,22,23.7,23.7,60,0.00,,---,0.00,VWS V14.01,2013-05-02 08:53:00,
2013-05-02 03:54:00,42.3,29.4,25.66,NNE,22,23.7,23.7,60,0.00,,---,0.00,VWS V14.01,2013-05-02 08:54:00,
2013-05-02 03:55:00,42.3,29.4,25.66,NNE,22,23.7,23.7,60,0.00,,---,0.00,VWS V14.01,2013-05-02 08:55:00,
2013-05-02 03:56:00,42.3,29.4,25.66,NNE,22,23.7,23.7,60,0.00,,---,0.00,VWS V14.01,2013-05-02 08:56:00,
2013-05-02 03:57:00,42.3,29.4,25.66,NNE,22,23.7,23.7,60,0.00,,---,0.00,VWS V14.01,2013-05-02 08:57:00,
2013-05-02 03:58:00,42.3,29.4,25.66,NNE,22,17.7,23.7,60,0.00,,---,0.00,VWS V14.01,2013-05-02 08:58:00,
2013-05-02 03:59:00,42.1,29.2,25.66,NNE,22,25.1,25.1,60,0.00,,---,0.00,VWS V14.01,2013-05-02 08:59:00,
2013-05-02 04:00:00,42.1,29.2,25.66,NNE,22,17.7,25.1,60,0.00,,---,0.00,VWS V14.01,2013-05-02 09:00:00,
2013-05-02 04:01:00,42.1,29.2,25.66,NNE,22,20.8,20.8,60,0.00,,---,0.00,VWS V14.01,2013-05-02 09:01:00,
2013-05-02 04:02:00,42.1,29.2,25.66,NNE,22,20.8,20.8,60,0.00,,---,0.00,VWS V14.01,2013-05-02 09:02:00,
2013-05-02 04:03:00,42.1,29.2,25.66,NNE,22,20.8,20.8,60,0.00,,---,0.00,VWS V14.01,2013-05-02 09:03:00,
2013-05-02 04:04:00,41.9,29.5,25.66,NNE,22,20.8,20.8,61,0.00,,---,0.00,VWS V14.01,2013-05-02 09:04:00,
2013-05-02 04:05:00,41.9,29.5,25.66,NNE,22,23.0,23.0,61,0.00,,---,0.00,VWS V14.01,2013-05-02 09:05:00,
2013-05-02 04:06:00,41.9,29.5,25.66,NNE,22,23.0,23.0,61,0.00,,---,0.00,VWS V14.01,2013-05-02 09:06:00,
2013-05-02 04:07:00,41.9,29.5,25.66,NNE,22,25.7,25.7,61,0.00,,---,0.00,VWS V14.01,2013-05-02 09:07:00,
2013-05-02 04:08:00,41.9,29.5,25.66,NNE,22,25.7,25.7,61,0.00,,---,0.00,VWS V14.01,2013-05-02 09:08:00,
2013-05-02 04:09:00,41.9,29.5,25.66,NNE,22,17.5,25.7,61,0.00,,---,0.00,VWS V14.01,2013-05-02 09:09:00,
2013-05-02 04:10:00,41.9,29.5,25.66,NNE,22,17.5,17.5,61,0.00,,---,0.00,VWS V14.01,2013-05-02 09:10:00,
2013-05-02 04:11:00,41.9,29.5,25.66,NNE,22,17.5,17.5,61,0.00,,---,0.00,VWS V14.01,2013-05-02 09:11:00,
2013-05-02 04:12:00,41.9,29.5,25.66,NNE,22,17.5,17.5,61,0.00,,---,0.00,VWS V14.01,2013-05-02 09:12:00,
2013-05-02 04:13:00,41.7,29.3,25.66,NNE,22,21.9,23.3,61,0.00,,---,0.00,VWS V14.01,2013-05-02 09:13:00,
2013-05-02 04:14:00,41.7,29.3,25.66,NNE,22,21.9,21.9,61,0.00,,---,0.00,VWS V14.01,2013-05-02 09:14:00,
2013-05-02 04:15:00,41.7,29.3,25.66,NNE,22,24.2,24.2,61,0.00,,---,0.00,VWS V14.01,2013-05-02 09:15:00,
2013-05-02 04:16:00,41.5,29.5,25.66,NNE,22,24.2,24.2,62,0.00,,---,0.00,VWS V14.01,2013-05-02 09:16:00,
2013-05-02 04:17:00,41.5,29.5,25.66,NNE,22,23.7,24.2,62,0.00,,---,0.00,VWS V14.01,2013-05-02 09:17:00,
2013-05-02 04:18:00,41.5,29.5,25.66,NNE,22,25.7,25.7,62,0.00,,---,0.00,VWS V14.01,2013-05-02 09:18:00,
2013-05-02 04:19:00,41.5,29.5,25.66,NNE,22,25.7,25.7,62,0.00,,---,0.00,VWS V14.01,2013-05-02 09:19:00,
2013-05-02 04:20:00,41.4,29.7,25.66,NNE,22,22.2,25.7,63,0.00,,---,0.00,VWS V14.01,2013-05-02 09:20:00,
2013-05-02 04:21:00,41.4,29.7,25.66,NE,45,25.5,25.5,63,0.00,,---,0.00,VWS V14.01,2013-05-02 09:21:00,
2013-05-02 04:22:00,41.4,29.7,25.66,NNE,22,24.6,25.5,63,0.00,,---,0.00,VWS V14.01,2013-05-02 09:22:00,
2013-05-02 04:23:00,41.2,29.6,25.66,NNE,22,16.8,22.6,63,0.00,,---,0.00,VWS V14.01,2013-05-02 09:23:00,
2013-05-02 04:24:00,41.2,29.6,25.69,NNE,22,16.8,22.6,63,0.00,,---,0.00,VWS V14.01,2013-05-02 09:24:00,
2013-05-02 04:25:00,41.2,29.6,25.69,NNE,22,16.8,16.8,63,0.00,,---,0.00,VWS V14.01,2013-05-02 09:25:00,
2013-05-02 04:26:00,41.2,29.6,25.69,NNE,22,16.8,16.8,63,0.00,,---,0.00,VWS V14.01,2013-05-02 09:26:00,
2013-05-02 04:27:00,41.2,29.6,25.69,NNE,22,19.5,19.5,63,0.00,,---,0.00,VWS V14.01,2013-05-02 09:27:00,
2013-05-02 04:28:00,41.2,29.6,25.69,NNE,22,20.4,20.4,63,0.00,,---,0.00,VWS V14.01,2013-05-02 09:28:00,
2013-05-02 04:29:00,41.2,29.6,25.69,NNE,22,20.6,20.6,63,0.00,,---,0.00,VWS V14.01,2013-05-02 09:29:00,
2013-05-02 04:30:00,41.2,29.6,25.69,NNE,22,20.1,20.6,63,0.00,,---,0.00,VWS V14.01,2013-05-02 09:30:00,
2013-05-02 04:31:00,41.2,29.6,25.69,NNE,22,22.8,22.8,63,0.00,,---,0.00,VWS V14.01,2013-05-02 09:31:00,
2013-05-02 04:32:00,41.0,29.4,25.69,NNE,22,22.8,22.8,63,0.00,,---,0.00,VWS V14.01,2013-05-02 09:32:00,
2013-05-02 04:33:00,41.0,29.4,25.69,NNE,22,19.9,22.8,63,0.00,,---,0.00,VWS V14.01,2013-05-02 09:33:00,
2013-05-02 04:34:00,41.0,29.4,25.69,NNE,22,17.5,19.9,63,0.00,,---,0.00,VWS V14.01,2013-05-02 09:34:00,
2013-05-02 04:35:00,41.2,29.6,25.69,NNE,22,17.5,17.5,63,0.00,,---,0.00,VWS V14.01,2013-05-02 09:35:00,
2013-05-02 04:36:00,41.0,29.4,25.69,NNE,22,17.5,17.5,63,0.00,,---,0.00,VWS V14.01,2013-05-02 09:36:00,
2013-05-02 04:37:00,41.0,29.4,25.69,NNE,22,17.5,17.5,63,0.00,,---,0.00,VWS V14.01,2013-05-02 09:37:00,
2013-05-02 04:38:00,40.8,29.6,25.69,NNE,22,23.3,27.1,64,0.00,,---,0.00,VWS V14.01,2013-05-02 09:38:00,
2013-05-02 04:39:00,40.8,29.6,25.66,NNE,22,23.3,23.3,64,0.00,,---,0.00,VWS V14.01,2013-05-02 09:39:00,
2013-05-02 04:40:00,40.6,29.4,25.66,NNE,22,23.3,23.3,64,0.00,,---,0.00,VWS V14.01,2013-05-02 09:40:00,
2013-05-02 04:41:00,40.6,29.4,25.66,NNE,22,23.3,23.3,64,0.00,,---,0.00,VWS V14.01,2013-05-02 09:41:00,
2013-05-02 04:42:00,40.6,29.4,25.66,NNE,22,23.3,23.3,64,0.00,,---,0.00,VWS V14.01,2013-05-02 09:42:00,
2013-05-02 04:43:00,40.6,29.4,25.66,NNE,22,23.3,23.3,64,0.00,,---,0.00,VWS V14.01,2013-05-02 09:43:00,
2013-05-02 04:44:00,40.6,29.4,25.66,NNE,22,19.0,23.3,64,0.00,,---,0.00,VWS V14.01,2013-05-02 09:44:00,
2013-05-02 04:45:00,40.6,29.8,25.66,NNE,22,22.6,22.6,65,0.00,,---,0.00,VWS V14.01,2013-05-02 09:45:00,
2013-05-02 04:46:00,40.6,29.8,25.66,NNE,22,24.4,24.4,65,0.00,,---,0.00,VWS V14.01,2013-05-02 09:46:00,
2013-05-02 04:47:00,40.6,29.8,25.66,NNE,22,22.6,24.4,65,0.00,,---,0.00,VWS V14.01,2013-05-02 09:47:00,
2013-05-02 04:48:00,40.6,29.8,25.66,NNE,22,23.9,23.9,65,0.00,,---,0.00,VWS V14.01,2013-05-02 09:48:00,
2013-05-02 04:49:00,40.6,29.8,25.66,NNE,22,23.9,23.9,65,0.00,,---,0.00,VWS V14.01,2013-05-02 09:49:00,
2013-05-02 04:51:00,40.6,29.8,25.66,NNE,22,23.9,23.9,65,0.00,,---,0.00,VWS V14.01,2013-05-02 09:51:00,
2013-05-02 04:52:00,40.6,29.8,25.66,NNE,22,19.5,23.9,65,0.00,,---,0.00,VWS V14.01,2013-05-02 09:52:00,
2013-05-02 04:53:00,40.6,29.8,25.66,NNE,22,15.9,19.5,65,0.00,,---,0.00,VWS V14.01,2013-05-02 09:53:00,
2013-05-02 04:54:00,40.6,29.8,25.66,NNE,22,15.9,15.9,65,0.00,,---,0.00,VWS V14.01,2013-05-02 09:54:00,
2013-05-02 04:55:00,40.6,29.8,25.66,NNE,22,15.9,15.9,65,0.00,,---,0.00,VWS V14.01,2013-05-02 09:55:00,
2013-05-02 04:56:00,40.5,30.0,25.66,NNE,22,15.9,15.9,66,0.00,,---,0.00,VWS V14.01,2013-05-02 09:56:00,
2013-05-02 04:57:00,40.3,30.2,25.66,NNE,22,22.8,22.8,67,0.00,,---,0.00,VWS V14.01,2013-05-02 09:57:00,
2013-05-02 04:58:00,40.3,30.2,25.66,NNE,22,22.8,22.8,67,0.00,,---,0.00,VWS V14.01,2013-05-02 09:58:00,
2013-05-02 04:59:00,40.3,30.2,25.66,NNE,22,17.2,22.8,67,0.00,,---,0.00,VWS V14.01,2013-05-02 09:59:00,
2013-05-02 05:00:00,40.3,30.2,25.66,NNE,22,17.5,17.5,67,0.00,,---,0.00,VWS V14.01,2013-05-02 10:00:00,
2013-05-02 05:01:00,40.3,30.2,25.66,NNE,22,18.1,18.1,67,0.00,,---,0.00,VWS V14.01,2013-05-02 10:01:00,
2013-05-02 05:02:00,40.3,30.6,25.66,NNE,22,18.1,18.1,68,0.00,,---,0.00,VWS V14.01,2013-05-02 10:02:00,
2013-05-02 05:03:00,40.1,30.4,25.66,NNE,22,23.5,23.5,68,0.00,,---,0.00,VWS V14.01,2013-05-02 10:03:00,
2013-05-02 05:04:00,40.1,30.4,25.66,NNE,22,23.5,23.5,68,0.00,,---,0.00,VWS V14.01,2013-05-02 10:04:00,
2013-05-02 05:05:00,40.1,30.4,25.66,NNE,22,23.7,23.7,68,0.00,,---,0.00,VWS V14.01,2013-05-02 10:05:00,
2013-05-02 05:06:00,40.1,30.4,25.66,NNE,22,23.7,23.7,68,0.00,,---,0.00,VWS V14.01,2013-05-02 10:06:00,
2013-05-02 05:07:00,39.9,30.6,25.66,NNE,22,23.7,23.7,69,0.00,,---,0.00,VWS V14.01,2013-05-02 10:07:00,
2013-05-02 05:08:00,39.9,30.6,25.66,NNE,22,17.7,23.7,69,0.00,,---,0.00,VWS V14.01,2013-05-02 10:08:00,
2013-05-02 05:09:00,39.9,30.6,25.69,NNE,22,17.9,17.9,69,0.00,,---,0.00,VWS V14.01,2013-05-02 10:09:00,
2013-05-02 05:10:00,39.7,30.4,25.69,NNE,22,24.6,24.6,69,0.00,,---,0.00,VWS V14.01,2013-05-02 10:10:00,
2013-05-02 05:11:00,39.7,30.4,25.69,NNE,22,24.6,24.6,69,0.00,,---,0.00,VWS V14.01,2013-05-02 10:11:00,
2013-05-02 05:12:00,39.9,30.6,25.69,NNE,22,18.8,24.6,69,0.00,,---,0.00,VWS V14.01,2013-05-02 10:12:00,
2013-05-02 05:13:00,39.9,30.9,25.69,NNE,22,18.8,18.8,70,0.00,,---,0.00,VWS V14.01,2013-05-02 10:13:00,
2013-05-02 05:14:00,39.7,30.4,25.69,NNE,22,19.7,19.7,69,0.00,,---,0.00,VWS V14.01,2013-05-02 10:14:00,
2013-05-02 05:15:00,39.7,30.4,25.69,NNE,22,19.2,19.7,69,0.00,,---,0.00,VWS V14.01,2013-05-02 10:15:00,
2013-05-02 05:16:00,39.7,30.4,25.69,NNE,22,15.9,19.2,69,0.00,,---,0.00,VWS V14.01,2013-05-02 10:16:00,
2013-05-02 05:17:00,39.7,30.4,25.69,NNE,22,19.7,19.7,69,0.00,,---,0.00,VWS V14.01,2013-05-02 10:17:00,
2013-05-02 05:18:00,39.7,30.4,25.69,North,0,19.7,19.7,69,0.00,,---,0.00,VWS V14.01,2013-05-02 10:18:00,
2013-05-02 05:19:00,39.7,30.4,25.69,North,0,19.7,19.7,69,0.00,,---,0.00,VWS V14.01,2013-05-02 10:19:00,
2013-05-02 05:20:00,39.7,30.4,25.69,North,0,19.7,19.7,69,0.00,,---,0.00,VWS V14.01,2013-05-02 10:20:00,
2013-05-02 05:21:00,39.6,30.6,25.69,North,0,19.7,19.7,70,0.00,,---,0.00,VWS V14.01,2013-05-02 10:21:00,
2013-05-02 05:22:00,39.6,30.6,25.69,NNE,22,15.2,19.7,70,0.00,,---,0.00,VWS V14.01,2013-05-02 10:22:00,
2013-05-02 05:23:00,39.6,30.6,25.69,NNE,22,20.6,20.6,70,0.00,,---,0.00,VWS V14.01,2013-05-02 10:23:00,
2013-05-02 05:24:00,39.6,30.6,25.69,NNE,22,20.6,20.6,70,0.00,,---,0.00,VWS V14.01,2013-05-02 10:24:00,
2013-05-02 05:25:00,39.6,30.6,25.69,NNE,22,22.8,22.8,70,0.00,,---,0.00,VWS V14.01,2013-05-02 10:25:00,
2013-05-02 05:26:00,39.4,30.4,25.69,NNE,22,22.8,22.8,70,0.00,,---,0.00,VWS V14.01,2013-05-02 10:26:00,
2013-05-02 05:27:00,39.4,30.4,25.69,NNE,22,26.2,26.2,70,0.00,,---,0.00,VWS V14.01,2013-05-02 10:27:00,
2013-05-02 05:28:00,39.4,30.4,25.69,NNE,22,26.2,26.2,70,0.00,,---,0.00,VWS V14.01,2013-05-02 10:28:00,
2013-05-02 05:29:00,39.6,30.2,25.69,NNE,22,26.2,26.2,69,0.00,,---,0.00,VWS V14.01,2013-05-02 10:29:00,
2013-05-02 05:30:00,39.4,30.1,25.69,North,0,25.5,26.2,69,0.00,,---,0.00,VWS V14.01,2013-05-02 10:30:00,
2013-05-02 05:31:00,39.4,30.1,25.69,NNE,22,19.7,25.5,69,0.00,,---,0.00,VWS V14.01,2013-05-02 10:31:00,
2013-05-02 05:32:00,39.4,30.1,25.69,North,0,22.4,22.4,69,0.00,,---,0.00,VWS V14.01,2013-05-02 10:32:00,
2013-05-02 05:33:00,39.4,30.1,25.69,NNE,22,21.9,22.4,69,0.00,,---,0.00,VWS V14.01,2013-05-02 10:33:00,
2013-05-02 05:34:00,39.4,30.1,25.69,NNE,22,21.9,21.9,69,0.00,,---,0.00,VWS V14.01,2013-05-02 10:34:00,
2013-05-02 05:35:00,39.6,30.2,25.69,NNE,22,17.7,21.9,69,0.00,,---,0.00,VWS V14.01,2013-05-02 10:35:00,
2013-05-02 05:36:00,39.6,30.2,25.69,NNE,22,17.7,17.7,69,0.00,,---,0.00,VWS V14.01,2013-05-02 10:36:00,
2013-05-02 05:37:00,39.6,29.9,25.69,NNE,22,17.7,17.7,68,0.00,,---,0.00,VWS V14.01,2013-05-02 10:37:00,
2013-05-02 05:38:00,39.7,30.1,25.69,North,0,23.3,23.3,68,0.00,,---,0.00,VWS V14.01,2013-05-02 10:38:00,
2013-05-02 05:39:00,39.7,30.1,25.69,North,0,22.8,23.5,68,0.00,,---,0.00,VWS V14.01,2013-05-02 10:39:00,
2013-05-02 05:40:00,39.7,30.1,25.69,North,0,22.8,22.8,68,0.00,,---,0.00,VWS V14.01,2013-05-02 10:40:00,
2013-05-02 05:41:00,39.7,30.1,25.69,North,0,22.8,22.8,68,0.00,,---,0.00,VWS V14.01,2013-05-02 10:41:00,
2013-05-02 05:42:00,39.7,30.1,25.69,NNE,22,15.4,23.3,68,0.00,,---,0.00,VWS V14.01,2013-05-02 10:42:00,
2013-05-02 05:43:00,39.7,30.1,25.69,NNE,22,17.5,17.5,68,0.00,,---,0.00,VWS V14.01,2013-05-02 10:43:00,
2013-05-02 05:44:00,39.6,30.2,25.69,NNE,22,17.5,17.5,69,0.00,,---,0.00,VWS V14.01,2013-05-02 10:44:00,
2013-05-02 05:45:00,39.4,30.8,25.69,NNE,22,20.4,20.4,71,0.00,,---,0.00,VWS V14.01,2013-05-02 10:45:00,
2013-05-02 05:46:00,39.4,30.8,25.69,NNE,22,22.2,22.2,71,0.00,,---,0.00,VWS V14.01,2013-05-02 10:46:00,
2013-05-02 05:47:00,39.2,30.6,25.69,NNE,22,17.7,22.2,71,0.00,,---,0.00,VWS V14.01,2013-05-02 10:47:00,
2013-05-02 05:48:00,39.2,30.6,25.69,NNE,22,17.7,17.7,71,0.00,,---,0.00,VWS V14.01,2013-05-02 10:48:00,
2013-05-02 05:49:00,39.0,30.4,25.69,NNE,22,17.7,17.7,71,0.00,,---,0.00,VWS V14.01,2013-05-02 10:49:00,
2013-05-02 05:50:00,39.0,30.4,25.69,NNE,22,13.2,17.7,71,0.00,,---,0.00,VWS V14.01,2013-05-02 10:50:00,
2013-05-02 05:51:00,39.0,30.4,25.69,NNE,22,24.6,24.6,71,0.00,,---,0.00,VWS V14.01,2013-05-02 10:51:00,
2013-05-02 05:52:00,39.0,30.4,25.69,NNE,22,24.6,24.6,71,0.00,,---,0.00,VWS V14.01,2013-05-02 10:52:00,
2013-05-02 05:53:00,38.7,31.8,25.69,NNE,22,21.5,24.6,76,0.00,,---,0.00,VWS V14.01,2013-05-02 10:53:00,
2013-05-02 05:54:00,38.5,31.6,25.69,NNE,22,19.0,21.5,76,0.00,,---,0.00,VWS V14.01,2013-05-02 10:54:00,
2013-05-02 05:55:00,38.5,31.6,25.72,NNE,22,16.3,19.0,76,0.00,,---,0.00,VWS V14.01,2013-05-02 10:55:00,
2013-05-02 05:56:00,38.3,31.4,25.72,NNE,22,19.7,19.7,76,0.00,,---,0.00,VWS V14.01,2013-05-02 10:56:00,
2013-05-02 05:57:00,38.3,31.4,25.72,NNE,22,21.9,21.9,76,0.00,,---,0.00,VWS V14.01,2013-05-02 10:57:00,
2013-05-02 05:58:00,38.1,31.2,25.72,NNE,22,19.5,21.9,76,0.00,,---,0.00,VWS V14.01,2013-05-02 10:58:00,
2013-05-02 05:59:00,38.3,31.7,25.72,NNE,22,19.5,19.5,77,0.00,,---,0.00,VWS V14.01,2013-05-02 10:59:00,
2013-05-02 06:00:00,38.3,31.7,25.72,NNE,22,19.5,19.5,77,0.00,,---,0.00,VWS V14.01,2013-05-02 11:00:00,
2013-05-02 06:01:00,38.3,31.7,25.72,NNE,22,19.5,19.5,77,0.00,,---,0.00,VWS V14.01,2013-05-02 11:01:00,
2013-05-02 06:02:00,38.3,31.7,25.72,NNE,22,19.5,19.5,77,0.00,,---,0.00,VWS V14.01,2013-05-02 11:02:00,
2013-05-02 06:03:00,38.3,31.7,25.72,NNE,22,21.0,21.0,77,0.00,,---,0.00,VWS V14.01,2013-05-02 11:03:00,
2013-05-02 06:04:00,38.1,31.6,25.72,NNE,22,17.7,21.0,77,0.00,,---,0.00,VWS V14.01,2013-05-02 11:04:00,
2013-05-02 06:05:00,38.1,31.6,25.72,NNE,22,17.5,19.5,77,0.00,,---,0.00,VWS V14.01,2013-05-02 11:05:00,
2013-05-02 06:06:00,38.1,31.6,25.72,NNE,22,12.3,17.5,77,0.00,,---,0.00,VWS V14.01,2013-05-02 11:06:00,
2013-05-02 06:07:00,38.3,31.7,25.72,NNE,22,15.9,15.9,77,0.00,,---,0.00,VWS V14.01,2013-05-02 11:07:00,
2013-05-02 06:08:00,38.3,31.4,25.72,NE,45,12.8,15.9,76,0.00,,---,0.00,VWS V14.01,2013-05-02 11:08:00,
2013-05-02 06:09:00,38.3,31.4,25.72,NNE,22,21.5,21.5,76,0.00,,---,0.00,VWS V14.01,2013-05-02 11:09:00,
2013-05-02 06:10:00,38.3,31.1,25.72,NNE,22,21.5,21.5,75,0.00,,---,0.00,VWS V14.01,2013-05-02 11:10:00,
2013-05-02 06:11:00,38.3,31.1,25.72,NNE,22,17.2,21.5,75,0.00,,---,0.00,VWS V14.01,2013-05-02 11:11:00,
2013-05-02 06:12:00,38.3,31.1,25.72,North,0,15.4,17.2,75,0.00,,---,0.00,VWS V14.01,2013-05-02 11:12:00,
2013-05-02 06:14:00,38.5,31.3,25.72,North,0,15.4,15.4,75,0.00,,---,0.00,VWS V14.01,2013-05-02 11:14:00,
2013-05-02 06:15:00,38.5,30.9,25.72,NNE,22,19.2,19.2,74,0.00,,---,0.00,VWS V14.01,2013-05-02 11:15:00,
2013-05-02 06:16:00,38.5,30.9,25.72,NNE,22,19.2,19.2,74,0.00,,---,0.00,VWS V14.01,2013-05-02 11:16:00,
2013-05-02 06:17:00,38.5,30.9,25.72,NNE,22,19.2,19.2,74,0.00,,---,0.00,VWS V14.01,2013-05-02 11:17:00,
2013-05-02 06:18:00,38.3,30.8,25.72,NNE,22,19.2,19.2,74,0.00,,---,0.00,VWS V14.01,2013-05-02 11:18:00,
2013-05-02 06:19:00,38.5,30.9,25.72,NE,45,13.0,19.2,74,0.00,,---,0.00,VWS V14.01,2013-05-02 11:19:00,
2013-05-02 06:20:00,38.5,30.9,25.72,NE,45,13.0,13.0,74,0.00,,---,0.00,VWS V14.01,2013-05-02 11:20:00,
2013-05-02 06:21:00,38.5,30.9,25.72,NNE,22,24.2,24.2,74,0.00,,---,0.00,VWS V14.01,2013-05-02 11:21:00,
2013-05-02 06:22:00,38.5,30.6,25.72,NNE,22,24.2,24.2,73,0.00,,---,0.00,VWS V14.01,2013-05-02 11:22:00,
2013-05-02 06:23:00,38.5,30.6,25.72,NNE,22,24.2,24.2,73,0.00,,---,0.00,VWS V14.01,2013-05-02 11:23:00,
2013-05-02 06:24:00,38.5,30.6,25.72,NNE,22,19.2,24.2,73,0.00,,---,0.00,VWS V14.01,2013-05-02 11:24:00,
2013-05-02 06:25:00,38.5,30.6,25.72,NNE,22,19.2,19.2,73,0.00,,---,0.00,VWS V14.01,2013-05-02 11:25:00,
2013-05-02 06:26:00,38.5,30.6,25.72,NNE,22,19.9,19.9,73,0.00,,---,0.00,VWS V14.01,2013-05-02 11:26:00,
2013-05-02 06:27:00,38.3,30.8,25.72,NNE,22,19.9,19.9,74,0.00,,---,0.00,VWS V14.01,2013-05-02 11:27:00,
2013-05-02 06:28:00,38.1,30.6,25.72,NNE,22,19.9,19.9,74,0.00,,---,0.00,VWS V14.01,2013-05-02 11:28:00,
2013-05-02 06:29:00,38.1,30.6,25.72,NNE,22,19.9,19.9,74,0.00,,---,0.00,VWS V14.01,2013-05-02 11:29:00,
2013-05-02 06:30:00,38.1,30.6,25.72,NNE,22,19.9,19.9,74,0.00,,---,0.00,VWS V14.01,2013-05-02 11:30:00,
2013-05-02 06:31:00,38.1,30.6,25.72,NNE,22,20.8,20.8,74,0.00,,---,0.00,VWS V14.01,2013-05-02 11:31:00,
2013-05-02 06:32:00,38.1,30.6,25.72,NNE,22,17.7,20.8,74,0.00,,---,0.00,VWS V14.01,2013-05-02 11:32:00,
2013-05-02 06:33:00,38.1,30.6,25.72,NNE,22,17.7,17.7,74,0.00,,---,0.00,VWS V14.01,2013-05-02 11:33:00,
2013-05-02 06:34:00,38.1,30.6,25.72,NNE,22,13.0,17.7,74,0.00,,---,0.00,VWS V14.01,2013-05-02 11:34:00,
2013-05-02 06:35:00,38.1,30.6,25.72,North,0,17.0,17.0,74,0.00,,---,0.00,VWS V14.01,2013-05-02 11:35:00,
2013-05-02 06:36:00,38.1,30.6,25.72,NNE,22,22.8,22.8,74,0.00,,---,0.00,VWS V14.01,2013-05-02 11:36:00,
2013-05-02 06:37:00,38.1,30.9,25.72,NNE,22,19.5,19.5,75,0.00,,---,0.00,VWS V14.01,2013-05-02 11:37:00,
2013-05-02 06:38:00,38.1,30.9,25.72,NNE,22,19.5,19.5,75,0.00,,---,0.00,VWS V14.01,2013-05-02 11:38:00,
2013-05-02 06:39:00,38.1,30.9,25.72,NNE,22,19.5,19.5,75,0.00,,---,0.00,VWS V14.01,2013-05-02 11:39:00,
2013-05-02 06:40:00,37.9,31.1,25.72,NNW,338,17.0,19.5,76,0.00,,---,0.00,VWS V14.01,2013-05-02 11:40:00,
2013-05-02 06:41:00,37.9,31.4,25.72,NNE,22,17.2,17.2,77,0.00,,---,0.00,VWS V14.01,2013-05-02 11:41:00,
2013-05-02 06:42:00,38.1,31.6,25.72,NNE,22,17.2,17.2,77,0.00,,---,0.00,VWS V14.01,2013-05-02 11:42:00,
2013-05-02 06:43:00,37.9,31.7,25.72,NNE,22,17.5,17.5,78,0.00,,---,0.00,VWS V14.01,2013-05-02 11:43:00,
2013-05-02 06:44:00,37.9,31.7,25.72,NNE,22,17.5,17.5,78,0.00,,---,0.00,VWS V14.01,2013-05-02 11:44:00,
2013-05-02 06:45:00,37.8,31.5,25.72,NNE,22,21.5,21.5,78,0.00,,---,0.00,VWS V14.01,2013-05-02 11:45:00,
2013-05-02 06:46:00,37.8,31.8,25.72,NNE,22,21.5,21.5,79,0.00,,---,0.00,VWS V14.01,2013-05-02 11:46:00,
2013-05-02 06:47:00,37.8,31.8,25.72,NNE,22,21.5,21.5,79,0.00,,---,0.00,VWS V14.01,2013-05-02 11:47:00,
2013-05-02 06:48:00,37.8,31.8,25.72,NNE,22,21.5,21.5,79,0.00,,---,0.00,VWS V14.01,2013-05-02 11:48:00,
2013-05-02 06:49:00,37.8,31.8,25.72,NNE,22,21.5,21.5,79,0.00,,---,0.00,VWS V14.01,2013-05-02 11:49:00,
2013-05-02 06:50:00,37.8,31.8,25.72,NNE,22,21.5,21.5,79,0.00,,---,0.00,VWS V14.01,2013-05-02 11:50:00,
2013-05-02 06:51:00,37.6,31.7,25.72,NE,45,14.8,21.5,79,0.00,,---,0.00,VWS V14.01,2013-05-02 11:51:00,
2013-05-02 06:52:00,37.6,31.7,25.72,NNE,22,19.0,19.0,79,0.00,,---,0.00,VWS V14.01,2013-05-02 11:52:00,
2013-05-02 06:53:00,37.6,32.3,25.72,NNE,22,19.0,19.0,81,0.00,,---,0.00,VWS V14.01,2013-05-02 11:53:00,
2013-05-02 06:54:00,37.6,32.6,25.72,NNE,22,19.0,19.0,82,0.00,,---,0.00,VWS V14.01,2013-05-02 11:54:00,
2013-05-02 06:55:00,37.6,32.6,25.72,NNE,22,20.1,20.1,82,0.00,,---,0.00,VWS V14.01,2013-05-02 11:55:00,
2013-05-02 06:56:00,37.6,32.6,25.72,NNE,22,19.7,20.1,82,0.00,,---,0.00,VWS V14.01,2013-05-02 11:56:00,
2013-05-02 06:57:00,37.4,32.4,25.72,NNE,22,13.4,19.7,82,0.00,,---,0.00,VWS V14.01,2013-05-02 11:57:00,
2013-05-02 06:58:00,37.4,32.4,25.72,NNE,22,17.5,17.5,82,0.00,,---,0.00,VWS V14.01,2013-05-02 11:58:00,
2013-05-02 06:59:00,37.4,32.7,25.72,NNE,22,17.5,17.5,83,0.00,,---,0.00,VWS V14.01,2013-05-02 11:59:00,
2013-05-02 07:00:00,37.4,32.7,25.72,NNE,22,17.5,17.5,83,0.00,,---,0.00,VWS V14.01,2013-05-02 12:00:00,
2013-05-02 07:01:00,37.4,33.0,25.72,NNE,22,17.5,17.5,84,0.00,,---,0.00,VWS V14.01,2013-05-02 12:01:00,
2013-05-02 07:02:00,37.4,33.3,25.72,North,0,20.1,20.1,85,0.00,,---,0.00,VWS V14.01,2013-05-02 12:02:00,
2013-05-02 07:03:00,37.4,33.3,25.72,NNE,22,17.7,20.1,85,0.00,,---,0.00,VWS V14.01,2013-05-02 12:03:00,
2013-05-02 07:04:00,37.4,33.3,25.72,NNE,22,22.6,22.6,85,0.00,,---,0.00,VWS V14.01,2013-05-02 12:04:00,
2013-05-02 07:05:00,37.4,33.3,25.72,NNE,22,15.2,22.6,85,0.00,,---,0.00,VWS V14.01,2013-05-02 12:05:00,
2013-05-02 07:06:00,37.4,33.6,25.72,NNE,22,17.9,17.9,86,0.00,,---,0.00,VWS V14.01,2013-05-02 12:06:00,
2013-05-02 07:07:00,37.4,33.6,25.72,NNE,22,12.5,17.9,86,0.00,,---,0.00,VWS V14.01,2013-05-02 12:07:00,
2013-05-02 07:08:00,37.4,33.9,25.72,NNE,22,15.2,15.2,87,0.00,,---,0.00,VWS V14.01,2013-05-02 12:08:00,
2013-05-02 07:09:00,37.4,33.9,25.72,NNE,22,13.0,15.4,87,0.00,,---,0.00,VWS V14.01,2013-05-02 12:09:00,
2013-05-02 07:10:00,37.4,34.2,25.72,North,0,14.1,14.1,88,0.00,,---,0.00,VWS V14.01,2013-05-02 12:10:00,
2013-05-02 07:11:00,37.4,34.2,25.72,NNE,22,16.3,17.5,88,0.00,,---,0.00,VWS V14.01,2013-05-02 12:11:00,
2013-05-02 07:13:00,37.4,34.2,25.72,NNE,22,23.0,23.0,88,0.00,,---,0.00,VWS V14.01,2013-05-02 12:13:00,
2013-05-02 07:14:00,37.2,34.0,25.72,NNE,22,22.2,23.0,88,0.00,,---,0.00,VWS V14.01,2013-05-02 12:14:00,
2013-05-02 07:15:00,37.2,34.0,25.72,North,0,22.8,23.0,88,0.00,,---,0.00,VWS V14.01,2013-05-02 12:15:00,
2013-05-02 07:17:00,37.0,33.8,25.72,North,0,23.5,23.5,88,0.00,,---,0.00,VWS V14.01,2013-05-02 12:17:00,
2013-05-02 07:18:00,37.0,33.8,25.72,NNE,22,19.2,23.5,88,0.00,,---,0.00,VWS V14.01,2013-05-02 12:18:00,
2013-05-02 07:19:00,37.0,33.8,25.72,NNE,22,15.7,19.2,88,0.00,,---,0.00,VWS V14.01,2013-05-02 12:19:00,
2013-05-02 07:20:00,37.0,34.1,25.72,NNE,22,19.9,23.0,89,0.00,,---,0.00,VWS V14.01,2013-05-02 12:20:00,
2013-05-02 07:21:00,37.0,34.1,25.72,NNE,22,18.1,19.9,89,0.00,,---,0.00,VWS V14.01,2013-05-02 12:21:00,
2013-05-02 07:22:00,37.0,34.1,25.72,NNE,22,13.0,18.1,89,0.00,,---,0.00,VWS V14.01,2013-05-02 12:22:00,
2013-05-02 07:23:00,37.0,34.4,25.72,NNE,22,20.6,20.6,90,0.00,,---,0.00,VWS V14.01,2013-05-02 12:23:00,
2013-05-02 07:24:00,37.0,34.7,25.75,NNE,22,22.8,22.8,91,0.00,,---,0.00,VWS V14.01,2013-05-02 12:24:00,
2013-05-02 07:25:00,36.9,34.5,25.75,NNE,22,19.2,23.3,91,0.00,,---,0.00,VWS V14.01,2013-05-02 12:25:00,
2013-05-02 07:26:00,37.0,34.9,25.75,North,0,20.1,20.1,92,0.00,,---,0.00,VWS V14.01,2013-05-02 12:26:00,
2013-05-02 07:27:00,37.0,34.9,25.75,NNE,22,17.5,20.1,92,0.00,,---,0.00,VWS V14.01,2013-05-02 12:27:00,
2013-05-02 07:28:00,36.9,34.8,25.75,NNE,22,19.5,22.2,92,0.00,,---,0.00,VWS V14.01,2013-05-02 12:28:00,
2013-05-02 07:29:00,36.9,35.0,25.75,NNE,22,21.0,21.0,93,0.00,,---,0.00,VWS V14.01,2013-05-02 12:29:00,
2013-05-02 07:30:00,36.9,35.0,25.75,NNE,22,22.6,22.6,93,0.00,,---,0.00,VWS V14.01,2013-05-02 12:30:00,
2013-05-02 07:31:00,36.9,35.3,25.75,NNE,22,23.3,26.9,94,0.00,,---,0.00,VWS V14.01,2013-05-02 12:31:00,
2013-05-02 07:32:00,36.9,35.3,25.75,NNE,22,19.2,23.3,94,0.00,,---,0.00,VWS V14.01,2013-05-02 12:32:00,
2013-05-02 07:33:00,36.9,35.3,25.75,NNE,22,21.0,21.0,94,0.00,,---,0.00,VWS V14.01,2013-05-02 12:33:00,
2013-05-02 07:34:00,36.9,35.3,25.75,North,0,19.5,24.2,94,0.00,,---,0.00,VWS V14.01,2013-05-02 12:34:00,
2013-05-02 07:35:00,36.9,35.3,25.75,NNE,22,19.9,22.4,94,0.00,,---,0.00,VWS V14.01,2013-05-02 12:35:00,
2013-05-02 07:36:00,36.9,35.3,25.75,NNE,22,17.2,19.9,94,0.00,,---,0.00,VWS V14.01,2013-05-02 12:36:00,
2013-05-02 07:37:00,36.9,35.6,25.75,NNE,22,19.9,19.9,95,0.00,,---,0.00,VWS V14.01,2013-05-02 12:37:00,
2013-05-02 07:38:00,36.9,35.6,25.75,NE,45,18.6,26.0,95,0.00,,---,0.00,VWS V14.01,2013-05-02 12:38:00,
2013-05-02 07:39:00,36.9,35.6,25.75,NE,45,18.6,18.6,95,0.00,,---,0.00,VWS V14.01,2013-05-02 12:39:00,
2013-05-02 07:40:00,36.9,35.6,25.75,North,0,25.1,27.1,95,0.00,,---,0.00,VWS V14.01,2013-05-02 12:40:00,
2013-05-02 07:41:00,36.9,35.6,25.75,NNE,22,20.8,25.1,95,0.00,,---,0.00,VWS V14.01,2013-05-02 12:41:00,
2013-05-02 07:42:00,36.9,35.6,25.75,NNE,22,23.9,23.9,95,0.00,,---,0.00,VWS V14.01,2013-05-02 12:42:00,
2013-05-02 07:43:00,36.7,35.4,25.75,North,0,21.9,23.9,95,0.00,,---,0.00,VWS V14.01,2013-05-02 12:43:00,
2013-05-02 07:44:00,36.7,35.4,25.75,NNE,22,24.2,24.2,95,0.00,,---,0.00,VWS V14.01,2013-05-02 12:44:00,
2013-05-02 07:45:00,36.7,35.4,25.75,NNE,22,22.8,26.0,95,0.00,,---,0.00,VWS V14.01,2013-05-02 12:45:00,
2013-05-02 07:46:00,36.9,35.8,25.75,NNE,22,17.5,23.7,96,0.00,,---,0.00,VWS V14.01,2013-05-02 12:46:00,
2013-05-02 07:47:00,36.7,35.7,25.75,NNE,22,26.4,26.4,96,0.00,,---,0.00,VWS V14.01,2013-05-02 12:47:00,
2013-05-02 07:48:00,36.7,35.7,25.75,NNE,22,17.0,26.4,96,0.00,,---,0.00,VWS V14.01,2013-05-02 12:48:00,
2013-05-02 07:49:00,36.9,35.8,25.75,NNE,22,17.7,23.3,96,0.00,,---,0.00,VWS V14.01,2013-05-02 12:49:00,
2013-05-02 07:50:00,36.7,35.7,25.75,NNE,22,19.9,24.2,96,0.00,,---,0.00,VWS V14.01,2013-05-02 12:50:00,
2013-05-02 07:51:00,36.9,35.8,25.75,NNE,22,17.0,24.4,96,0.00,,---,0.00,VWS V14.01,2013-05-02 12:51:00,
2013-05-02 07:52:00,36.9,35.8,25.75,North,0,17.5,22.2,96,0.00,,---,0.00,VWS V14.01,2013-05-02 12:52:00,
2013-05-02 07:53:00,36.7,35.9,25.75,NNW,338,22.8,22.8,97,0.00,,---,0.00,VWS V14.01,2013-05-02 12:53:00,
2013-05-02 07:54:00,36.7,35.9,25.75,NNE,22,22.6,22.8,97,0.00,,---,0.00,VWS V14.01,2013-05-02 12:54:00,
2013-05-02 07:55:00,36.7,35.9,25.75,NNE,22,25.3,25.3,97,0.00,,---,0.00,VWS V14.01,2013-05-02 12:55:00,
2013-05-02 07:56:00,36.7,35.7,25.75,NE,45,15.9,25.3,96,0.00,,---,0.00,VWS V14.01,2013-05-02 12:56:00,
2013-05-02 07:57:00,36.7,35.7,25.75,NNE,22,22.4,25.3,96,0.00,,---,0.00,VWS V14.01,2013-05-02 12:57:00,
2013-05-02 07:58:00,36.5,35.5,25.75,NNE,22,16.6,22.8,96,0.00,,---,0.00,VWS V14.01,2013-05-02 12:58:00,
2013-05-02 07:59:00,36.5,35.5,25.75,NNE,22,19.9,26.0,96,0.00,,---,0.00,VWS V14.01,2013-05-02 12:59:00,
2013-05-02 08:00:00,36.5,35.5,25.75,North,0,23.9,23.9,96,0.00,,---,0.00,VWS V14.01,2013-05-02 13:00:00,
2013-05-02 08:01:00,36.3,35.3,25.75,North,0,27.7,27.7,96,0.00,,---,0.00,VWS V14.01,2013-05-02 13:01:00,
2013-05-02 08:02:00,36.3,35.3,25.75,North,0,23.9,27.7,96,0.00,,---,0.00,VWS V14.01,2013-05-02 13:02:00,
2013-05-02 08:03:00,36.3,35.3,25.75,NNE,22,22.2,23.9,96,0.00,,---,0.00,VWS V14.01,2013-05-02 13:03:00,
2013-05-02 08:04:00,36.3,35.3,25.75,NNE,22,23.3,24.6,96,0.00,,---,0.00,VWS V14.01,2013-05-02 13:04:00,
2013-05-02 08:05:00,36.3,35.3,25.75,NNE,22,22.8,23.3,96,0.00,,---,0.00,VWS V14.01,2013-05-02 13:05:00,
2013-05-02 08:06:00,36.3,35.3,25.75,NNE,22,19.9,22.8,96,0.00,,---,0.00,VWS V14.01,2013-05-02 13:06:00,
2013-05-02 08:07:00,36.3,35.3,25.75,NNE,22,20.4,20.4,96,0.00,,---,0.00,VWS V14.01,2013-05-02 13:07:00,
2013-05-02 08:09:00,36.3,35.3,25.78,NNE,22,22.8,26.2,96,0.00,,---,0.00,VWS V14.01,2013-05-02 13:09:00,
2013-05-02 08:10:00,36.1,35.4,25.78,NNE,22,15.4,23.9,97,0.00,,---,0.00,VWS V14.01,2013-05-02 13:10:00,
2013-05-02 08:11:00,36.1,35.4,25.78,NNE,22,27.1,28.4,97,0.00,,---,0.00,VWS V14.01,2013-05-02 13:11:00,
2013-05-02 08:12:00,36.1,35.4,25.78,NNE,22,26.4,27.1,97,0.00,,---,0.00,VWS V14.01,2013-05-02 13:12:00,
2013-05-02 08:13:00,36.1,35.4,25.78,NNE,22,21.9,26.6,97,0.00,,---,0.00,VWS V14.01,2013-05-02 13:13:00,
2013-05-02 08:14:00,36.1,35.4,25.78,NNE,22,17.0,24.2,97,0.00,,---,0.00,VWS V14.01,2013-05-02 13:14:00,
2013-05-02 08:15:00,36.1,35.4,25.78,NNE,22,25.7,25.7,97,0.00,,---,0.00,VWS V14.01,2013-05-02 13:15:00,
2013-05-02 08:16:00,36.1,35.4,25.78,NNE,22,16.6,27.1,97,0.00,,---,0.00,VWS V14.01,2013-05-02 13:16:00,
2013-05-02 08:17:00,36.1,35.4,25.78,North,0,23.9,23.9,97,0.00,,---,0.00,VWS V14.01,2013-05-02 13:17:00,
2013-05-02 08:18:00,36.1,35.4,25.78,NNE,22,20.6,23.9,97,0.00,,---,0.00,VWS V14.01,2013-05-02 13:18:00,
2013-05-02 08:19:00,36.1,35.4,25.78,NNE,22,22.6,22.6,97,0.00,,---,0.00,VWS V14.01,2013-05-02 13:19:00,
2013-05-02 08:20:00,36.1,35.4,25.78,NNE,22,22.6,24.4,97,0.00,,---,0.00,VWS V14.01,2013-05-02 13:20:00,
2013-05-02 08:21:00,36.1,35.4,25.78,NNE,22,23.3,26.6,97,0.00,,---,0.00,VWS V14.01,2013-05-02 13:21:00,
2013-05-02 08:22:00,36.1,35.4,25.78,NNE,22,20.1,23.3,97,0.00,,---,0.00,VWS V14.01,2013-05-02 13:22:00,
2013-05-02 08:23:00,36.0,35.2,25.78,NNE,22,22.6,22.6,97,0.00,,---,0.00,VWS V14.01,2013-05-02 13:23:00,
2013-05-02 08:24:00,35.8,35.0,25.81,NNE,22,19.9,24.2,97,0.00,,---,0.00,VWS V14.01,2013-05-02 13:24:00,
2013-05-02 08:25:00,35.8,35.0,25.81,NNE,22,22.4,25.7,97,0.00,,---,0.00,VWS V14.01,2013-05-02 13:25:00,
2013-05-02 08:26:00,35.8,35.0,25.81,NNE,22,23.9,25.7,97,0.00,,---,0.00,VWS V14.01,2013-05-02 13:26:00,
2013-05-02 08:27:00,35.8,35.0,25.81,NNE,22,23.9,23.9,97,0.00,,---,0.00,VWS V14.01,2013-05-02 13:27:00,
2013-05-02 08:28:00,35.8,35.0,25.81,NE,45,15.4,23.9,97,0.00,,---,0.00,VWS V14.01,2013-05-02 13:28:00,
2013-05-02 08:29:00,35.8,35.0,25.81,North,0,17.2,20.1,97,0.00,,---,0.00,VWS V14.01,2013-05-02 13:29:00,
2013-05-02 08:30:00,35.8,35.0,25.81,NE,45,16.8,17.9,97,0.00,,---,0.00,VWS V14.01,2013-05-02 13:30:00,
2013-05-02 08:31:00,36.0,35.2,25.81,NNE,22,19.9,19.9,97,0.00,,---,0.00,VWS V14.01,2013-05-02 13:31:00,
2013-05-02 08:32:00,35.8,35.0,25.81,NNE,22,22.2,28.0,97,0.00,,---,0.00,VWS V14.01,2013-05-02 13:32:00,
2013-05-02 08:33:00,35.8,35.0,25.81,NNE,22,19.5,22.2,97,0.00,,---,0.00,VWS V14.01,2013-05-02 13:33:00,
2013-05-02 08:34:00,35.8,35.0,25.81,NNE,22,20.1,23.5,97,0.00,,---,0.00,VWS V14.01,2013-05-02 13:34:00,
2013-05-02 08:35:00,35.8,35.0,25.81,NNE,22,18.6,26.4,97,0.00,,---,0.00,VWS V14.01,2013-05-02 13:35:00,
2013-05-02 08:36:00,35.8,34.8,25.81,NNE,22,19.9,22.2,96,0.00,,---,0.00,VWS V14.01,2013-05-02 13:36:00,
2013-05-02 08:37:00,36.0,34.9,25.81,NNE,22,21.5,21.5,96,0.00,,---,0.00,VWS V14.01,2013-05-02 13:37:00,
2013-05-02 08:38:00,36.0,34.9,25.81,NNE,22,19.5,25.1,96,0.00,,---,0.00,VWS V14.01,2013-05-02 13:38:00,
2013-05-02 08:39:00,35.8,34.8,25.75,North,0,23.3,23.3,96,0.00,,---,0.00,VWS V14.01,2013-05-02 13:39:00,
2013-05-02 08:40:00,35.8,34.8,25.75,North,0,19.5,23.3,96,0.00,,---,0.00,VWS V14.01,2013-05-02 13:40:00,
2013-05-02 08:41:00,35.8,34.8,25.75,NNE,22,16.6,22.4,96,0.00,,---,0.00,VWS V14.01,2013-05-02 13:41:00,
2013-05-02 08:42:00,35.8,34.8,25.75,NNE,22,23.0,24.2,96,0.00,,---,0.00,VWS V14.01,2013-05-02 13:42:00,
2013-05-02 08:43:00,35.6,34.3,25.75,North,0,19.7,26.4,95,0.00,,---,0.00,VWS V14.01,2013-05-02 13:43:00,
2013-05-02 08:44:00,35.8,34.5,25.75,NNE,22,23.7,23.7,95,0.00,,---,0.00,VWS V14.01,2013-05-02 13:44:00,
2013-05-02 08:45:00,35.8,34.5,25.75,NNE,22,18.1,23.7,95,0.00,,---,0.00,VWS V14.01,2013-05-02 13:45:00,
2013-05-02 08:46:00,35.8,34.2,25.75,NNE,22,13.2,22.8,94,0.00,,---,0.00,VWS V14.01,2013-05-02 13:46:00,
2013-05-02 08:47:00,35.8,34.2,25.75,NNE,22,19.2,19.7,94,0.00,,---,0.00,VWS V14.01,2013-05-02 13:47:00,
2013-05-02 08:48:00,35.6,34.0,25.75,NNE,22,20.4,20.4,94,0.00,,---,0.00,VWS V14.01,2013-05-02 13:48:00,
2013-05-02 08:49:00,35.6,34.0,25.75,NNE,22,19.7,24.4,94,0.00,,---,0.00,VWS V14.01,2013-05-02 13:49:00,
2013-05-02 08:50:00,35.8,34.0,25.75,NNE,22,17.7,24.4,93,0.00,,---,0.00,VWS V14.01,2013-05-02 13:50:00,
2013-05-02 08:51:00,35.8,34.0,25.75,NNE,22,22.4,22.4,93,0.00,,---,0.00,VWS V14.01,2013-05-02 13:51:00,
2013-05-02 08:52:00,35.8,34.0,25.75,NNE,22,21.0,25.5,93,0.00,,---,0.00,VWS V14.01,2013-05-02 13:52:00,
2013-05-02 08:53:00,35.8,33.7,25.75,NNE,22,24.2,25.7,92,0.00,,---,0.00,VWS V14.01,2013-05-02 13:53:00,
2013-05-02 08:54:00,35.6,33.5,25.75,NNE,22,19.9,24.2,92,0.00,,---,0.00,VWS V14.01,2013-05-02 13:54:00,
2013-05-02 08:55:00,35.6,33.5,25.75,North,0,22.8,22.8,92,0.00,,---,0.00,VWS V14.01,2013-05-02 13:55:00,
2013-05-02 08:56:00,35.8,33.4,25.75,NNE,22,21.9,23.9,91,0.00,,---,0.00,VWS V14.01,2013-05-02 13:56:00,
2013-05-02 08:58:00,35.8,33.1,25.75,NNE,22,22.8,22.8,90,0.00,,---,0.00,VWS V14.01,2013-05-02 13:58:00,
2013-05-02 08:59:00,35.8,33.1,25.75,NNE,22,19.5,22.8,90,0.00,,---,0.00,VWS V14.01,2013-05-02 13:59:00,
2013-05-02 09:00:00,35.8,33.1,25.75,NNE,22,20.1,20.1,90,0.00,,---,0.00,VWS V14.01,2013-05-02 14:00:00,
2013-05-02 09:01:00,35.8,32.9,25.75,NNE,22,20.6,22.6,89,0.00,,---,0.00,VWS V14.01,2013-05-02 14:01:00,
2013-05-02 09:02:00,35.8,32.9,25.75,NNE,22,26.0,26.0,89,0.00,,---,0.00,VWS V14.01,2013-05-02 14:02:00,
2013-05-02 09:03:00,35.8,32.9,25.75,NNE,22,23.3,23.3,89,0.00,,---,0.00,VWS V14.01,2013-05-02 14:03:00,
2013-05-02 09:04:00,35.8,32.9,25.75,NNE,22,17.2,23.3,89,0.00,,---,0.00,VWS V14.01,2013-05-02 14:04:00,
2013-05-02 09:05:00,35.8,32.9,25.75,NNE,22,19.5,19.5,89,0.00,,---,0.00,VWS V14.01,2013-05-02 14:05:00,
2013-05-02 09:06:00,36.0,33.0,25.75,NNE,22,23.5,26.6,89,0.00,,---,0.00,VWS V14.01,2013-05-02 14:06:00,
2013-05-02 09:07:00,36.0,33.0,25.75,NNE,22,22.4,23.9,89,0.00,,---,0.00,VWS V14.01,2013-05-02 14:07:00,
2013-05-02 09:08:00,36.0,32.8,25.75,NNE,22,25.1,25.1,88,0.00,,---,0.00,VWS V14.01,2013-05-02 14:08:00,
2013-05-02 09:09:00,36.0,32.5,25.75,NE,45,17.7,17.7,87,0.00,,---,0.00,VWS V14.01,2013-05-02 14:09:00,
2013-05-02 09:10:00,36.0,32.5,25.75,NE,45,17.7,17.7,87,0.00,,---,0.00,VWS V14.01,2013-05-02 14:10:00,
2013-05-02 09:11:00,36.1,32.7,25.78,NNE,22,24.2,24.2,87,0.00,,---,0.00,VWS V14.01,2013-05-02 14:11:00,
2013-05-02 09:12:00,36.1,32.7,25.78,NNE,22,20.8,24.2,87,0.00,,---,0.00,VWS V14.01,2013-05-02 14:12:00,
2013-05-02 09:13:00,36.1,32.7,25.78,NNE,22,18.8,20.8,87,0.00,,---,0.00,VWS V14.01,2013-05-02 14:13:00,
2013-05-02 09:14:00,36.1,32.7,25.78,NNE,22,18.8,22.2,87,0.00,,---,0.00,VWS V14.01,2013-05-02 14:14:00,
2013-05-02 09:15:00,36.1,32.7,25.78,NNE,22,19.9,20.4,87,0.00,,---,0.00,VWS V14.01,2013-05-02 14:15:00,
2013-05-02 09:16:00,36.3,32.8,25.78,NNE,22,15.4,15.4,87,0.00,,---,0.00,VWS V14.01,2013-05-02 14:16:00,
2013-05-02 09:18:00,36.3,33.1,25.78,NNE,22,14.5,19.9,88,0.00,,---,0.00,VWS V14.01,2013-05-02 14:18:00,
2013-05-02 09:19:00,36.1,32.7,25.78,NNE,22,16.3,22.8,87,0.00,,---,0.00,VWS V14.01,2013-05-02 14:19:00,
2013-05-02 09:20:00,36.1,32.7,25.78,NNE,22,17.7,19.5,87,0.00,,---,0.00,VWS V14.01,2013-05-02 14:20:00,
2013-05-02 09:21:00,36.3,32.8,25.78,NNE,22,22.4,22.4,87,0.00,,---,0.00,VWS V14.01,2013-05-02 14:21:00,
2013-05-02 09:22:00,36.1,32.7,25.78,North,0,19.2,23.5,87,0.00,,---,0.00,VWS V14.01,2013-05-02 14:22:00,
2013-05-02 09:23:00,36.1,32.7,25.78,NNE,22,19.9,19.9,87,0.00,,---,0.00,VWS V14.01,2013-05-02 14:23:00,
2013-05-02 09:24:00,36.1,32.7,25.78,NNE,22,19.7,20.1,87,0.00,,---,0.00,VWS V14.01,2013-05-02 14:24:00,
2013-05-02 09:25:00,36.1,32.7,25.78,NNE,22,21.3,22.6,87,0.00,,---,0.00,VWS V14.01,2013-05-02 14:25:00,
2013-05-02 09:26:00,36.1,32.7,25.78,NNE,22,21.9,21.9,87,0.00,,---,0.00,VWS V14.01,2013-05-02 14:26:00,
2013-05-02 09:27:00,36.1,32.7,25.78,NNE,22,16.6,23.3,87,0.00,,---,0.00,VWS V14.01,2013-05-02 14:27:00,
2013-05-02 09:28:00,36.1,32.7,25.78,NNE,22,17.7,21.9,87,0.00,,---,0.00,VWS V14.01,2013-05-02 14:28:00,
2013-05-02 09:29:00,36.1,32.7,25.78,NNE,22,17.5,17.7,87,0.00,,---,0.00,VWS V14.01,2013-05-02 14:29:00,
2013-05-02 09:30:00,36.1,32.7,25.78,NNE,22,22.2,22.2,87,0.00,,---,0.00,VWS V14.01,2013-05-02 14:30:00,
2013-05-02 09:31:00,36.1,32.4,25.78,NNE,22,17.9,17.9,86,0.00,,---,0.00,VWS V14.01,2013-05-02 14:31:00,
2013-05-02 09:32:00,36.3,32.5,25.78,NNE,22,21.5,21.5,86,0.00,,---,0.00,VWS V14.01,2013-05-02 14:32:00,
2013-05-02 09:33:00,36.3,32.5,25.78,NNE,22,20.1,21.5,86,0.00,,---,0.00,VWS V14.01,2013-05-02 14:33:00,
2013-05-02 09:34:00,36.3,32.5,25.78,NNE,22,17.7,23.0,86,0.00,,---,0.00,VWS V14.01,2013-05-02 14:34:00,
2013-05-02 09:35:00,36.3,32.5,25.78,NNE,22,19.7,19.7,86,0.00,,---,0.00,VWS V14.01,2013-05-02 14:35:00,
2013-05-02 09:36:00,36.5,32.7,25.78,NNE,22,13.2,19.7,86,0.00,,---,0.00,VWS V14.01,2013-05-02 14:36:00,
2013-05-02 09:37:00,36.5,32.7,25.78,North,0,17.2,19.9,86,0.00,,---,0.00,VWS V14.01,2013-05-02 14:37:00,
2013-05-02 09:38:00,36.5,32.7,25.78,North,0,15.4,19.7,86,0.00,,---,0.00,VWS V14.01,2013-05-02 14:38:00,
2013-05-02 09:39:00,36.7,32.3,25.78,NNE,22,15.4,19.7,84,0.00,,---,0.00,VWS V14.01,2013-05-02 14:39:00,
2013-05-02 09:40:00,36.7,32.3,25.78,NNE,22,17.7,19.9,84,0.00,,---,0.00,VWS V14.01,2013-05-02 14:40:00,
2013-05-02 09:41:00,36.9,32.5,25.78,NNE,22,15.4,17.7,84,0.00,,---,0.00,VWS V14.01,2013-05-02 14:41:00,
2013-05-02 09:42:00,36.9,32.5,25.78,NNE,22,17.5,17.5,84,0.00,,---,0.00,VWS V14.01,2013-05-02 14:42:00,
2013-05-02 09:43:00,36.7,32.3,25.78,NNE,22,21.0,21.0,84,0.00,,---,0.00,VWS V14.01,2013-05-02 14:43:00,
2013-05-02 09:44:00,36.7,32.3,25.78,NNE,22,17.5,21.0,84,0.00,,---,0.00,VWS V14.01,2013-05-02 14:44:00,
2013-05-02 09:45:00,36.7,32.3,25.78,NNE,22,18.8,18.8,84,0.00,,---,0.00,VWS V14.01,2013-05-02 14:45:00,
2013-05-02 09:46:00,36.9,32.2,25.78,NNE,22,20.6,20.6,83,0.00,,---,0.00,VWS V14.01,2013-05-02 14:46:00,
2013-05-02 09:47:00,36.7,31.7,25.78,NNE,22,17.7,22.6,82,0.00,,---,0.00,VWS V14.01,2013-05-02 14:47:00,
2013-05-02 09:48:00,36.7,31.7,25.78,NNE,22,19.2,19.2,82,0.00,,---,0.00,VWS V14.01,2013-05-02 14:48:00,
2013-05-02 09:49:00,36.7,31.7,25.78,NNE,22,19.0,19.2,82,0.00,,---,0.00,VWS V14.01,2013-05-02 14:49:00,
2013-05-02 09:50:00,36.7,31.4,25.78,NNE,22,19.9,20.6,81,0.00,,---,0.00,VWS V14.01,2013-05-02 14:50:00,
2013-05-02 09:51:00,36.7,31.4,25.78,NNE,22,18.1,19.9,81,0.00,,---,0.00,VWS V14.01,2013-05-02 14:51:00,
2013-05-02 09:52:00,36.7,31.4,25.78,NNE,22,17.9,20.1,81,0.00,,---,0.00,VWS V14.01,2013-05-02 14:52:00,
2013-05-02 09:53:00,36.7,31.1,25.78,NNE,22,17.0,20.1,80,0.00,,---,0.00,VWS V14.01,2013-05-02 14:53:00,
2013-05-02 09:54:00,36.5,30.9,25.81,NNE,22,18.1,19.2,80,0.00,,---,0.00,VWS V14.01,2013-05-02 14:54:00,
2013-05-02 09:55:00,36.7,31.1,25.81,NNE,22,13.0,19.2,80,0.00,,---,0.00,VWS V14.01,2013-05-02 14:55:00,
2013-05-02 09:56:00,36.7,31.1,25.81,NNE,22,15.4,19.0,80,0.00,,---,0.00,VWS V14.01,2013-05-02 14:56:00,
2013-05-02 09:57:00,36.7,31.4,25.81,North,0,21.9,24.6,81,0.00,,---,0.00,VWS V14.01,2013-05-02 14:57:00,
2013-05-02 09:58:00,36.7,31.4,25.81,NNE,22,15.4,21.9,81,0.00,,---,0.00,VWS V14.01,2013-05-02 14:58:00,
2013-05-02 09:59:00,36.9,31.6,25.81,North,0,21.0,21.0,81,0.00,,---,0.00,VWS V14.01,2013-05-02 14:59:00,
2013-05-02 10:00:00,36.7,30.8,25.81,NNE,22,15.4,21.0,79,0.00,,---,0.00,VWS V14.01,2013-05-02 15:00:00,
2013-05-02 10:01:00,36.9,30.6,25.81,NNE,22,15.4,15.4,78,0.00,,---,0.00,VWS V14.01,2013-05-02 15:01:00,
2013-05-02 10:02:00,36.9,30.0,25.81,North,0,16.3,16.3,76,0.00,,---,0.00,VWS V14.01,2013-05-02 15:02:00,
2013-05-02 10:03:00,36.9,30.0,25.81,North,0,16.3,16.3,76,0.00,,---,0.00,VWS V14.01,2013-05-02 15:03:00,
2013-05-02 10:04:00,37.0,29.5,25.81,NNE,22,24.6,24.6,74,0.00,,---,0.00,VWS V14.01,2013-05-02 15:04:00,
2013-05-02 10:05:00,37.0,29.2,25.81,North,0,17.7,24.6,73,0.00,,---,0.00,VWS V14.01,2013-05-02 15:05:00,
2013-05-02 10:06:00,37.0,28.9,25.81,North,0,17.7,17.7,72,0.00,,---,0.00,VWS V14.01,2013-05-02 15:06:00,
2013-05-02 10:07:00,37.2,29.4,25.81,NNE,22,21.0,21.0,73,0.00,,---,0.00,VWS V14.01,2013-05-02 15:07:00,
2013-05-02 10:08:00,37.2,28.7,25.81,NNE,22,22.6,22.6,71,0.00,,---,0.00,VWS V14.01,2013-05-02 15:08:00,
2013-05-02 10:09:00,37.4,28.5,25.81,North,0,17.5,17.5,70,0.00,,---,0.00,VWS V14.01,2013-05-02 15:09:00,
2013-05-02 10:10:00,37.4,28.2,25.81,NNE,22,19.5,19.5,69,0.00,,---,0.00,VWS V14.01,2013-05-02 15:10:00,
2013-05-02 10:11:00,37.4,28.2,25.81,NNE,22,22.4,22.4,69,0.00,,---,0.00,VWS V14.01,2013-05-02 15:11:00,
2013-05-02 10:12:00,37.2,27.6,25.81,NNE,22,22.4,22.4,68,0.00,,---,0.00,VWS V14.01,2013-05-02 15:12:00,
2013-05-02 10:13:00,37.2,27.6,25.81,NNE,22,22.4,22.4,68,0.00,,---,0.00,VWS V14.01,2013-05-02 15:13:00,
2013-05-02 10:14:00,37.4,27.1,25.81,North,0,17.2,22.4,66,0.00,,---,0.00,VWS V14.01,2013-05-02 15:14:00,
2013-05-02 10:15:00,37.4,27.1,25.81,NNE,22,17.7,17.7,66,0.00,,---,0.00,VWS V14.01,2013-05-02 15:15:00,
2013-05-02 10:16:00,37.6,26.9,25.81,NNE,22,23.0,23.0,65,0.00,,---,0.00,VWS V14.01,2013-05-02 15:16:00,
2013-05-02 10:17:00,37.9,27.2,25.81,NNE,22,15.4,23.0,65,0.00,,---,0.00,VWS V14.01,2013-05-02 15:17:00,
2013-05-02 10:18:00,37.9,26.5,25.81,NNE,22,24.2,24.2,63,0.00,,---,0.00,VWS V14.01,2013-05-02 15:18:00,
2013-05-02 10:19:00,37.9,26.5,25.81,NNE,22,22.4,24.2,63,0.00,,---,0.00,VWS V14.01,2013-05-02 15:19:00,
2013-05-02 10:20:00,37.8,26.3,25.81,NNE,22,17.2,22.4,63,0.00,,---,0.00,VWS V14.01,2013-05-02 15:20:00,
2013-05-02 10:21:00,37.8,26.3,25.81,NNE,22,25.7,25.7,63,0.00,,---,0.00,VWS V14.01,2013-05-02 15:21:00,
2013-05-02 10:22:00,37.4,25.6,25.81,NNE,22,25.7,25.7,62,0.00,,---,0.00,VWS V14.01,2013-05-02 15:22:00,
2013-05-02 10:24:00,37.4,26.0,25.81,NE,45,23.3,25.7,63,0.00,,---,0.00,VWS V14.01,2013-05-02 15:24:00,
2013-05-02 10:25:00,37.6,25.8,25.81,NNE,22,21.3,23.3,62,0.00,,---,0.00,VWS V14.01,2013-05-02 15:25:00,
2013-05-02 10:26:00,37.6,26.1,25.81,NNE,22,17.2,21.3,63,0.00,,---,0.00,VWS V14.01,2013-05-02 15:26:00,
2013-05-02 10:27:00,37.8,26.3,25.81,NE,45,18.8,18.8,63,0.00,,---,0.00,VWS V14.01,2013-05-02 15:27:00,
2013-05-02 10:28:00,37.8,25.9,25.81,NNE,22,19.5,22.6,62,0.00,,---,0.00,VWS V14.01,2013-05-02 15:28:00,
2013-05-02 10:29:00,37.8,25.9,25.81,NNE,22,17.5,23.0,62,0.00,,---,0.00,VWS V14.01,2013-05-02 15:29:00,
2013-05-02 10:31:00,37.8,25.9,25.81,NNE,22,22.6,24.4,62,0.00,,---,0.00,VWS V14.01,2013-05-02 15:31:00,
2013-05-02 10:32:00,38.1,26.3,25.81,North,0,16.8,22.6,62,0.00,,---,0.00,VWS V14.01,2013-05-02 15:32:00,
2013-05-02 10:33:00,38.1,26.3,25.81,NNE,22,18.1,18.1,62,0.00,,---,0.00,VWS V14.01,2013-05-02 15:33:00,
2013-05-02 10:34:00,38.1,26.6,25.81,NE,45,17.2,18.1,63,0.00,,---,0.00,VWS V14.01,2013-05-02 15:34:00,
2013-05-02 10:35:00,38.1,26.6,25.81,NNE,22,14.1,17.5,63,0.00,,---,0.00,VWS V14.01,2013-05-02 15:35:00,
2013-05-02 10:36:00,38.1,26.6,25.81,NNE,22,22.2,22.2,63,0.00,,---,0.00,VWS V14.01,2013-05-02 15:36:00,
2013-05-02 10:37:00,38.1,26.3,25.81,NNE,22,17.7,22.2,62,0.00,,---,0.00,VWS V14.01,2013-05-02 15:37:00,
2013-05-02 10:38:00,38.3,26.8,25.81,NNE,22,15.4,17.7,63,0.00,,---,0.00,VWS V14.01,2013-05-02 15:38:00,
2013-05-02 10:39:00,38.3,26.4,25.81,NNE,22,14.3,19.9,62,0.00,,---,0.00,VWS V14.01,2013-05-02 15:39:00,
2013-05-02 10:40:00,38.5,26.2,25.81,NNE,22,15.4,19.0,61,0.00,,---,0.00,VWS V14.01,2013-05-02 15:40:00,
2013-05-02 10:41:00,38.5,25.4,25.81,NNE,22,15.4,15.4,59,0.00,,---,0.00,VWS V14.01,2013-05-02 15:41:00,
2013-05-02 10:42:00,38.3,24.8,25.81,North,0,23.9,25.3,58,0.00,,---,0.00,VWS V14.01,2013-05-02 15:42:00,
2013-05-02 10:43:00,38.5,25.4,25.81,NNE,22,17.2,23.9,59,0.00,,---,0.00,VWS V14.01,2013-05-02 15:43:00,
2013-05-02 10:44:00,38.7,25.2,25.81,NNE,22,16.1,16.1,58,0.00,,---,0.00,VWS V14.01,2013-05-02 15:44:00,
2013-05-02 10:45:00,38.7,25.2,25.81,NNE,22,23.0,23.0,58,0.00,,---,0.00,VWS V14.01,2013-05-02 15:45:00,
2013-05-02 10:46:00,38.5,24.6,25.81,NNE,22,23.0,23.0,57,0.00,,---,0.00,VWS V14.01,2013-05-02 15:46:00,
2013-05-02 10:47:00,38.1,24.2,25.81,NNE,22,25.3,25.3,57,0.00,,---,0.00,VWS V14.01,2013-05-02 15:47:00,
2013-05-02 10:48:00,38.1,24.2,25.81,North,0,22.8,25.3,57,0.00,,---,0.00,VWS V14.01,2013-05-02 15:48:00,
2013-05-02 10:49:00,38.1,24.2,25.81,North,0,18.8,22.8,57,0.00,,---,0.00,VWS V14.01,2013-05-02 15:49:00,
2013-05-02 10:50:00,38.1,24.2,25.81,North,0,18.8,18.8,57,0.00,,---,0.00,VWS V14.01,2013-05-02 15:50:00,
2013-05-02 10:51:00,38.1,24.2,25.81,North,0,18.8,18.8,57,0.00,,---,0.00,VWS V14.01,2013-05-02 15:51:00,
2013-05-02 10:52:00,38.1,24.2,25.81,North,0,19.9,20.6,57,0.00,,---,0.00,VWS V14.01,2013-05-02 15:52:00,
2013-05-02 10:53:00,38.1,24.2,25.81,NNW,338,21.0,21.0,57,0.00,,---,0.00,VWS V14.01,2013-05-02 15:53:00,
2013-05-02 10:54:00,38.1,24.2,25.84,NNE,22,18.1,21.0,57,0.00,,---,0.00,VWS V14.01,2013-05-02 15:54:00,
2013-05-02 10:55:00,37.9,24.1,25.84,NNE,22,18.1,18.1,57,0.00,,---,0.00,VWS V14.01,2013-05-02 15:55:00,
2013-05-02 10:56:00,38.1,24.7,25.84,North,0,17.7,19.9,58,0.00,,---,0.00,VWS V14.01,2013-05-02 15:56:00,
2013-05-02 10:57:00,38.1,24.7,25.84,North,0,15.2,17.7,58,0.00,,---,0.00,VWS V14.01,2013-05-02 15:57:00,
2013-05-02 10:58:00,38.3,24.4,25.84,NNW,338,20.8,20.8,57,0.00,,---,0.00,VWS V14.01,2013-05-02 15:58:00,
2013-05-02 10:59:00,38.3,24.4,25.84,North,0,18.1,20.8,57,0.00,,---,0.00,VWS V14.01,2013-05-02 15:59:00,
2013-05-02 11:00:00,38.3,24.4,25.84,North,0,15.2,19.9,57,0.00,,---,0.00,VWS V14.01,2013-05-02 16:00:00,
2013-05-02 11:01:00,38.5,24.6,25.84,North,0,15.2,15.2,57,0.00,,---,0.00,VWS V14.01,2013-05-02 16:01:00,
2013-05-02 11:02:00,38.3,24.0,25.84,North,0,15.2,15.2,56,0.00,,---,0.00,VWS V14.01,2013-05-02 16:02:00,
2013-05-02 11:03:00,38.1,23.8,25.84,NNE,22,17.7,17.7,56,0.00,,---,0.00,VWS V14.01,2013-05-02 16:03:00,
2013-05-02 11:04:00,38.1,23.8,25.84,NNE,22,17.7,17.7,56,0.00,,---,0.00,VWS V14.01,2013-05-02 16:04:00,
2013-05-02 11:05:00,38.1,23.8,25.84,NNE,22,17.7,17.7,56,0.00,,---,0.00,VWS V14.01,2013-05-02 16:05:00,
2013-05-02 11:07:00,38.1,24.2,25.84,North,0,16.8,19.2,57,0.00,,---,0.00,VWS V14.01,2013-05-02 16:07:00,
2013-05-02 11:08:00,38.1,23.8,25.84,North,0,16.3,19.9,56,0.00,,---,0.00,VWS V14.01,2013-05-02 16:08:00,
2013-05-02 11:09:00,38.1,23.8,25.87,North,0,12.8,16.3,56,0.00,,---,0.00,VWS V14.01,2013-05-02 16:09:00,
2013-05-02 11:10:00,38.3,24.0,25.87,North,0,17.5,17.5,56,0.00,,---,0.00,VWS V14.01,2013-05-02 16:10:00,
2013-05-02 11:11:00,38.5,24.2,25.87,North,0,17.5,17.5,56,0.00,,---,0.00,VWS V14.01,2013-05-02 16:11:00,
2013-05-02 11:12:00,38.5,23.7,25.87,NE,45,22.8,22.8,55,0.00,,---,0.00,VWS V14.01,2013-05-02 16:12:00,
2013-05-02 11:13:00,38.5,23.7,25.87,NNE,22,23.9,23.9,55,0.00,,---,0.00,VWS V14.01,2013-05-02 16:13:00,
2013-05-02 11:14:00,38.5,23.7,25.87,NNE,22,23.0,23.9,55,0.00,,---,0.00,VWS V14.01,2013-05-02 16:14:00,
2013-05-02 11:15:00,38.3,23.6,25.87,North,0,16.8,23.0,55,0.00,,---,0.00,VWS V14.01,2013-05-02 16:15:00,
2013-05-02 11:16:00,38.3,24.0,25.87,NNE,22,15.4,20.1,56,0.00,,---,0.00,VWS V14.01,2013-05-02 16:16:00,
2013-05-02 11:17:00,38.3,24.0,25.87,NNE,22,15.4,15.4,56,0.00,,---,0.00,VWS V14.01,2013-05-02 16:17:00,
2013-05-02 11:18:00,38.5,23.3,25.87,NNE,22,23.3,23.3,54,0.00,,---,0.00,VWS V14.01,2013-05-02 16:18:00,
2013-05-02 11:19:00,38.5,23.3,25.87,NNE,22,23.3,23.3,54,0.00,,---,0.00,VWS V14.01,2013-05-02 16:19:00,
2013-05-02 11:20:00,38.1,23.0,25.87,NNE,22,18.1,23.3,54,0.00,,---,0.00,VWS V14.01,2013-05-02 16:20:00,
2013-05-02 11:21:00,38.5,23.7,25.87,NNE,22,18.1,18.1,55,0.00,,---,0.00,VWS V14.01,2013-05-02 16:21:00,
2013-05-02 11:22:00,38.5,23.7,25.87,NNE,22,18.1,18.1,55,0.00,,---,0.00,VWS V14.01,2013-05-02 16:22:00,
2013-05-02 11:23:00,38.3,23.1,25.87,NNE,22,25.3,25.3,54,0.00,,---,0.00,VWS V14.01,2013-05-02 16:23:00,
2013-05-02 11:24:00,38.3,23.6,25.84,NNE,22,25.3,25.3,55,0.00,,---,0.00,VWS V14.01,2013-05-02 16:24:00,
2013-05-02 11:25:00,38.5,23.7,25.84,NE,45,19.5,25.3,55,0.00,,---,0.00,VWS V14.01,2013-05-02 16:25:00,
2013-05-02 11:26:00,38.7,23.9,25.84,NNE,22,10.5,19.9,55,0.00,,---,0.00,VWS V14.01,2013-05-02 16:26:00,
2013-05-02 11:27:00,38.8,23.6,25.84,NNE,22,20.4,20.4,54,0.00,,---,0.00,VWS V14.01,2013-05-02 16:27:00,
2013-05-02 11:28:00,38.7,23.5,25.84,NNE,22,19.7,22.8,54,0.00,,---,0.00,VWS V14.01,2013-05-02 16:28:00,
2013-05-02 11:29:00,38.8,23.6,25.84,NNE,22,19.7,19.7,54,0.00,,---,0.00,VWS V14.01,2013-05-02 16:29:00,
2013-05-02 11:30:00,38.8,23.6,25.84,NNE,22,15.4,19.9,54,0.00,,---,0.00,VWS V14.01,2013-05-02 16:30:00,
2013-05-02 11:31:00,38.8,23.6,25.84,NNE,22,21.0,21.0,54,0.00,,---,0.00,VWS V14.01,2013-05-02 16:31:00,
2013-05-02 11:32:00,38.8,23.6,25.84,NNE,22,21.0,21.0,54,0.00,,---,0.00,VWS V14.01,2013-05-02 16:32:00,
2013-05-02 11:34:00,39.0,23.4,25.84,NNE,22,21.3,21.3,53,0.00,,---,0.00,VWS V14.01,2013-05-02 16:34:00,
2013-05-02 11:35:00,39.2,23.1,25.84,NNE,22,17.9,22.4,52,0.00,,---,0.00,VWS V14.01,2013-05-02 16:35:00,
2013-05-02 11:36:00,39.4,23.2,25.84,NNE,22,19.0,19.2,52,0.00,,---,0.00,VWS V14.01,2013-05-02 16:36:00,
2013-05-02 11:37:00,39.2,22.6,25.84,NNE,22,22.4,23.7,51,0.00,,---,0.00,VWS V14.01,2013-05-02 16:37:00,
2013-05-02 11:38:00,39.2,22.6,25.84,NNE,22,19.9,23.7,51,0.00,,---,0.00,VWS V14.01,2013-05-02 16:38:00,
2013-05-02 11:39:00,39.2,22.6,25.84,NNE,22,23.0,23.0,51,0.00,,---,0.00,VWS V14.01,2013-05-02 16:39:00,
2013-05-02 11:40:00,38.8,22.3,25.84,North,0,17.2,23.7,51,0.00,,---,0.00,VWS V14.01,2013-05-02 16:40:00,
2013-05-02 11:41:00,38.8,22.3,25.84,North,0,17.2,17.2,51,0.00,,---,0.00,VWS V14.01,2013-05-02 16:41:00,
2013-05-02 11:42:00,39.2,22.1,25.84,North,0,23.9,23.9,50,0.00,,---,0.00,VWS V14.01,2013-05-02 16:42:00,
2013-05-02 11:43:00,39.2,22.1,25.84,NNE,22,23.9,23.9,50,0.00,,---,0.00,VWS V14.01,2013-05-02 16:43:00,
2013-05-02 11:44:00,39.2,22.1,25.84,NNE,22,23.9,23.9,50,0.00,,---,0.00,VWS V14.01,2013-05-02 16:44:00,
2013-05-02 11:45:00,39.2,22.6,25.84,North,0,26.2,26.2,51,0.00,,---,0.00,VWS V14.01,2013-05-02 16:45:00,
2013-05-02 11:46:00,39.2,22.1,25.84,NNE,22,15.4,26.2,50,0.00,,---,0.00,VWS V14.01,2013-05-02 16:46:00,
2013-05-02 11:47:00,39.4,22.8,25.84,NNE,22,23.9,23.9,51,0.00,,---,0.00,VWS V14.01,2013-05-02 16:47:00,
2013-05-02 11:48:00,39.2,22.1,25.84,NNE,22,22.8,23.9,50,0.00,,---,0.00,VWS V14.01,2013-05-02 16:48:00,
2013-05-02 11:49:00,39.2,22.1,25.84,NNE,22,23.7,23.7,50,0.00,,---,0.00,VWS V14.01,2013-05-02 16:49:00,
2013-05-02 11:50:00,39.2,22.1,25.84,NNE,22,17.0,23.7,50,0.00,,---,0.00,VWS V14.01,2013-05-02 16:50:00,
2013-05-02 11:51:00,39.0,22.0,25.84,NNE,22,20.1,25.5,50,0.00,,---,0.00,VWS V14.01,2013-05-02 16:51:00,
2013-05-02 11:52:00,39.0,22.0,25.84,NNE,22,19.0,20.1,50,0.00,,---,0.00,VWS V14.01,2013-05-02 16:52:00,
2013-05-02 11:53:00,39.2,22.1,25.84,North,0,17.2,23.5,50,0.00,,---,0.00,VWS V14.01,2013-05-02 16:53:00,
2013-05-02 11:54:00,39.4,22.3,25.81,NNE,22,19.9,22.8,50,0.00,,---,0.00,VWS V14.01,2013-05-02 16:54:00,
2013-05-02 11:56:00,39.4,22.3,25.81,NE,45,22.6,22.6,50,0.00,,---,0.00,VWS V14.01,2013-05-02 16:56:00,
2013-05-02 11:57:00,39.4,22.3,25.81,NNE,22,26.4,26.4,50,0.00,,---,0.00,VWS V14.01,2013-05-02 16:57:00,
2013-05-02 11:59:00,39.4,22.3,25.81,North,0,26.0,26.4,50,0.00,,---,0.00,VWS V14.01,2013-05-02 16:59:00,
2013-05-02 12:00:00,39.0,22.0,25.81,NNE,22,20.1,26.0,50,0.00,,---,0.00,VWS V14.01,2013-05-02 17:00:00,
2013-05-02 12:01:00,39.2,22.1,25.81,NNE,22,22.4,22.4,50,0.00,,---,0.00,VWS V14.01,2013-05-02 17:01:00,
2013-05-02 12:02:00,39.2,22.1,25.81,NNE,22,20.1,22.4,50,0.00,,---,0.00,VWS V14.01,2013-05-02 17:02:00,
2013-05-02 12:03:00,39.2,22.1,25.81,NNE,22,20.4,20.4,50,0.00,,---,0.00,VWS V14.01,2013-05-02 17:03:00,
2013-05-02 12:04:00,39.7,22.6,25.81,NNE,22,19.9,20.4,50,0.00,,---,0.00,VWS V14.01,2013-05-02 17:04:00,
2013-05-02 12:05:00,39.7,22.2,25.81,North,0,23.5,23.7,49,0.00,,---,0.00,VWS V14.01,2013-05-02 17:05:00,
2013-05-02 12:06:00,39.6,22.0,25.81,NNE,22,26.0,26.0,49,0.00,,---,0.00,VWS V14.01,2013-05-02 17:06:00,
2013-05-02 12:07:00,39.2,21.7,25.81,North,0,23.7,27.1,49,0.00,,---,0.00,VWS V14.01,2013-05-02 17:07:00,
2013-05-02 12:08:00,39.2,21.7,25.81,North,0,17.5,23.7,49,0.00,,---,0.00,VWS V14.01,2013-05-02 17:08:00,
2013-05-02 12:09:00,39.2,21.7,25.84,North,0,19.9,20.1,49,0.00,,---,0.00,VWS V14.01,2013-05-02 17:09:00,
2013-05-02 12:10:00,39.2,21.7,25.84,NNE,22,23.3,23.3,49,0.00,,---,0.00,VWS V14.01,2013-05-02 17:10:00,
2013-05-02 12:11:00,39.9,22.3,25.84,NNE,22,17.0,23.3,49,0.00,,---,0.00,VWS V14.01,2013-05-02 17:11:00,
2013-05-02 12:12:00,39.9,22.3,25.84,NNE,22,22.6,23.0,49,0.00,,---,0.00,VWS V14.01,2013-05-02 17:12:00,
2013-05-02 12:13:00,39.9,22.3,25.84,NE,45,18.6,24.4,49,0.00,,---,0.00,VWS V14.01,2013-05-02 17:13:00,
2013-05-02 12:14:00,39.9,22.3,25.84,NNE,22,21.9,25.1,49,0.00,,---,0.00,VWS V14.01,2013-05-02 17:14:00,
2013-05-02 12:15:00,39.7,22.2,25.84,NNE,22,25.1,25.1,49,0.00,,---,0.00,VWS V14.01,2013-05-02 17:15:00,
2013-05-02 12:16:00,39.7,22.2,25.84,NNE,22,17.5,25.1,49,0.00,,---,0.00,VWS V14.01,2013-05-02 17:16:00,
2013-05-02 12:17:00,39.7,22.2,25.84,NNE,22,24.6,25.1,49,0.00,,---,0.00,VWS V14.01,2013-05-02 17:17:00,
2013-05-02 12:18:00,39.7,21.7,25.84,NNE,22,17.7,17.7,48,0.00,,---,0.00,VWS V14.01,2013-05-02 17:18:00,
2013-05-02 12:19:00,39.7,22.2,25.84,NNE,22,26.0,26.0,49,0.00,,---,0.00,VWS V14.01,2013-05-02 17:19:00,
2013-05-02 12:20:00,39.6,21.5,25.84,NNE,22,25.1,26.0,48,0.00,,---,0.00,VWS V14.01,2013-05-02 17:20:00,
2013-05-02 12:21:00,39.6,21.5,25.84,North,0,23.9,25.3,48,0.00,,---,0.00,VWS V14.01,2013-05-02 17:21:00,
2013-05-02 12:22:00,39.9,22.3,25.84,North,0,14.8,23.9,49,0.00,,---,0.00,VWS V14.01,2013-05-02 17:22:00,
2013-05-02 12:23:00,39.9,21.8,25.84,North,0,23.3,23.3,48,0.00,,---,0.00,VWS V14.01,2013-05-02 17:23:00,
2013-05-02 12:24:00,39.9,21.8,25.84,NNE,22,22.6,23.3,48,0.00,,---,0.00,VWS V14.01,2013-05-02 17:24:00,
2013-05-02 12:25:00,40.1,22.0,25.84,NNW,338,16.1,22.6,48,0.00,,---,0.00,VWS V14.01,2013-05-02 17:25:00,
2013-05-02 12:26:00,40.3,22.2,25.84,NNE,22,23.7,23.7,48,0.00,,---,0.00,VWS V14.01,2013-05-02 17:26:00,
2013-05-02 12:27:00,40.5,21.8,25.84,North,0,23.0,23.7,47,0.00,,---,0.00,VWS V14.01,2013-05-02 17:27:00,
2013-05-02 12:28:00,40.1,21.5,25.84,North,0,23.9,23.9,47,0.00,,---,0.00,VWS V14.01,2013-05-02 17:28:00,
2013-05-02 12:29:00,40.1,21.5,25.84,North,0,19.7,23.9,47,0.00,,---,0.00,VWS V14.01,2013-05-02 17:29:00,
2013-05-02 12:30:00,40.1,21.5,25.84,NNE,22,25.7,25.7,47,0.00,,---,0.00,VWS V14.01,2013-05-02 17:30:00,
2013-05-02 12:31:00,40.3,21.7,25.84,North,0,24.6,25.7,47,0.00,,---,0.00,VWS V14.01,2013-05-02 17:31:00,
2013-05-02 12:32:00,40.3,21.2,25.84,NNE,22,21.9,29.5,46,0.00,,---,0.00,VWS V14.01,2013-05-02 17:32:00,
2013-05-02 12:33:00,40.5,21.8,25.84,North,0,23.0,23.3,47,0.00,,---,0.00,VWS V14.01,2013-05-02 17:33:00,
2013-05-02 12:34:00,40.5,21.8,25.84,NNE,22,17.5,26.2,47,0.00,,---,0.00,VWS V14.01,2013-05-02 17:34:00,
2013-05-02 12:35:00,40.6,22.0,25.84,North,0,22.4,23.3,47,0.00,,---,0.00,VWS V14.01,2013-05-02 17:35:00,
2013-05-02 12:36:00,40.6,22.0,25.84,NNE,22,26.4,30.0,47,0.00,,---,0.00,VWS V14.01,2013-05-02 17:36:00,
2013-05-02 12:37:00,40.3,21.2,25.84,NNE,22,24.2,26.9,46,0.00,,---,0.00,VWS V14.01,2013-05-02 17:37:00,
2013-05-02 12:38:00,40.3,21.2,25.84,NNE,22,23.5,29.5,46,0.00,,---,0.00,VWS V14.01,2013-05-02 17:38:00,
2013-05-02 12:39:00,40.3,21.2,25.84,NNE,22,26.2,26.2,46,0.00,,---,0.00,VWS V14.01,2013-05-02 17:39:00,
2013-05-02 12:40:00,40.5,21.3,25.84,North,0,21.3,26.2,46,0.00,,---,0.00,VWS V14.01,2013-05-02 17:40:00,
2013-05-02 12:41:00,40.8,22.2,25.84,NNE,22,19.0,20.1,47,0.00,,---,0.00,VWS V14.01,2013-05-02 17:41:00,
2013-05-02 12:42:00,41.0,21.8,25.84,NNE,22,20.1,20.1,46,0.00,,---,0.00,VWS V14.01,2013-05-02 17:42:00,
2013-05-02 12:43:00,41.0,21.3,25.84,North,0,21.5,21.5,45,0.00,,---,0.00,VWS V14.01,2013-05-02 17:43:00,
2013-05-02 12:44:00,41.0,21.3,25.84,North,0,24.2,24.2,45,0.00,,---,0.00,VWS V14.01,2013-05-02 17:44:00,
2013-05-02 12:45:00,41.0,21.3,25.84,NNE,22,26.0,26.0,45,0.00,,---,0.00,VWS V14.01,2013-05-02 17:45:00,
2013-05-02 12:46:00,41.0,21.3,25.84,NNW,338,19.7,26.0,45,0.00,,---,0.00,VWS V14.01,2013-05-02 17:46:00,
2013-05-02 12:47:00,41.0,21.3,25.84,North,0,23.0,23.5,45,0.00,,---,0.00,VWS V14.01,2013-05-02 17:47:00,
2013-05-02 12:48:00,41.0,21.3,25.84,NE,45,27.7,27.7,45,0.00,,---,0.00,VWS V14.01,2013-05-02 17:48:00,
2013-05-02 12:49:00,41.0,21.3,25.84,NNE,22,16.3,27.7,45,0.00,,---,0.00,VWS V14.01,2013-05-02 17:49:00,
2013-05-02 12:50:00,41.4,21.6,25.84,NNE,22,22.4,22.4,45,0.00,,---,0.00,VWS V14.01,2013-05-02 17:50:00,
2013-05-02 12:51:00,41.2,20.9,25.84,North,0,17.9,24.4,44,0.00,,---,0.00,VWS V14.01,2013-05-02 17:51:00,
2013-05-02 12:52:00,41.5,21.8,25.84,North,0,16.8,19.7,45,0.00,,---,0.00,VWS V14.01,2013-05-02 17:52:00,
2013-05-02 12:53:00,41.7,21.4,25.84,NNE,22,23.9,23.9,44,0.00,,---,0.00,VWS V14.01,2013-05-02 17:53:00,
2013-05-02 12:54:00,41.7,21.4,25.81,NNE,22,16.1,23.9,44,0.00,,---,0.00,VWS V14.01,2013-05-02 17:54:00,
2013-05-02 12:55:00,41.9,21.6,25.81,North,0,21.0,21.0,44,0.00,,---,0.00,VWS V14.01,2013-05-02 17:55:00,
2013-05-02 12:56:00,42.3,21.4,25.81,North,0,22.4,22.4,43,0.00,,---,0.00,VWS V14.01,2013-05-02 17:56:00,
2013-05-02 12:57:00,42.1,21.2,25.81,North,0,15.9,23.0,43,0.00,,---,0.00,VWS V14.01,2013-05-02 17:57:00,
2013-05-02 12:59:00,41.7,20.9,25.81,NNE,22,23.9,26.9,43,0.00,,---,0.00,VWS V14.01,2013-05-02 17:59:00,
2013-05-02 13:00:00,41.7,20.9,25.81,NNE,22,23.3,23.9,43,0.00,,---,0.00,VWS V14.01,2013-05-02 18:00:00,
2013-05-02 13:02:00,41.7,20.9,25.81,NNE,22,17.0,25.3,43,0.00,,---,0.00,VWS V14.01,2013-05-02 18:02:00,
2013-05-02 13:03:00,41.9,20.5,25.81,North,0,23.3,23.3,42,0.00,,---,0.00,VWS V14.01,2013-05-02 18:03:00,
2013-05-02 13:04:00,41.9,20.5,25.81,NNE,22,22.8,23.3,42,0.00,,---,0.00,VWS V14.01,2013-05-02 18:04:00,
2013-05-02 13:05:00,41.7,20.3,25.81,North,0,24.6,24.6,42,0.00,,---,0.00,VWS V14.01,2013-05-02 18:05:00,
2013-05-02 13:06:00,41.9,20.5,25.81,NNW,338,18.8,24.6,42,0.00,,---,0.00,VWS V14.01,2013-05-02 18:06:00,
2013-05-02 13:07:00,42.1,20.7,25.81,North,0,13.0,19.2,42,0.00,,---,0.00,VWS V14.01,2013-05-02 18:07:00,
2013-05-02 13:08:00,42.3,20.8,25.81,North,0,14.1,21.5,42,0.00,,---,0.00,VWS V14.01,2013-05-02 18:08:00,
2013-05-02 13:09:00,42.4,21.0,25.84,North,0,19.5,19.9,42,0.00,,---,0.00,VWS V14.01,2013-05-02 18:09:00,
2013-05-02 13:10:00,42.4,21.0,25.84,NNE,22,20.4,20.4,42,0.00,,---,0.00,VWS V14.01,2013-05-02 18:10:00,
2013-05-02 13:11:00,41.9,20.5,25.84,North,0,16.1,16.1,42,0.00,,---,0.00,VWS V14.01,2013-05-02 18:11:00,
2013-05-02 13:12:00,41.9,20.5,25.84,North,0,17.7,17.7,42,0.00,,---,0.00,VWS V14.01,2013-05-02 18:12:00,
2013-05-02 13:13:00,41.9,20.5,25.84,NNW,338,22.2,22.2,42,0.00,,---,0.00,VWS V14.01,2013-05-02 18:13:00,
2013-05-02 13:14:00,42.4,21.0,25.84,NNW,338,16.8,22.2,42,0.00,,---,0.00,VWS V14.01,2013-05-02 18:14:00,
2013-05-02 13:15:00,42.4,21.0,25.84,NNW,338,17.5,21.3,42,0.00,,---,0.00,VWS V14.01,2013-05-02 18:15:00,
2013-05-02 13:16:00,42.4,20.4,25.84,North,0,18.6,25.3,41,0.00,,---,0.00,VWS V14.01,2013-05-02 18:16:00,
2013-05-02 13:17:00,42.4,20.4,25.84,North,0,18.6,18.6,41,0.00,,---,0.00,VWS V14.01,2013-05-02 18:17:00,
2013-05-02 13:18:00,42.3,20.3,25.84,NNW,338,19.5,19.5,41,0.00,,---,0.00,VWS V14.01,2013-05-02 18:18:00,
2013-05-02 13:19:00,42.3,20.3,25.84,North,0,23.9,25.5,41,0.00,,---,0.00,VWS V14.01,2013-05-02 18:19:00,
2013-05-02 13:20:00,42.3,20.3,25.84,NNE,22,25.3,25.3,41,0.00,,---,0.00,VWS V14.01,2013-05-02 18:20:00,
2013-05-02 13:21:00,42.1,20.1,25.84,NNE,22,21.5,25.3,41,0.00,,---,0.00,VWS V14.01,2013-05-02 18:21:00,
2013-05-02 13:22:00,42.1,20.1,25.84,NNE,22,22.8,22.8,41,0.00,,---,0.00,VWS V14.01,2013-05-02 18:22:00,
2013-05-02 13:23:00,42.1,20.1,25.84,NNE,22,22.8,22.8,41,0.00,,---,0.00,VWS V14.01,2013-05-02 18:23:00,
2013-05-02 13:24:00,41.7,19.8,25.84,NNE,22,17.2,24.2,41,0.00,,---,0.00,VWS V14.01,2013-05-02 18:24:00,
2013-05-02 13:25:00,42.1,20.7,25.84,NNE,22,19.7,20.6,42,0.00,,---,0.00,VWS V14.01,2013-05-02 18:25:00,
2013-05-02 13:26:00,42.3,20.3,25.84,North,0,18.6,24.4,41,0.00,,---,0.00,VWS V14.01,2013-05-02 18:26:00,
2013-05-02 13:27:00,42.3,20.3,25.84,North,0,22.8,22.8,41,0.00,,---,0.00,VWS V14.01,2013-05-02 18:27:00,
2013-05-02 13:28:00,42.6,21.1,25.84,North,0,15.4,22.8,42,0.00,,---,0.00,VWS V14.01,2013-05-02 18:28:00,
2013-05-02 13:29:00,42.8,20.8,25.84,NNE,22,22.8,22.8,41,0.00,,---,0.00,VWS V14.01,2013-05-02 18:29:00,
2013-05-02 13:30:00,42.8,20.8,25.84,North,0,22.8,22.8,41,0.00,,---,0.00,VWS V14.01,2013-05-02 18:30:00,
2013-05-02 13:31:00,42.8,20.8,25.84,North,0,22.8,22.8,41,0.00,,---,0.00,VWS V14.01,2013-05-02 18:31:00,
2013-05-02 13:32:00,42.8,20.8,25.84,NNE,22,25.1,26.2,41,0.00,,---,0.00,VWS V14.01,2013-05-02 18:32:00,
2013-05-02 13:33:00,43.0,20.9,25.84,North,0,23.7,25.7,41,0.00,,---,0.00,VWS V14.01,2013-05-02 18:33:00,
2013-05-02 13:34:00,43.0,20.9,25.84,North,0,22.4,23.7,41,0.00,,---,0.00,VWS V14.01,2013-05-02 18:34:00,
2013-05-02 13:35:00,43.2,20.5,25.84,NNE,22,15.9,22.4,40,0.00,,---,0.00,VWS V14.01,2013-05-02 18:35:00,
2013-05-02 13:36:00,43.5,20.8,25.84,North,0,15.4,20.6,40,0.00,,---,0.00,VWS V14.01,2013-05-02 18:36:00,
2013-05-02 13:37:00,43.9,21.1,25.84,NNE,22,22.8,22.8,40,0.00,,---,0.00,VWS V14.01,2013-05-02 18:37:00,
2013-05-02 13:38:00,43.7,21.0,25.84,NNW,338,24.6,24.6,40,0.00,,---,0.00,VWS V14.01,2013-05-02 18:38:00,
2013-05-02 13:39:00,43.5,20.8,25.84,North,0,17.7,24.6,40,0.00,,---,0.00,VWS V14.01,2013-05-02 18:39:00,
2013-05-02 13:40:00,43.5,20.8,25.84,North,0,18.6,23.3,40,0.00,,---,0.00,VWS V14.01,2013-05-02 18:40:00,
2013-05-02 13:41:00,43.5,20.8,25.84,North,0,17.5,23.9,40,0.00,,---,0.00,VWS V14.01,2013-05-02 18:41:00,
2013-05-02 13:42:00,43.5,20.8,25.84,NNE,22,16.8,21.0,40,0.00,,---,0.00,VWS V14.01,2013-05-02 18:42:00,
2013-05-02 13:43:00,43.5,20.8,25.84,NNW,338,19.5,19.5,40,0.00,,---,0.00,VWS V14.01,2013-05-02 18:43:00,
2013-05-02 13:44:00,43.5,20.2,25.84,NNE,22,18.1,19.5,39,0.00,,---,0.00,VWS V14.01,2013-05-02 18:44:00,
2013-05-02 13:45:00,43.5,20.8,25.84,NNE,22,20.1,20.1,40,0.00,,---,0.00,VWS V14.01,2013-05-02 18:45:00,
2013-05-02 13:46:00,43.5,20.8,25.84,North,0,23.0,23.0,40,0.00,,---,0.00,VWS V14.01,2013-05-02 18:46:00,
2013-05-02 13:47:00,43.5,20.8,25.84,NNE,22,22.6,24.2,40,0.00,,---,0.00,VWS V14.01,2013-05-02 18:47:00,
2013-05-02 13:48:00,43.5,20.8,25.84,NNE,22,22.6,22.6,40,0.00,,---,0.00,VWS V14.01,2013-05-02 18:48:00,
2013-05-02 13:49:00,43.5,20.2,25.84,NNE,22,24.2,25.5,39,0.00,,---,0.00,VWS V14.01,2013-05-02 18:49:00,
2013-05-02 13:50:00,44.2,20.9,25.84,North,0,22.4,22.4,39,0.00,,---,0.00,VWS V14.01,2013-05-02 18:50:00,
2013-05-02 13:51:00,44.4,21.0,25.84,NNE,22,23.5,23.7,39,0.00,,---,0.00,VWS V14.01,2013-05-02 18:51:00,
2013-05-02 13:52:00,44.2,20.9,25.84,North,0,23.5,23.5,39,0.00,,---,0.00,VWS V14.01,2013-05-02 18:52:00,
2013-05-02 13:54:00,44.6,21.2,25.84,NNE,22,20.8,23.5,39,0.00,,---,0.00,VWS V14.01,2013-05-02 18:54:00,
2013-05-02 13:55:00,44.6,21.2,25.81,North,0,25.1,25.1,39,0.00,,---,0.00,VWS V14.01,2013-05-02 18:55:00,
2013-05-02 13:56:00,44.6,20.6,25.81,NNE,22,23.5,23.5,38,0.00,,---,0.00,VWS V14.01,2013-05-02 18:56:00,
2013-05-02 13:57:00,44.6,20.6,25.81,North,0,23.9,25.3,38,0.00,,---,0.00,VWS V14.01,2013-05-02 18:57:00,
2013-05-02 13:58:00,44.6,20.6,25.81,NNE,22,17.5,26.0,38,0.00,,---,0.00,VWS V14.01,2013-05-02 18:58:00,
2013-05-02 13:59:00,45.1,21.7,25.81,NNE,22,24.4,24.4,39,0.00,,---,0.00,VWS V14.01,2013-05-02 18:59:00,
2013-05-02 14:00:00,45.1,21.7,25.81,NNE,22,24.4,24.4,39,0.00,,---,0.00,VWS V14.01,2013-05-02 19:00:00,
2013-05-02 14:01:00,44.6,20.6,25.81,North,0,26.6,30.9,38,0.00,,---,0.00,VWS V14.01,2013-05-02 19:01:00,
2013-05-02 14:02:00,44.2,20.9,25.81,NNE,22,25.3,26.6,39,0.00,,---,0.00,VWS V14.01,2013-05-02 19:02:00,
2013-05-02 14:03:00,44.4,21.0,25.81,North,0,15.7,25.3,39,0.00,,---,0.00,VWS V14.01,2013-05-02 19:03:00,
2013-05-02 14:04:00,44.1,20.7,25.81,NNE,22,24.6,24.6,39,0.00,,---,0.00,VWS V14.01,2013-05-02 19:04:00,
2013-05-02 14:05:00,44.2,20.9,25.81,North,0,17.0,24.6,39,0.00,,---,0.00,VWS V14.01,2013-05-02 19:05:00,
2013-05-02 14:06:00,44.2,20.9,25.81,North,0,19.7,27.7,39,0.00,,---,0.00,VWS V14.01,2013-05-02 19:06:00,
2013-05-02 14:07:00,44.4,21.0,25.81,NNE,22,20.6,20.6,39,0.00,,---,0.00,VWS V14.01,2013-05-02 19:07:00,
2013-05-02 14:08:00,44.4,21.0,25.81,NNW,338,20.8,20.8,39,0.00,,---,0.00,VWS V14.01,2013-05-02 19:08:00,
2013-05-02 14:09:00,44.4,21.0,25.84,NNW,338,20.8,20.8,39,0.00,,---,0.00,VWS V14.01,2013-05-02 19:09:00,
2013-05-02 14:10:00,44.4,21.0,25.84,NNE,22,26.0,26.0,39,0.00,,---,0.00,VWS V14.01,2013-05-02 19:10:00,
2013-05-02 14:11:00,44.1,20.7,25.84,NNE,22,17.7,26.4,39,0.00,,---,0.00,VWS V14.01,2013-05-02 19:11:00,
2013-05-02 14:12:00,44.2,20.9,25.84,NNE,22,28.6,28.9,39,0.00,,---,0.00,VWS V14.01,2013-05-02 19:12:00,
2013-05-02 14:13:00,44.1,20.7,25.84,NNE,22,27.5,28.6,39,0.00,,---,0.00,VWS V14.01,2013-05-02 19:13:00,
2013-05-02 14:14:00,44.1,20.7,25.84,NNE,22,19.9,27.5,39,0.00,,---,0.00,VWS V14.01,2013-05-02 19:14:00,
2013-05-02 14:15:00,44.6,21.2,25.84,NNE,22,24.6,24.6,39,0.00,,---,0.00,VWS V14.01,2013-05-02 19:15:00,
2013-05-02 14:16:00,44.6,21.2,25.84,North,0,20.6,24.6,39,0.00,,---,0.00,VWS V14.01,2013-05-02 19:16:00,
2013-05-02 14:17:00,44.4,21.0,25.84,NNE,22,22.2,22.2,39,0.00,,---,0.00,VWS V14.01,2013-05-02 19:17:00,
2013-05-02 14:18:00,44.2,20.9,25.84,NNW,338,24.2,24.2,39,0.00,,---,0.00,VWS V14.01,2013-05-02 19:18:00,
2013-05-02 14:19:00,43.9,20.5,25.84,North,0,14.3,25.5,39,0.00,,---,0.00,VWS V14.01,2013-05-02 19:19:00,
2013-05-02 14:20:00,44.1,21.3,25.84,NNW,338,17.7,20.4,40,0.00,,---,0.00,VWS V14.01,2013-05-02 19:20:00,
2013-05-02 14:21:00,44.1,21.3,25.84,NNE,22,23.7,25.3,40,0.00,,---,0.00,VWS V14.01,2013-05-02 19:21:00,
2013-05-02 14:22:00,43.9,20.5,25.84,NNE,22,17.5,25.5,39,0.00,,---,0.00,VWS V14.01,2013-05-02 19:22:00,
2013-05-02 14:23:00,44.1,21.3,25.84,NNE,22,19.7,24.4,40,0.00,,---,0.00,VWS V14.01,2013-05-02 19:23:00,
2013-05-02 14:24:00,44.1,21.3,25.81,NNE,22,23.9,23.9,40,0.00,,---,0.00,VWS V14.01,2013-05-02 19:24:00,
2013-05-02 14:25:00,43.9,21.1,25.81,NNE,22,26.6,26.6,40,0.00,,---,0.00,VWS V14.01,2013-05-02 19:25:00,
2013-05-02 14:26:00,43.9,21.1,25.81,NNE,22,23.0,26.6,40,0.00,,---,0.00,VWS V14.01,2013-05-02 19:26:00,
2013-05-02 14:27:00,43.9,21.1,25.81,North,0,29.8,29.8,40,0.00,,---,0.00,VWS V14.01,2013-05-02 19:27:00,
2013-05-02 14:28:00,43.9,21.1,25.81,North,0,23.3,29.8,40,0.00,,---,0.00,VWS V14.01,2013-05-02 19:28:00,
2013-05-02 14:29:00,43.9,21.1,25.81,NNE,22,22.4,26.6,40,0.00,,---,0.00,VWS V14.01,2013-05-02 19:29:00,
2013-05-02 14:30:00,43.9,21.1,25.81,NNW,338,23.0,23.0,40,0.00,,---,0.00,VWS V14.01,2013-05-02 19:30:00,
2013-05-02 14:31:00,43.9,21.1,25.81,NNW,338,19.7,23.0,40,0.00,,---,0.00,VWS V14.01,2013-05-02 19:31:00,
2013-05-02 14:32:00,43.9,21.1,25.81,NNW,338,19.7,22.8,40,0.00,,---,0.00,VWS V14.01,2013-05-02 19:32:00,
2013-05-02 14:33:00,43.9,21.1,25.81,NNW,338,19.7,19.7,40,0.00,,---,0.00,VWS V14.01,2013-05-02 19:33:00,
2013-05-02 14:34:00,44.2,21.5,25.81,North,0,15.4,19.7,40,0.00,,---,0.00,VWS V14.01,2013-05-02 19:34:00,
2013-05-02 14:35:00,44.6,21.2,25.81,NNE,22,16.1,17.7,39,0.00,,---,0.00,VWS V14.01,2013-05-02 19:35:00,
2013-05-02 14:36:00,44.8,21.4,25.81,NNE,22,23.7,23.7,39,0.00,,---,0.00,VWS V14.01,2013-05-02 19:36:00,
2013-05-02 14:37:00,44.6,21.2,25.81,NE,45,23.7,26.6,39,0.00,,---,0.00,VWS V14.01,2013-05-02 19:37:00,
2013-05-02 14:38:00,44.6,21.2,25.81,NNE,22,23.0,25.7,39,0.00,,---,0.00,VWS V14.01,2013-05-02 19:38:00,
2013-05-02 14:39:00,44.2,20.9,25.81,NNE,22,20.4,27.1,39,0.00,,---,0.00,VWS V14.01,2013-05-02 19:39:00,
2013-05-02 14:40:00,44.2,21.5,25.81,NNE,22,25.1,25.1,40,0.00,,---,0.00,VWS V14.01,2013-05-02 19:40:00,
2013-05-02 14:42:00,44.6,21.2,25.81,NNE,22,26.4,26.4,39,0.00,,---,0.00,VWS V14.01,2013-05-02 19:42:00,
2013-05-02 14:43:00,45.0,21.5,25.81,NE,45,22.4,26.4,39,0.00,,---,0.00,VWS V14.01,2013-05-02 19:43:00,
2013-05-02 14:44:00,45.1,21.7,25.81,NNW,338,22.8,24.6,39,0.00,,---,0.00,VWS V14.01,2013-05-02 19:44:00,
2013-05-02 14:45:00,45.3,21.8,25.81,NNE,22,30.0,30.0,39,0.00,,---,0.00,VWS V14.01,2013-05-02 19:45:00,
2013-05-02 14:46:00,45.0,21.5,25.81,North,0,23.5,29.5,39,0.00,,---,0.00,VWS V14.01,2013-05-02 19:46:00,
2013-05-02 14:47:00,44.6,21.2,25.81,NE,45,24.6,29.5,39,0.00,,---,0.00,VWS V14.01,2013-05-02 19:47:00,
2013-05-02 14:48:00,44.6,21.2,25.81,NNE,22,23.0,24.6,39,0.00,,---,0.00,VWS V14.01,2013-05-02 19:48:00,
2013-05-02 14:49:00,44.8,21.4,25.81,North,0,17.7,17.7,39,0.00,,---,0.00,VWS V14.01,2013-05-02 19:49:00,
2013-05-02 14:50:00,44.8,21.4,25.81,North,0,19.9,23.3,39,0.00,,---,0.00,VWS V14.01,2013-05-02 19:50:00,
2013-05-02 14:52:00,44.8,21.4,25.81,North,0,20.1,20.1,39,0.00,,---,0.00,VWS V14.01,2013-05-02 19:52:00,
2013-05-02 14:53:00,44.8,21.4,25.81,North,0,28.4,28.4,39,0.00,,---,0.00,VWS V14.01,2013-05-02 19:53:00,
2013-05-02 14:54:00,44.8,21.4,25.81,NNE,22,29.3,30.0,39,0.00,,---,0.00,VWS V14.01,2013-05-02 19:54:00,
2013-05-02 14:55:00,44.8,21.4,25.81,NNW,338,25.1,29.3,39,0.00,,---,0.00,VWS V14.01,2013-05-02 19:55:00,
2013-05-02 14:56:00,44.6,21.2,25.81,North,0,25.3,27.7,39,0.00,,---,0.00,VWS V14.01,2013-05-02 19:56:00,
2013-05-02 14:57:00,44.8,21.4,25.81,North,0,23.3,25.7,39,0.00,,---,0.00,VWS V14.01,2013-05-02 19:57:00,
2013-05-02 14:58:00,44.8,20.7,25.81,NNE,22,27.7,27.7,38,0.00,,---,0.00,VWS V14.01,2013-05-02 19:58:00,
2013-05-02 14:59:00,44.8,20.7,25.81,NNE,22,27.7,27.7,38,0.00,,---,0.00,VWS V14.01,2013-05-02 19:59:00,
2013-05-02 15:00:00,45.1,21.1,25.81,NNW,338,16.3,27.7,38,0.00,,---,0.00,VWS V14.01,2013-05-02 20:00:00,
2013-05-02 15:01:00,46.0,21.9,25.81,NNE,22,19.7,19.7,38,0.00,,---,0.00,VWS V14.01,2013-05-02 20:01:00,
2013-05-02 15:02:00,46.4,22.2,25.81,NNE,22,19.5,25.5,38,0.00,,---,0.00,VWS V14.01,2013-05-02 20:02:00,
2013-05-02 15:03:00,46.6,22.4,25.81,North,0,20.4,25.5,38,0.00,,---,0.00,VWS V14.01,2013-05-02 20:03:00,
2013-05-02 15:04:00,46.8,22.5,25.81,NNE,22,25.3,25.3,38,0.00,,---,0.00,VWS V14.01,2013-05-02 20:04:00,
2013-05-02 15:06:00,47.3,23.0,25.81,NE,45,25.3,25.3,38,0.00,,---,0.00,VWS V14.01,2013-05-02 20:06:00,
2013-05-02 15:07:00,48.2,23.2,25.81,North,0,15.9,29.1,37,0.00,,---,0.00,VWS V14.01,2013-05-02 20:07:00,
2013-05-02 15:08:00,48.4,23.3,25.81,North,0,26.0,26.0,37,0.00,,---,0.00,VWS V14.01,2013-05-02 20:08:00,
2013-05-02 15:09:00,47.7,22.7,25.81,NNE,22,23.3,26.0,37,0.00,,---,0.00,VWS V14.01,2013-05-02 20:09:00,
2013-05-02 15:10:00,47.5,22.5,25.81,North,0,23.7,23.7,37,0.00,,---,0.00,VWS V14.01,2013-05-02 20:10:00,
2013-05-02 15:11:00,47.5,22.5,25.81,North,0,23.7,23.9,37,0.00,,---,0.00,VWS V14.01,2013-05-02 20:11:00,
2013-05-02 15:12:00,47.3,22.4,25.81,North,0,22.6,23.7,37,0.00,,---,0.00,VWS V14.01,2013-05-02 20:12:00,
2013-05-02 15:13:00,47.5,22.5,25.81,North,0,27.1,27.1,37,0.00,,---,0.00,VWS V14.01,2013-05-02 20:13:00,
2013-05-02 15:14:00,48.0,23.0,25.81,NNE,22,19.2,19.2,37,0.00,,---,0.00,VWS V14.01,2013-05-02 20:14:00,
2013-05-02 15:15:00,48.0,23.0,25.81,North,0,22.8,23.3,37,0.00,,---,0.00,VWS V14.01,2013-05-02 20:15:00,
2013-05-02 15:16:00,48.0,22.4,25.81,NNE,22,22.6,24.2,36,0.00,,---,0.00,VWS V14.01,2013-05-02 20:16:00,
2013-05-02 15:17:00,48.2,22.5,25.81,NNE,22,29.8,30.9,36,0.00,,---,0.00,VWS V14.01,2013-05-02 20:17:00,
2013-05-02 15:18:00,47.7,22.0,25.81,North,0,26.6,29.8,36,0.00,,---,0.00,VWS V14.01,2013-05-02 20:18:00,
2013-05-02 15:19:00,47.3,21.7,25.81,North,0,23.5,26.6,36,0.00,,---,0.00,VWS V14.01,2013-05-02 20:19:00,
2013-05-02 15:20:00,47.1,21.6,25.81,North,0,21.9,23.5,36,0.00,,---,0.00,VWS V14.01,2013-05-02 20:20:00,
2013-05-02 15:21:00,47.1,21.6,25.81,North,0,28.0,28.0,36,0.00,,---,0.00,VWS V14.01,2013-05-02 20:21:00,
2013-05-02 15:22:00,47.1,21.6,25.81,North,0,28.0,28.0,36,0.00,,---,0.00,VWS V14.01,2013-05-02 20:22:00,
2013-05-02 15:23:00,47.1,21.6,25.81,NNE,22,25.3,28.0,36,0.00,,---,0.00,VWS V14.01,2013-05-02 20:23:00,
2013-05-02 15:24:00,47.5,21.9,25.78,North,0,23.9,26.9,36,0.00,,---,0.00,VWS V14.01,2013-05-02 20:24:00,
2013-05-02 15:25:00,47.8,22.2,25.78,NNE,22,21.0,23.9,36,0.00,,---,0.00,VWS V14.01,2013-05-02 20:25:00,
2013-05-02 15:26:00,47.8,22.2,25.78,NNE,22,17.7,24.6,36,0.00,,---,0.00,VWS V14.01,2013-05-02 20:26:00,
2013-05-02 15:27:00,47.8,22.2,25.78,North,0,23.9,26.4,36,0.00,,---,0.00,VWS V14.01,2013-05-02 20:27:00,
2013-05-02 15:28:00,47.5,21.9,25.78,NNE,22,26.6,28.0,36,0.00,,---,0.00,VWS V14.01,2013-05-02 20:28:00,
2013-05-02 15:29:00,47.5,21.9,25.78,NNE,22,28.6,28.6,36,0.00,,---,0.00,VWS V14.01,2013-05-02 20:29:00,
2013-05-02 15:30:00,47.5,21.9,25.78,North,0,23.3,28.6,36,0.00,,---,0.00,VWS V14.01,2013-05-02 20:30:00,
2013-05-02 15:31:00,47.3,21.7,25.78,NNE,22,18.8,28.0,36,0.00,,---,0.00,VWS V14.01,2013-05-02 20:31:00,
2013-05-02 15:32:00,47.8,22.2,25.78,NE,45,28.0,28.0,36,0.00,,---,0.00,VWS V14.01,2013-05-02 20:32:00,
2013-05-02 15:33:00,47.8,22.2,25.78,NNE,22,24.6,28.0,36,0.00,,---,0.00,VWS V14.01,2013-05-02 20:33:00,
2013-05-02 15:34:00,47.8,22.2,25.78,NNE,22,24.6,24.6,36,0.00,,---,0.00,VWS V14.01,2013-05-02 20:34:00,
2013-05-02 15:35:00,48.4,22.0,25.78,North,0,26.0,26.0,35,0.00,,---,0.00,VWS V14.01,2013-05-02 20:35:00,
2013-05-02 15:36:00,48.7,22.3,25.78,North,0,27.5,27.5,35,0.00,,---,0.00,VWS V14.01,2013-05-02 20:36:00,
2013-05-02 15:37:00,48.7,22.3,25.78,North,0,27.5,27.5,35,0.00,,---,0.00,VWS V14.01,2013-05-02 20:37:00,
2013-05-02 15:38:00,48.2,21.2,25.78,NNE,22,24.4,27.7,34,0.00,,---,0.00,VWS V14.01,2013-05-02 20:38:00,
2013-05-02 15:39:00,48.6,21.5,25.78,NNE,22,23.0,27.5,34,0.00,,---,0.00,VWS V14.01,2013-05-02 20:39:00,
2013-05-02 15:40:00,48.6,21.5,25.78,NNE,22,13.0,23.0,34,0.00,,---,0.00,VWS V14.01,2013-05-02 20:40:00,
2013-05-02 15:41:00,49.1,22.0,25.78,North,0,21.0,21.0,34,0.00,,---,0.00,VWS V14.01,2013-05-02 20:41:00,
2013-05-02 15:42:00,48.9,21.8,25.78,North,0,21.0,21.0,34,0.00,,---,0.00,VWS V14.01,2013-05-02 20:42:00,
2013-05-02 15:43:00,48.7,21.6,25.78,North,0,23.7,23.7,34,0.00,,---,0.00,VWS V14.01,2013-05-02 20:43:00,
2013-05-02 15:44:00,48.9,21.8,25.78,NNE,22,22.8,24.2,34,0.00,,---,0.00,VWS V14.01,2013-05-02 20:44:00,
2013-05-02 15:45:00,48.9,21.8,25.78,NE,45,17.5,26.4,34,0.00,,---,0.00,VWS V14.01,2013-05-02 20:45:00,
2013-05-02 15:46:00,48.7,20.9,25.78,NNE,22,20.4,25.3,33,0.00,,---,0.00,VWS V14.01,2013-05-02 20:46:00,
2013-05-02 15:47:00,48.7,20.9,25.78,North,0,15.7,22.2,33,0.00,,---,0.00,VWS V14.01,2013-05-02 20:47:00,
2013-05-02 15:48:00,49.3,21.4,25.78,NNE,22,26.0,26.0,33,0.00,,---,0.00,VWS V14.01,2013-05-02 20:48:00,
2013-05-02 15:49:00,48.9,21.1,25.78,North,0,27.3,30.4,33,0.00,,---,0.00,VWS V14.01,2013-05-02 20:49:00,
2013-05-02 15:50:00,48.4,20.6,25.78,NNE,22,22.4,27.3,33,0.00,,---,0.00,VWS V14.01,2013-05-02 20:50:00,
2013-05-02 15:51:00,48.4,20.6,25.78,NNE,22,27.7,27.7,33,0.00,,---,0.00,VWS V14.01,2013-05-02 20:51:00,
2013-05-02 15:52:00,48.6,20.8,25.78,NNE,22,26.9,27.7,33,0.00,,---,0.00,VWS V14.01,2013-05-02 20:52:00,
2013-05-02 15:53:00,48.6,20.8,25.78,NE,45,16.6,29.1,33,0.00,,---,0.00,VWS V14.01,2013-05-02 20:53:00,
2013-05-02 15:54:00,48.6,20.8,25.78,North,0,15.9,15.9,33,0.00,,---,0.00,VWS V14.01,2013-05-02 20:54:00,
2013-05-02 15:55:00,49.5,21.6,25.78,North,0,15.4,19.9,33,0.00,,---,0.00,VWS V14.01,2013-05-02 20:55:00,
2013-05-02 15:56:00,49.6,21.7,25.78,North,0,19.9,20.4,33,0.00,,---,0.00,VWS V14.01,2013-05-02 20:56:00,
2013-05-02 15:57:00,49.5,21.6,25.78,NNE,22,26.9,26.9,33,0.00,,---,0.00,VWS V14.01,2013-05-02 20:57:00,
2013-05-02 15:58:00,49.8,21.9,25.78,North,0,23.7,29.8,33,0.00,,---,0.00,VWS V14.01,2013-05-02 20:58:00,
2013-05-02 15:59:00,49.3,20.7,25.78,NNE,22,26.0,28.6,32,0.00,,---,0.00,VWS V14.01,2013-05-02 20:59:00,
2013-05-02 16:00:00,49.5,20.9,25.78,NNE,22,24.4,26.0,32,0.00,,---,0.00,VWS V14.01,2013-05-02 21:00:00,
2013-05-02 16:01:00,49.5,20.9,25.78,North,0,17.2,24.4,32,0.00,,---,0.00,VWS V14.01,2013-05-02 21:01:00,
2013-05-02 16:02:00,49.5,20.9,25.78,NNE,22,23.5,23.5,32,0.00,,---,0.00,VWS V14.01,2013-05-02 21:02:00,
2013-05-02 16:03:00,49.1,20.5,25.78,NNE,22,25.3,25.3,32,0.00,,---,0.00,VWS V14.01,2013-05-02 21:03:00,
2013-05-02 16:04:00,49.1,20.5,25.78,NNE,22,21.3,28.0,32,0.00,,---,0.00,VWS V14.01,2013-05-02 21:04:00,
2013-05-02 16:05:00,49.1,20.5,25.78,NNE,22,26.9,30.9,32,0.00,,---,0.00,VWS V14.01,2013-05-02 21:05:00,
2013-05-02 16:06:00,49.5,20.9,25.78,North,0,26.0,26.9,32,0.00,,---,0.00,VWS V14.01,2013-05-02 21:06:00,
2013-05-02 16:07:00,49.5,20.9,25.78,NNW,338,18.6,26.6,32,0.00,,---,0.00,VWS V14.01,2013-05-02 21:07:00,
2013-05-02 16:08:00,50.2,21.5,25.78,North,0,25.7,25.7,32,0.00,,---,0.00,VWS V14.01,2013-05-02 21:08:00,
2013-05-02 16:09:00,50.0,21.3,25.78,North,0,22.6,29.5,32,0.00,,---,0.00,VWS V14.01,2013-05-02 21:09:00,
2013-05-02 16:10:00,50.2,20.7,25.78,North,0,21.0,25.5,31,0.00,,---,0.00,VWS V14.01,2013-05-02 21:10:00,
2013-05-02 16:11:00,50.2,20.7,25.78,North,0,22.8,25.3,31,0.00,,---,0.00,VWS V14.01,2013-05-02 21:11:00,
2013-05-02 16:12:00,50.4,20.9,25.78,North,0,23.5,27.7,31,0.00,,---,0.00,VWS V14.01,2013-05-02 21:12:00,
2013-05-02 16:13:00,50.4,20.9,25.78,NNE,22,26.0,26.0,31,0.00,,---,0.00,VWS V14.01,2013-05-02 21:13:00,
2013-05-02 16:14:00,50.0,20.6,25.78,NNE,22,27.3,27.7,31,0.00,,---,0.00,VWS V14.01,2013-05-02 21:14:00,
2013-05-02 16:15:00,50.0,20.6,25.78,NNE,22,22.6,27.3,31,0.00,,---,0.00,VWS V14.01,2013-05-02 21:15:00,
2013-05-02 16:16:00,50.0,20.6,25.78,NNE,22,17.2,22.6,31,0.00,,---,0.00,VWS V14.01,2013-05-02 21:16:00,
2013-05-02 16:17:00,50.0,20.6,25.78,North,0,17.2,17.2,31,0.00,,---,0.00,VWS V14.01,2013-05-02 21:17:00,
2013-05-02 16:18:00,50.0,20.6,25.78,NE,45,17.2,19.2,31,0.00,,---,0.00,VWS V14.01,2013-05-02 21:18:00,
2013-05-02 16:19:00,50.5,21.0,25.78,North,0,17.5,29.8,31,0.00,,---,0.00,VWS V14.01,2013-05-02 21:19:00,
2013-05-02 16:20:00,51.1,21.5,25.78,NNE,22,20.6,23.7,31,0.00,,---,0.00,VWS V14.01,2013-05-02 21:20:00,
2013-05-02 16:21:00,50.7,20.4,25.78,NNE,22,30.2,30.2,30,0.00,,---,0.00,VWS V14.01,2013-05-02 21:21:00,
2013-05-02 16:22:00,50.2,20.0,25.78,North,0,19.0,30.2,30,0.00,,---,0.00,VWS V14.01,2013-05-02 21:22:00,
2013-05-02 16:23:00,50.2,20.0,25.78,NNE,22,15.2,19.9,30,0.00,,---,0.00,VWS V14.01,2013-05-02 21:23:00,
2013-05-02 16:24:00,50.2,20.0,25.78,NNE,22,19.9,19.9,30,0.00,,---,0.00,VWS V14.01,2013-05-02 21:24:00,
2013-05-02 16:25:00,50.2,20.0,25.78,NE,45,17.2,19.9,30,0.00,,---,0.00,VWS V14.01,2013-05-02 21:25:00,
2013-05-02 16:26:00,50.2,20.0,25.78,NNW,338,21.9,21.9,30,0.00,,---,0.00,VWS V14.01,2013-05-02 21:26:00,
2013-05-02 16:27:00,50.4,20.1,25.78,North,0,16.8,22.4,30,0.00,,---,0.00,VWS V14.01,2013-05-02 21:27:00,
2013-05-02 16:28:00,50.4,20.1,25.78,North,0,16.8,16.8,30,0.00,,---,0.00,VWS V14.01,2013-05-02 21:28:00,
2013-05-02 16:29:00,50.7,20.4,25.78,NNE,22,21.3,26.0,30,0.00,,---,0.00,VWS V14.01,2013-05-02 21:29:00,
2013-05-02 16:30:00,50.7,20.4,25.78,NNW,338,17.2,22.2,30,0.00,,---,0.00,VWS V14.01,2013-05-02 21:30:00,
2013-05-02 16:31:00,50.7,20.4,25.78,NNE,22,22.8,22.8,30,0.00,,---,0.00,VWS V14.01,2013-05-02 21:31:00,
2013-05-02 16:32:00,50.4,20.1,25.78,NNE,22,23.7,31.8,30,0.00,,---,0.00,VWS V14.01,2013-05-02 21:32:00,
2013-05-02 16:33:00,50.4,20.1,25.78,NNE,22,31.1,31.3,30,0.00,,---,0.00,VWS V14.01,2013-05-02 21:33:00,
2013-05-02 16:34:00,50.4,20.1,25.78,NNE,22,27.5,31.1,30,0.00,,---,0.00,VWS V14.01,2013-05-02 21:34:00,
2013-05-02 16:35:00,50.5,20.3,25.78,NNE,22,23.0,27.5,30,0.00,,---,0.00,VWS V14.01,2013-05-02 21:35:00,
2013-05-02 16:36:00,50.5,20.3,25.78,NNE,22,18.6,23.9,30,0.00,,---,0.00,VWS V14.01,2013-05-02 21:36:00,
2013-05-02 16:37:00,50.5,20.3,25.78,NNE,22,20.8,23.0,30,0.00,,---,0.00,VWS V14.01,2013-05-02 21:37:00,
2013-05-02 16:38:00,50.9,20.6,25.78,NNE,22,25.5,25.5,30,0.00,,---,0.00,VWS V14.01,2013-05-02 21:38:00,
2013-05-02 16:39:00,51.3,20.9,25.78,NE,45,23.7,29.5,30,0.00,,---,0.00,VWS V14.01,2013-05-02 21:39:00,
2013-05-02 16:41:00,51.1,20.8,25.78,NE,45,23.3,30.2,30,0.00,,---,0.00,VWS V14.01,2013-05-02 21:41:00,
2013-05-02 16:42:00,51.6,21.2,25.78,NE,45,22.8,26.0,30,0.00,,---,0.00,VWS V14.01,2013-05-02 21:42:00,
2013-05-02 16:43:00,52.0,20.7,25.78,NNE,22,21.9,21.9,29,0.00,,---,0.00,VWS V14.01,2013-05-02 21:43:00,
2013-05-02 16:44:00,51.8,20.6,25.78,NNE,22,25.3,25.3,29,0.00,,---,0.00,VWS V14.01,2013-05-02 21:44:00,
2013-05-02 16:45:00,52.0,20.7,25.78,NNE,22,23.0,23.0,29,0.00,,---,0.00,VWS V14.01,2013-05-02 21:45:00,
2013-05-02 16:46:00,52.0,20.7,25.78,NE,45,30.7,30.7,29,0.00,,---,0.00,VWS V14.01,2013-05-02 21:46:00,
2013-05-02 16:47:00,51.6,20.4,25.78,NNE,22,23.7,23.7,29,0.00,,---,0.00,VWS V14.01,2013-05-02 21:47:00,
2013-05-02 16:48:00,51.6,20.4,25.78,NNE,22,23.7,23.7,29,0.00,,---,0.00,VWS V14.01,2013-05-02 21:48:00,
2013-05-02 16:50:00,52.0,20.7,25.78,North,0,22.2,26.0,29,0.00,,---,0.00,VWS V14.01,2013-05-02 21:50:00,
2013-05-02 16:51:00,52.2,20.9,25.78,NNE,22,22.6,25.7,29,0.00,,---,0.00,VWS V14.01,2013-05-02 21:51:00,
2013-05-02 16:52:00,52.5,21.2,25.78,NNW,338,17.5,19.5,29,0.00,,---,0.00,VWS V14.01,2013-05-02 21:52:00,
2013-05-02 16:53:00,52.7,21.4,25.78,North,0,23.9,26.4,29,0.00,,---,0.00,VWS V14.01,2013-05-02 21:53:00,
2013-05-02 16:54:00,52.7,21.4,25.78,NNE,22,19.0,24.2,29,0.00,,---,0.00,VWS V14.01,2013-05-02 21:54:00,
2013-05-02 16:55:00,52.7,21.4,25.78,North,0,26.6,26.6,29,0.00,,---,0.00,VWS V14.01,2013-05-02 21:55:00,
2013-05-02 16:56:00,52.3,21.0,25.78,NNE,22,19.7,27.5,29,0.00,,---,0.00,VWS V14.01,2013-05-02 21:56:00,
2013-05-02 16:57:00,52.2,20.9,25.78,NNE,22,21.9,24.2,29,0.00,,---,0.00,VWS V14.01,2013-05-02 21:57:00,
2013-05-02 16:58:00,53.1,21.7,25.78,NNE,22,17.5,21.9,29,0.00,,---,0.00,VWS V14.01,2013-05-02 21:58:00,
2013-05-02 16:59:00,53.2,21.8,25.78,NNE,22,17.5,19.9,29,0.00,,---,0.00,VWS V14.01,2013-05-02 21:59:00,
2013-05-02 17:00:00,53.4,21.1,25.78,NNE,22,24.2,24.2,28,0.00,,---,0.00,VWS V14.01,2013-05-02 22:00:00,
2013-05-02 17:01:00,53.4,21.1,25.78,NNE,22,27.5,27.5,28,0.00,,---,0.00,VWS V14.01,2013-05-02 22:01:00,
2013-05-02 17:02:00,52.5,20.4,25.78,NNE,22,23.7,27.5,28,0.00,,---,0.00,VWS V14.01,2013-05-02 22:02:00,
2013-05-02 17:03:00,52.0,19.9,25.78,NNE,22,26.6,30.4,28,0.00,,---,0.00,VWS V14.01,2013-05-02 22:03:00,
2013-05-02 17:04:00,52.0,19.9,25.78,North,0,28.9,28.9,28,0.00,,---,0.00,VWS V14.01,2013-05-02 22:04:00,
2013-05-02 17:05:00,51.3,20.1,25.78,North,0,26.4,32.2,29,0.00,,---,0.00,VWS V14.01,2013-05-02 22:05:00,
2013-05-02 17:06:00,51.3,20.1,25.78,North,0,25.7,28.9,29,0.00,,---,0.00,VWS V14.01,2013-05-02 22:06:00,
2013-05-02 17:07:00,51.3,20.1,25.78,North,0,25.7,26.6,29,0.00,,---,0.00,VWS V14.01,2013-05-02 22:07:00,
2013-05-02 17:08:00,51.4,20.3,25.78,North,0,18.1,25.7,29,0.00,,---,0.00,VWS V14.01,2013-05-02 22:08:00,
2013-05-02 17:09:00,51.4,20.3,25.78,North,0,25.1,25.1,29,0.00,,---,0.00,VWS V14.01,2013-05-02 22:09:00,
2013-05-02 17:10:00,51.4,20.3,25.78,North,0,24.2,26.4,29,0.00,,---,0.00,VWS V14.01,2013-05-02 22:10:00,
2013-05-02 17:11:00,51.4,20.3,25.78,NNE,22,20.6,27.3,29,0.00,,---,0.00,VWS V14.01,2013-05-02 22:11:00,
2013-05-02 17:12:00,51.4,20.3,25.78,NNE,22,28.9,31.8,29,0.00,,---,0.00,VWS V14.01,2013-05-02 22:12:00,
2013-05-02 17:13:00,51.3,20.1,25.78,NNE,22,17.0,28.9,29,0.00,,---,0.00,VWS V14.01,2013-05-02 22:13:00,
2013-05-02 17:14:00,51.6,20.4,25.78,NNE,22,16.6,17.0,29,0.00,,---,0.00,VWS V14.01,2013-05-02 22:14:00,
2013-05-02 17:16:00,51.8,19.8,25.78,NE,45,29.3,29.3,28,0.00,,---,0.00,VWS V14.01,2013-05-02 22:16:00,
2013-05-02 17:17:00,51.6,20.4,25.78,NNE,22,28.6,29.3,29,0.00,,---,0.00,VWS V14.01,2013-05-02 22:17:00,
2013-05-02 17:18:00,51.4,20.3,25.78,NNE,22,19.9,28.6,29,0.00,,---,0.00,VWS V14.01,2013-05-02 22:18:00,
2013-05-02 17:19:00,51.6,20.4,25.78,North,0,21.9,21.9,29,0.00,,---,0.00,VWS V14.01,2013-05-02 22:19:00,
2013-05-02 17:20:00,51.6,20.4,25.78,North,0,23.9,24.2,29,0.00,,---,0.00,VWS V14.01,2013-05-02 22:20:00,
2013-05-02 17:21:00,51.6,20.4,25.78,NNE,22,17.7,23.9,29,0.00,,---,0.00,VWS V14.01,2013-05-02 22:21:00,
2013-05-02 17:22:00,51.6,20.4,25.78,NNE,22,23.7,26.0,29,0.00,,---,0.00,VWS V14.01,2013-05-02 22:22:00,
2013-05-02 17:23:00,52.0,19.9,25.78,North,0,22.8,23.7,28,0.00,,---,0.00,VWS V14.01,2013-05-02 22:23:00,
2013-05-02 17:24:00,51.8,19.8,25.78,NNE,22,23.7,26.6,28,0.00,,---,0.00,VWS V14.01,2013-05-02 22:24:00,
2013-05-02 17:25:00,51.6,19.6,25.78,North,0,26.0,26.6,28,0.00,,---,0.00,VWS V14.01,2013-05-02 22:25:00,
2013-05-02 17:26:00,51.3,19.3,25.78,North,0,23.7,26.0,28,0.00,,---,0.00,VWS V14.01,2013-05-02 22:26:00,
2013-05-02 17:27:00,51.1,19.1,25.78,NNE,22,23.3,24.2,28,0.00,,---,0.00,VWS V14.01,2013-05-02 22:27:00,
2013-05-02 17:28:00,51.3,19.3,25.78,NNE,22,25.7,25.7,28,0.00,,---,0.00,VWS V14.01,2013-05-02 22:28:00,
2013-05-02 17:29:00,51.3,19.3,25.78,NNE,22,24.4,25.7,28,0.00,,---,0.00,VWS V14.01,2013-05-02 22:29:00,
2013-05-02 17:30:00,51.3,19.3,25.78,NNE,22,24.4,24.4,28,0.00,,---,0.00,VWS V14.01,2013-05-02 22:30:00,
2013-05-02 17:31:00,51.4,19.4,25.78,NNE,22,25.1,25.1,28,0.00,,---,0.00,VWS V14.01,2013-05-02 22:31:00,
2013-05-02 17:32:00,51.3,19.3,25.78,NNE,22,25.5,28.0,28,0.00,,---,0.00,VWS V14.01,2013-05-02 22:32:00,
2013-05-02 17:33:00,51.4,19.4,25.78,NNE,22,22.2,25.5,28,0.00,,---,0.00,VWS V14.01,2013-05-02 22:33:00,
2013-05-02 17:34:00,51.4,19.4,25.78,NE,45,26.2,26.2,28,0.00,,---,0.00,VWS V14.01,2013-05-02 22:34:00,
2013-05-02 17:35:00,51.4,19.4,25.78,NE,45,26.2,26.2,28,0.00,,---,0.00,VWS V14.01,2013-05-02 22:35:00,
2013-05-02 17:36:00,51.1,19.1,25.78,NE,45,26.2,26.2,28,0.00,,---,0.00,VWS V14.01,2013-05-02 22:36:00,
2013-05-02 17:37:00,51.1,19.1,25.78,North,0,22.8,26.2,28,0.00,,---,0.00,VWS V14.01,2013-05-02 22:37:00,
2013-05-02 17:38:00,51.1,19.1,25.78,NNE,22,22.2,23.3,28,0.00,,---,0.00,VWS V14.01,2013-05-02 22:38:00,
2013-05-02 17:39:00,51.3,19.3,25.78,NNE,22,23.0,23.0,28,0.00,,---,0.00,VWS V14.01,2013-05-02 22:39:00,
2013-05-02 17:40:00,51.3,19.3,25.78,NNE,22,23.0,23.0,28,0.00,,---,0.00,VWS V14.01,2013-05-02 22:40:00,
2013-05-02 17:41:00,51.3,19.3,25.78,NNE,22,24.4,25.1,28,0.00,,---,0.00,VWS V14.01,2013-05-02 22:41:00,
2013-05-02 17:42:00,51.1,19.1,25.78,NNE,22,22.8,25.1,28,0.00,,---,0.00,VWS V14.01,2013-05-02 22:42:00,
2013-05-02 17:43:00,51.3,19.3,25.78,NNE,22,28.6,28.6,28,0.00,,---,0.00,VWS V14.01,2013-05-02 22:43:00,
2013-05-02 17:44:00,51.1,19.1,25.78,NNE,22,26.6,26.6,28,0.00,,---,0.00,VWS V14.01,2013-05-02 22:44:00,
2013-05-02 17:45:00,51.1,19.1,25.78,NNE,22,26.4,26.6,28,0.00,,---,0.00,VWS V14.01,2013-05-02 22:45:00,
2013-05-02 17:46:00,51.3,19.3,25.78,NNE,22,26.4,26.4,28,0.00,,---,0.00,VWS V14.01,2013-05-02 22:46:00,
2013-05-02 17:47:00,51.3,19.3,25.78,NNE,22,28.6,28.6,28,0.00,,---,0.00,VWS V14.01,2013-05-02 22:47:00,
2013-05-02 17:48:00,51.1,19.1,25.78,NNE,22,23.9,23.9,28,0.00,,---,0.00,VWS V14.01,2013-05-02 22:48:00,
2013-05-02 17:49:00,51.1,19.1,25.78,North,0,25.5,28.4,28,0.00,,---,0.00,VWS V14.01,2013-05-02 22:49:00,
2013-05-02 17:50:00,51.1,19.1,25.78,North,0,17.2,25.5,28,0.00,,---,0.00,VWS V14.01,2013-05-02 22:50:00,
2013-05-02 17:51:00,51.3,19.3,25.78,NNE,22,17.2,20.1,28,0.00,,---,0.00,VWS V14.01,2013-05-02 22:51:00,
2013-05-02 17:52:00,51.3,19.3,25.78,North,0,16.1,16.1,28,0.00,,---,0.00,VWS V14.01,2013-05-02 22:52:00,
2013-05-02 17:53:00,51.3,19.3,25.78,North,0,22.6,22.6,28,0.00,,---,0.00,VWS V14.01,2013-05-02 22:53:00,
2013-05-02 17:54:00,51.3,19.3,25.78,NNW,338,19.7,22.6,28,0.00,,---,0.00,VWS V14.01,2013-05-02 22:54:00,
2013-05-02 17:55:00,51.3,19.3,25.78,North,0,19.0,19.7,28,0.00,,---,0.00,VWS V14.01,2013-05-02 22:55:00,
2013-05-02 17:56:00,51.3,19.3,25.78,North,0,19.0,19.0,28,0.00,,---,0.00,VWS V14.01,2013-05-02 22:56:00,
2013-05-02 17:57:00,51.4,19.4,25.78,NNE,22,26.9,26.9,28,0.00,,---,0.00,VWS V14.01,2013-05-02 22:57:00,
2013-05-02 17:58:00,51.1,19.1,25.78,NNE,22,17.5,26.9,28,0.00,,---,0.00,VWS V14.01,2013-05-02 22:58:00,
2013-05-02 17:59:00,51.1,19.1,25.78,North,0,19.0,19.7,28,0.00,,---,0.00,VWS V14.01,2013-05-02 22:59:00,
2013-05-02 18:00:00,51.1,19.1,25.78,NNW,338,22.8,22.8,28,0.00,,---,0.00,VWS V14.01,2013-05-02 23:00:00,
2013-05-02 18:01:00,51.1,19.1,25.78,NNE,22,23.5,23.5,28,0.00,,---,0.00,VWS V14.01,2013-05-02 23:01:00,
2013-05-02 18:02:00,51.1,19.1,25.78,North,0,26.4,26.4,28,0.00,,---,0.00,VWS V14.01,2013-05-02 23:02:00,
2013-05-02 18:03:00,51.1,19.1,25.78,North,0,26.4,26.4,28,0.00,,---,0.00,VWS V14.01,2013-05-02 23:03:00,
2013-05-02 18:04:00,51.1,19.1,25.78,North,0,26.4,26.4,28,0.00,,---,0.00,VWS V14.01,2013-05-02 23:04:00,
2013-05-02 18:05:00,51.1,19.1,25.78,North,0,26.4,26.4,28,0.00,,---,0.00,VWS V14.01,2013-05-02 23:05:00,
2013-05-02 18:06:00,50.7,18.8,25.78,NNE,22,22.4,22.4,28,0.00,,---,0.00,VWS V14.01,2013-05-02 23:06:00,
2013-05-02 18:07:00,50.7,18.8,25.78,NE,45,23.0,23.0,28,0.00,,---,0.00,VWS V14.01,2013-05-02 23:07:00,
2013-05-02 18:08:00,50.9,19.0,25.78,NNE,22,25.7,25.7,28,0.00,,---,0.00,VWS V14.01,2013-05-02 23:08:00,
2013-05-02 18:09:00,51.1,19.1,25.78,NNE,22,23.9,25.7,28,0.00,,---,0.00,VWS V14.01,2013-05-02 23:09:00,
2013-05-02 18:11:00,51.1,19.1,25.78,NNE,22,25.3,25.3,28,0.00,,---,0.00,VWS V14.01,2013-05-02 23:11:00,
2013-05-02 18:12:00,51.1,19.1,25.78,NNE,22,25.3,25.3,28,0.00,,---,0.00,VWS V14.01,2013-05-02 23:12:00,
2013-05-02 18:13:00,51.1,19.1,25.78,NNE,22,19.5,19.5,28,0.00,,---,0.00,VWS V14.01,2013-05-02 23:13:00,
2013-05-02 18:14:00,51.1,19.1,25.78,North,0,30.7,30.7,28,0.00,,---,0.00,VWS V14.01,2013-05-02 23:14:00,
2013-05-02 18:15:00,50.4,18.5,25.78,North,0,30.7,30.7,28,0.00,,---,0.00,VWS V14.01,2013-05-02 23:15:00,
2013-05-02 18:16:00,50.4,18.5,25.78,North,0,23.0,30.7,28,0.00,,---,0.00,VWS V14.01,2013-05-02 23:16:00,
2013-05-02 18:17:00,50.4,18.5,25.78,North,0,26.2,26.2,28,0.00,,---,0.00,VWS V14.01,2013-05-02 23:17:00,
2013-05-02 18:18:00,50.5,18.7,25.78,North,0,26.2,26.2,28,0.00,,---,0.00,VWS V14.01,2013-05-02 23:18:00,
2013-05-02 18:19:00,50.5,18.7,25.78,North,0,22.8,26.2,28,0.00,,---,0.00,VWS V14.01,2013-05-02 23:19:00,
2013-05-02 18:20:00,50.5,18.7,25.78,North,0,25.5,25.5,28,0.00,,---,0.00,VWS V14.01,2013-05-02 23:20:00,
2013-05-02 18:21:00,50.5,18.7,25.78,North,0,25.5,25.5,28,0.00,,---,0.00,VWS V14.01,2013-05-02 23:21:00,
2013-05-02 18:22:00,50.4,18.5,25.78,NNE,22,24.4,25.5,28,0.00,,---,0.00,VWS V14.01,2013-05-02 23:22:00,
2013-05-02 18:23:00,50.5,18.7,25.78,NNE,22,15.2,24.4,28,0.00,,---,0.00,VWS V14.01,2013-05-02 23:23:00,
2013-05-02 18:24:00,50.4,18.5,25.78,NNE,22,15.2,15.2,28,0.00,,---,0.00,VWS V14.01,2013-05-02 23:24:00,
2013-05-02 18:25:00,50.4,18.5,25.78,NNE,22,15.2,15.2,28,0.00,,---,0.00,VWS V14.01,2013-05-02 23:25:00,
2013-05-02 18:26:00,50.4,18.5,25.78,NNE,22,15.2,15.2,28,0.00,,---,0.00,VWS V14.01,2013-05-02 23:26:00,
2013-05-02 18:27:00,50.4,18.5,25.78,North,0,25.1,25.1,28,0.00,,---,0.00,VWS V14.01,2013-05-02 23:27:00,
2013-05-02 18:28:00,50.2,18.4,25.78,North,0,25.1,25.1,28,0.00,,---,0.00,VWS V14.01,2013-05-02 23:28:00,
2013-05-02 18:29:00,50.2,18.4,25.78,North,0,25.1,25.1,28,0.00,,---,0.00,VWS V14.01,2013-05-02 23:29:00,
2013-05-02 18:30:00,50.2,18.4,25.78,North,0,25.1,25.1,28,0.00,,---,0.00,VWS V14.01,2013-05-02 23:30:00,
2013-05-02 18:31:00,50.0,18.2,25.78,NNE,22,23.3,25.1,28,0.00,,---,0.00,VWS V14.01,2013-05-02 23:31:00,
2013-05-02 18:32:00,50.0,18.2,25.78,NNE,22,23.3,23.3,28,0.00,,---,0.00,VWS V14.01,2013-05-02 23:32:00,
2013-05-02 18:33:00,50.0,18.2,25.78,North,0,23.3,23.3,28,0.00,,---,0.00,VWS V14.01,2013-05-02 23:33:00,
2013-05-02 18:34:00,49.8,18.0,25.78,North,0,23.3,23.3,28,0.00,,---,0.00,VWS V14.01,2013-05-02 23:34:00,
2013-05-02 18:35:00,49.6,17.9,25.78,North,0,23.3,23.3,28,0.00,,---,0.00,VWS V14.01,2013-05-02 23:35:00,
2013-05-02 18:36:00,49.6,17.9,25.78,NNE,22,17.2,23.3,28,0.00,,---,0.00,VWS V14.01,2013-05-02 23:36:00,
2013-05-02 18:37:00,49.8,18.0,25.78,NNE,22,17.2,17.2,28,0.00,,---,0.00,VWS V14.01,2013-05-02 23:37:00,
2013-05-02 18:38:00,49.8,18.0,25.78,NNE,22,17.2,17.2,28,0.00,,---,0.00,VWS V14.01,2013-05-02 23:38:00,
2013-05-02 18:39:00,49.8,18.0,25.78,NNE,22,17.2,17.2,28,0.00,,---,0.00,VWS V14.01,2013-05-02 23:39:00,
2013-05-02 18:40:00,49.5,17.7,25.78,NNE,22,20.8,20.8,28,0.00,,---,0.00,VWS V14.01,2013-05-02 23:40:00,
2013-05-02 18:42:00,49.5,17.7,25.78,NNE,22,20.8,20.8,28,0.00,,---,0.00,VWS V14.01,2013-05-02 23:42:00,
2013-05-02 18:43:00,49.5,17.7,25.78,NNE,22,20.8,20.8,28,0.00,,---,0.00,VWS V14.01,2013-05-02 23:43:00,
2013-05-02 18:44:00,49.5,17.7,25.78,North,0,23.7,23.7,28,0.00,,---,0.00,VWS V14.01,2013-05-02 23:44:00,
2013-05-02 18:45:00,49.5,17.7,25.78,North,0,23.7,23.7,28,0.00,,---,0.00,VWS V14.01,2013-05-02 23:45:00,
2013-05-02 18:46:00,49.3,17.6,25.78,North,0,23.7,23.7,28,0.00,,---,0.00,VWS V14.01,2013-05-02 23:46:00,
2013-05-02 18:47:00,49.3,17.6,25.78,North,0,20.6,23.7,28,0.00,,---,0.00,VWS V14.01,2013-05-02 23:47:00,
2013-05-02 18:48:00,49.3,17.6,25.78,NNE,22,20.4,20.6,28,0.00,,---,0.00,VWS V14.01,2013-05-02 23:48:00,
2013-05-02 18:49:00,49.1,17.4,25.78,NNE,22,20.4,20.4,28,0.00,,---,0.00,VWS V14.01,2013-05-02 23:49:00,
2013-05-02 18:50:00,49.1,17.4,25.78,NNE,22,20.4,20.4,28,0.00,,---,0.00,VWS V14.01,2013-05-02 23:50:00,
2013-05-02 18:51:00,49.3,18.4,25.78,NNE,22,20.4,20.4,29,0.00,,---,0.00,VWS V14.01,2013-05-02 23:51:00,
2013-05-02 18:52:00,48.7,17.1,25.78,North,0,27.1,27.1,28,0.00,,---,0.00,VWS V14.01,2013-05-02 23:52:00,
2013-05-02 18:53:00,48.7,17.9,25.78,North,0,27.1,27.1,29,0.00,,---,0.00,VWS V14.01,2013-05-02 23:53:00,
2013-05-02 18:54:00,48.7,17.9,25.75,NNE,22,22.4,27.1,29,0.00,,---,0.00,VWS V14.01,2013-05-02 23:54:00,
2013-05-02 18:55:00,48.7,17.9,25.75,NNE,22,22.4,22.4,29,0.00,,---,0.00,VWS V14.01,2013-05-02 23:55:00,
2013-05-02 18:56:00,48.6,17.8,25.75,NNE,22,22.4,22.4,29,0.00,,---,0.00,VWS V14.01,2013-05-02 23:56:00,
2013-05-02 18:57:00,48.7,17.9,25.75,NNE,22,22.4,22.4,29,0.00,,---,0.00,VWS V14.01,2013-05-02 23:57:00,
2013-05-02 18:58:00,48.6,17.8,25.75,NNE,22,22.4,22.4,29,0.00,,---,0.00,VWS V14.01,2013-05-02 23:58:00,
2013-05-02 18:59:00,48.6,17.8,25.75,NNE,22,22.4,22.4,29,0.00,,---,0.00,VWS V14.01,2013-05-02 23:59:00,
2013-05-02 19:00:00,48.2,17.5,25.75,NNE,22,22.4,22.4,29,0.00,,---,0.00,VWS V14.01,2013-05-03 00:00:00,
2013-05-02 19:01:00,48.2,17.5,25.75,NNE,22,22.4,22.4,29,0.00,,---,0.00,VWS V14.01,2013-05-03 00:01:00,
2013-05-02 19:02:00,48.2,17.5,25.75,NNE,22,22.4,22.4,29,0.00,,---,0.00,VWS V14.01,2013-05-03 00:02:00,
2013-05-02 19:03:00,48.2,17.5,25.75,NNE,22,20.8,22.4,29,0.00,,---,0.00,VWS V14.01,2013-05-03 00:03:00,
2013-05-02 19:04:00,48.0,17.3,25.75,NNE,22,20.8,20.8,29,0.00,,---,0.00,VWS V14.01,2013-05-03 00:04:00,
2013-05-02 19:05:00,48.0,17.3,25.75,NNE,22,20.8,20.8,29,0.00,,---,0.00,VWS V14.01,2013-05-03 00:05:00,
2013-05-02 19:06:00,48.0,17.3,25.75,NNE,22,20.8,20.8,29,0.00,,---,0.00,VWS V14.01,2013-05-03 00:06:00,
2013-05-02 19:07:00,48.0,17.3,25.75,NNE,22,17.2,20.8,29,0.00,,---,0.00,VWS V14.01,2013-05-03 00:07:00,
2013-05-02 19:08:00,48.0,17.3,25.75,NNE,22,17.2,17.2,29,0.00,,---,0.00,VWS V14.01,2013-05-03 00:08:00,
2013-05-02 19:09:00,47.8,17.1,25.78,NNE,22,17.2,17.2,29,0.00,,---,0.00,VWS V14.01,2013-05-03 00:09:00,
2013-05-02 19:10:00,47.8,17.1,25.78,NNE,22,17.2,17.2,29,0.00,,---,0.00,VWS V14.01,2013-05-03 00:10:00,
2013-05-02 19:11:00,47.7,17.0,25.78,NNE,22,17.2,17.2,29,0.00,,---,0.00,VWS V14.01,2013-05-03 00:11:00,
2013-05-02 19:12:00,47.7,17.0,25.78,NNE,22,17.2,17.2,29,0.00,,---,0.00,VWS V14.01,2013-05-03 00:12:00,
2013-05-02 19:13:00,47.7,17.0,25.78,NNE,22,17.2,17.2,29,0.00,,---,0.00,VWS V14.01,2013-05-03 00:13:00,
2013-05-02 19:14:00,47.7,17.0,25.78,NNE,22,17.2,17.2,29,0.00,,---,0.00,VWS V14.01,2013-05-03 00:14:00,
2013-05-02 19:15:00,47.3,16.7,25.78,NNE,22,17.2,17.2,29,0.00,,---,0.00,VWS V14.01,2013-05-03 00:15:00,
2013-05-02 19:16:00,47.3,16.7,25.78,NNE,22,17.2,17.2,29,0.00,,---,0.00,VWS V14.01,2013-05-03 00:16:00,
2013-05-02 19:17:00,47.3,16.7,25.78,NNE,22,17.2,17.2,29,0.00,,---,0.00,VWS V14.01,2013-05-03 00:17:00,
2013-05-02 19:18:00,47.3,16.7,25.78,NNE,22,16.1,19.5,29,0.00,,---,0.00,VWS V14.01,2013-05-03 00:18:00,
2013-05-02 19:19:00,47.1,16.5,25.78,NNE,22,16.1,16.1,29,0.00,,---,0.00,VWS V14.01,2013-05-03 00:19:00,
2013-05-02 19:20:00,47.1,16.5,25.78,NNE,22,16.1,16.1,29,0.00,,---,0.00,VWS V14.01,2013-05-03 00:20:00,
2013-05-02 19:21:00,47.1,16.5,25.78,North,0,18.8,18.8,29,0.00,,---,0.00,VWS V14.01,2013-05-03 00:21:00,
2013-05-02 19:22:00,47.1,16.5,25.78,North,0,18.8,18.8,29,0.00,,---,0.00,VWS V14.01,2013-05-03 00:22:00,
2013-05-02 19:23:00,46.9,16.4,25.78,North,0,18.8,18.8,29,0.00,,---,0.00,VWS V14.01,2013-05-03 00:23:00,
2013-05-02 19:24:00,46.9,16.4,25.78,North,0,18.8,18.8,29,0.00,,---,0.00,VWS V14.01,2013-05-03 00:24:00,
2013-05-02 19:25:00,46.9,16.4,25.78,North,0,18.8,18.8,29,0.00,,---,0.00,VWS V14.01,2013-05-03 00:25:00,
2013-05-02 19:26:00,46.9,16.4,25.78,North,0,18.8,18.8,29,0.00,,---,0.00,VWS V14.01,2013-05-03 00:26:00,
2013-05-02 19:27:00,46.9,16.4,25.78,North,0,18.8,18.8,29,0.00,,---,0.00,VWS V14.01,2013-05-03 00:27:00,
2013-05-02 19:28:00,46.8,17.0,25.78,North,0,18.8,18.8,30,0.00,,---,0.00,VWS V14.01,2013-05-03 00:28:00,
2013-05-02 19:29:00,46.8,17.0,25.78,North,0,18.8,18.8,30,0.00,,---,0.00,VWS V14.01,2013-05-03 00:29:00,
2013-05-02 19:30:00,46.8,17.0,25.78,North,0,18.8,18.8,30,0.00,,---,0.00,VWS V14.01,2013-05-03 00:30:00,
2013-05-02 19:31:00,46.6,16.8,25.78,North,0,18.8,18.8,30,0.00,,---,0.00,VWS V14.01,2013-05-03 00:31:00,
2013-05-02 19:32:00,46.6,16.8,25.78,North,0,18.8,18.8,30,0.00,,---,0.00,VWS V14.01,2013-05-03 00:32:00,
2013-05-02 19:33:00,46.6,16.8,25.78,NNE,22,24.2,24.2,30,0.00,,---,0.00,VWS V14.01,2013-05-03 00:33:00,
2013-05-02 19:34:00,46.6,16.8,25.78,NNE,22,15.7,24.2,30,0.00,,---,0.00,VWS V14.01,2013-05-03 00:34:00,
2013-05-02 19:35:00,46.4,16.7,25.78,NNE,22,15.7,15.7,30,0.00,,---,0.00,VWS V14.01,2013-05-03 00:35:00,
2013-05-02 19:36:00,46.4,16.7,25.78,NNE,22,15.7,15.7,30,0.00,,---,0.00,VWS V14.01,2013-05-03 00:36:00,
2013-05-02 19:37:00,46.4,16.7,25.78,NNE,22,18.6,18.6,30,0.00,,---,0.00,VWS V14.01,2013-05-03 00:37:00,
2013-05-02 19:38:00,46.2,16.5,25.78,NNE,22,18.6,18.6,30,0.00,,---,0.00,VWS V14.01,2013-05-03 00:38:00,
2013-05-02 19:39:00,46.2,16.5,25.78,NNE,22,18.6,18.6,30,0.00,,---,0.00,VWS V14.01,2013-05-03 00:39:00,
2013-05-02 19:40:00,46.2,16.5,25.78,NE,45,19.5,19.5,30,0.00,,---,0.00,VWS V14.01,2013-05-03 00:40:00,
2013-05-02 19:41:00,46.2,16.5,25.78,NE,45,19.5,19.5,30,0.00,,---,0.00,VWS V14.01,2013-05-03 00:41:00,
2013-05-02 19:42:00,46.2,16.5,25.78,NE,45,19.5,19.5,30,0.00,,---,0.00,VWS V14.01,2013-05-03 00:42:00,
2013-05-02 19:43:00,46.0,17.1,25.78,NE,45,19.5,19.5,31,0.00,,---,0.00,VWS V14.01,2013-05-03 00:43:00,
2013-05-02 19:44:00,46.0,17.1,25.78,NE,45,19.5,19.5,31,0.00,,---,0.00,VWS V14.01,2013-05-03 00:44:00,
2013-05-02 19:45:00,46.0,17.1,25.78,NE,45,19.5,19.5,31,0.00,,---,0.00,VWS V14.01,2013-05-03 00:45:00,
2013-05-02 19:46:00,46.0,17.1,25.78,NE,45,19.5,19.5,31,0.00,,---,0.00,VWS V14.01,2013-05-03 00:46:00,
2013-05-02 19:47:00,46.0,17.1,25.78,NE,45,19.5,19.5,31,0.00,,---,0.00,VWS V14.01,2013-05-03 00:47:00,
2013-05-02 19:48:00,46.0,17.1,25.78,NNE,22,23.0,23.0,31,0.00,,---,0.00,VWS V14.01,2013-05-03 00:48:00,
2013-05-02 19:49:00,46.0,17.1,25.78,NNE,22,23.0,23.0,31,0.00,,---,0.00,VWS V14.01,2013-05-03 00:49:00,
2013-05-02 19:50:00,46.0,17.1,25.78,NNE,22,15.9,23.0,31,0.00,,---,0.00,VWS V14.01,2013-05-03 00:50:00,
2013-05-02 19:51:00,45.9,17.0,25.78,NNE,22,17.0,17.0,31,0.00,,---,0.00,VWS V14.01,2013-05-03 00:51:00,
2013-05-02 19:52:00,45.9,17.0,25.78,NNE,22,17.0,17.0,31,0.00,,---,0.00,VWS V14.01,2013-05-03 00:52:00,
2013-05-02 19:53:00,45.9,17.0,25.78,NNE,22,19.7,19.7,31,0.00,,---,0.00,VWS V14.01,2013-05-03 00:53:00,
2013-05-02 19:54:00,45.9,17.0,25.78,NNE,22,19.7,19.7,31,0.00,,---,0.00,VWS V14.01,2013-05-03 00:54:00,
2013-05-02 19:55:00,45.7,16.8,25.78,NNE,22,19.7,19.7,31,0.00,,---,0.00,VWS V14.01,2013-05-03 00:55:00,
2013-05-02 19:56:00,45.7,16.8,25.78,NNE,22,22.6,22.6,31,0.00,,---,0.00,VWS V14.01,2013-05-03 00:56:00,
2013-05-02 19:57:00,45.7,16.8,25.78,NNE,22,22.6,22.6,31,0.00,,---,0.00,VWS V14.01,2013-05-03 00:57:00,
2013-05-02 19:58:00,45.7,16.8,25.78,NNE,22,22.6,22.6,31,0.00,,---,0.00,VWS V14.01,2013-05-03 00:58:00,
2013-05-02 19:59:00,45.7,16.8,25.78,NNE,22,22.4,22.6,31,0.00,,---,0.00,VWS V14.01,2013-05-03 00:59:00,
2013-05-02 20:00:00,45.7,16.8,25.78,NNE,22,22.4,22.4,31,0.00,,---,0.00,VWS V14.01,2013-05-03 01:00:00,
2013-05-02 20:01:00,45.5,16.6,25.78,NNE,22,22.4,22.4,31,0.00,,---,0.00,VWS V14.01,2013-05-03 01:01:00,
2013-05-02 20:02:00,45.5,16.6,25.78,NNE,22,22.4,22.4,31,0.00,,---,0.00,VWS V14.01,2013-05-03 01:02:00,
2013-05-02 20:03:00,45.5,16.6,25.78,NNE,22,22.4,22.4,31,0.00,,---,0.00,VWS V14.01,2013-05-03 01:03:00,
2013-05-02 20:04:00,45.5,16.6,25.78,NNE,22,22.4,22.4,31,0.00,,---,0.00,VWS V14.01,2013-05-03 01:04:00,
2013-05-02 20:05:00,45.5,16.6,25.78,NNE,22,22.4,22.4,31,0.00,,---,0.00,VWS V14.01,2013-05-03 01:05:00,
2013-05-02 20:06:00,45.5,17.4,25.78,NNE,22,14.8,22.4,32,0.00,,---,0.00,VWS V14.01,2013-05-03 01:06:00,
2013-05-02 20:07:00,45.5,17.4,25.78,NNE,22,14.8,14.8,32,0.00,,---,0.00,VWS V14.01,2013-05-03 01:07:00,
2013-05-02 20:08:00,45.3,17.2,25.78,NNE,22,14.8,14.8,32,0.00,,---,0.00,VWS V14.01,2013-05-03 01:08:00,
2013-05-02 20:09:00,45.3,17.2,25.78,NNE,22,14.8,14.8,32,0.00,,---,0.00,VWS V14.01,2013-05-03 01:09:00,
2013-05-02 20:10:00,45.3,17.2,25.78,NNE,22,14.8,14.8,32,0.00,,---,0.00,VWS V14.01,2013-05-03 01:10:00,
2013-05-02 20:11:00,45.5,16.6,25.78,NNE,22,20.6,20.6,31,0.00,,---,0.00,VWS V14.01,2013-05-03 01:11:00,
2013-05-02 20:12:00,45.5,17.4,25.78,NNE,22,17.2,20.6,32,0.00,,---,0.00,VWS V14.01,2013-05-03 01:12:00,
2013-05-02 20:13:00,45.5,17.4,25.78,NNE,22,17.2,17.2,32,0.00,,---,0.00,VWS V14.01,2013-05-03 01:13:00,
2013-05-02 20:14:00,45.5,16.6,25.78,NNE,22,17.2,17.2,31,0.00,,---,0.00,VWS V14.01,2013-05-03 01:14:00,
2013-05-02 20:15:00,45.3,17.2,25.78,NNE,22,17.2,17.2,32,0.00,,---,0.00,VWS V14.01,2013-05-03 01:15:00,
2013-05-02 20:16:00,45.3,17.2,25.78,NNE,22,17.2,17.2,32,0.00,,---,0.00,VWS V14.01,2013-05-03 01:16:00,
2013-05-02 20:17:00,45.3,17.2,25.78,NNE,22,17.2,17.2,32,0.00,,---,0.00,VWS V14.01,2013-05-03 01:17:00,
2013-05-02 20:18:00,45.3,17.2,25.78,NNE,22,17.2,17.2,32,0.00,,---,0.00,VWS V14.01,2013-05-03 01:18:00,
2013-05-02 20:19:00,45.3,16.5,25.78,NNE,22,17.5,17.5,31,0.00,,---,0.00,VWS V14.01,2013-05-03 01:19:00,
2013-05-02 20:20:00,45.3,16.5,25.78,NNE,22,17.5,17.5,31,0.00,,---,0.00,VWS V14.01,2013-05-03 01:20:00,
2013-05-02 20:21:00,45.3,16.5,25.78,NNE,22,17.5,17.5,31,0.00,,---,0.00,VWS V14.01,2013-05-03 01:21:00,
2013-05-02 20:22:00,45.3,16.5,25.78,NNE,22,17.5,17.5,31,0.00,,---,0.00,VWS V14.01,2013-05-03 01:22:00,
2013-05-02 20:23:00,45.3,16.5,25.78,NNE,22,16.6,17.5,31,0.00,,---,0.00,VWS V14.01,2013-05-03 01:23:00,
2013-05-02 20:24:00,45.3,17.2,25.78,NNE,22,12.3,16.6,32,0.00,,---,0.00,VWS V14.01,2013-05-03 01:24:00,
2013-05-02 20:25:00,45.3,17.2,25.78,NNE,22,12.3,12.3,32,0.00,,---,0.00,VWS V14.01,2013-05-03 01:25:00,
2013-05-02 20:26:00,45.1,17.1,25.78,NNE,22,12.3,12.3,32,0.00,,---,0.00,VWS V14.01,2013-05-03 01:26:00,
2013-05-02 20:27:00,45.1,17.1,25.78,NE,45,12.8,12.8,32,0.00,,---,0.00,VWS V14.01,2013-05-03 01:27:00,
2013-05-02 20:28:00,45.1,17.1,25.78,NE,45,12.8,12.8,32,0.00,,---,0.00,VWS V14.01,2013-05-03 01:28:00,
2013-05-02 20:29:00,45.1,17.1,25.78,NE,45,12.8,12.8,32,0.00,,---,0.00,VWS V14.01,2013-05-03 01:29:00,
2013-05-02 20:30:00,45.1,17.1,25.78,NE,45,12.8,12.8,32,0.00,,---,0.00,VWS V14.01,2013-05-03 01:30:00,
2013-05-02 20:31:00,45.1,17.1,25.78,NNE,22,19.9,19.9,32,0.00,,---,0.00,VWS V14.01,2013-05-03 01:31:00,
2013-05-02 20:32:00,45.1,17.1,25.78,NNE,22,19.7,19.9,32,0.00,,---,0.00,VWS V14.01,2013-05-03 01:32:00,
2013-05-02 20:33:00,45.1,17.1,25.78,NNE,22,19.7,19.7,32,0.00,,---,0.00,VWS V14.01,2013-05-03 01:33:00,
2013-05-02 20:34:00,45.1,17.1,25.78,NNE,22,19.7,19.7,32,0.00,,---,0.00,VWS V14.01,2013-05-03 01:34:00,
2013-05-02 20:35:00,45.1,17.1,25.78,NNE,22,21.0,21.0,32,0.00,,---,0.00,VWS V14.01,2013-05-03 01:35:00,
2013-05-02 20:36:00,45.1,17.1,25.78,NNE,22,19.7,21.0,32,0.00,,---,0.00,VWS V14.01,2013-05-03 01:36:00,
2013-05-02 20:37:00,45.1,17.1,25.78,NNE,22,19.7,19.7,32,0.00,,---,0.00,VWS V14.01,2013-05-03 01:37:00,
2013-05-02 20:38:00,45.0,16.9,25.78,North,0,14.8,19.7,32,0.00,,---,0.00,VWS V14.01,2013-05-03 01:38:00,
2013-05-02 20:39:00,45.0,16.9,25.81,NNE,22,17.0,17.0,32,0.00,,---,0.00,VWS V14.01,2013-05-03 01:39:00,
2013-05-02 20:40:00,45.0,16.9,25.81,NNE,22,25.1,25.1,32,0.00,,---,0.00,VWS V14.01,2013-05-03 01:40:00,
2013-05-02 20:41:00,45.0,16.9,25.81,NNE,22,25.1,25.1,32,0.00,,---,0.00,VWS V14.01,2013-05-03 01:41:00,
2013-05-02 20:42:00,45.0,16.9,25.81,NNE,22,25.1,25.1,32,0.00,,---,0.00,VWS V14.01,2013-05-03 01:42:00,
2013-05-02 20:43:00,45.0,16.9,25.81,NNE,22,25.1,25.1,32,0.00,,---,0.00,VWS V14.01,2013-05-03 01:43:00,
2013-05-02 20:44:00,44.8,16.7,25.81,NNE,22,25.1,25.1,32,0.00,,---,0.00,VWS V14.01,2013-05-03 01:44:00,
2013-05-02 20:45:00,44.8,16.7,25.81,NNE,22,18.6,25.1,32,0.00,,---,0.00,VWS V14.01,2013-05-03 01:45:00,
2013-05-02 20:46:00,44.8,16.7,25.81,NNE,22,18.6,18.6,32,0.00,,---,0.00,VWS V14.01,2013-05-03 01:46:00,
2013-05-02 20:47:00,44.8,16.7,25.81,NNE,22,18.6,18.6,32,0.00,,---,0.00,VWS V14.01,2013-05-03 01:47:00,
2013-05-02 20:48:00,44.8,16.7,25.81,NNE,22,22.2,22.2,32,0.00,,---,0.00,VWS V14.01,2013-05-03 01:48:00,
2013-05-02 20:49:00,44.8,16.7,25.81,NNE,22,22.2,22.2,32,0.00,,---,0.00,VWS V14.01,2013-05-03 01:49:00,
2013-05-02 20:50:00,44.8,16.7,25.81,NNE,22,22.2,22.2,32,0.00,,---,0.00,VWS V14.01,2013-05-03 01:50:00,
2013-05-02 20:51:00,44.6,16.6,25.81,NNE,22,22.2,22.2,32,0.00,,---,0.00,VWS V14.01,2013-05-03 01:51:00,
2013-05-02 20:52:00,44.6,16.6,25.81,NNE,22,22.2,22.2,32,0.00,,---,0.00,VWS V14.01,2013-05-03 01:52:00,
2013-05-02 20:53:00,44.6,16.6,25.81,NNE,22,22.2,22.2,32,0.00,,---,0.00,VWS V14.01,2013-05-03 01:53:00,
2013-05-02 20:54:00,44.6,16.6,25.78,NNE,22,22.2,22.2,32,0.00,,---,0.00,VWS V14.01,2013-05-03 01:54:00,
2013-05-02 20:55:00,44.6,16.6,25.78,NNE,22,22.2,22.2,32,0.00,,---,0.00,VWS V14.01,2013-05-03 01:55:00,
2013-05-02 20:56:00,44.6,16.6,25.78,NNE,22,22.2,22.2,32,0.00,,---,0.00,VWS V14.01,2013-05-03 01:56:00,
2013-05-02 20:57:00,44.4,16.4,25.78,NNE,22,22.2,22.2,32,0.00,,---,0.00,VWS V14.01,2013-05-03 01:57:00,
2013-05-02 20:58:00,44.4,16.4,25.78,NNE,22,15.4,22.2,32,0.00,,---,0.00,VWS V14.01,2013-05-03 01:58:00,
2013-05-02 20:59:00,44.4,16.4,25.78,NNE,22,15.4,15.4,32,0.00,,---,0.00,VWS V14.01,2013-05-03 01:59:00,
2013-05-02 21:00:00,44.2,16.3,25.78,NNE,22,15.4,15.4,32,0.00,,---,0.00,VWS V14.01,2013-05-03 02:00:00,
2013-05-02 21:01:00,44.2,16.3,25.78,NNE,22,15.4,15.4,32,0.00,,---,0.00,VWS V14.01,2013-05-03 02:01:00,
2013-05-02 21:02:00,44.2,16.3,25.78,NNE,22,15.4,15.4,32,0.00,,---,0.00,VWS V14.01,2013-05-03 02:02:00,
2013-05-02 21:03:00,44.2,16.3,25.78,NNE,22,15.4,15.4,32,0.00,,---,0.00,VWS V14.01,2013-05-03 02:03:00,
2013-05-02 21:04:00,44.2,16.3,25.78,NNE,22,15.4,15.4,32,0.00,,---,0.00,VWS V14.01,2013-05-03 02:04:00,
2013-05-02 21:05:00,44.2,16.3,25.78,NE,45,22.8,22.8,32,0.00,,---,0.00,VWS V14.01,2013-05-03 02:05:00,
2013-05-02 21:06:00,44.2,16.3,25.78,NE,45,22.8,22.8,32,0.00,,---,0.00,VWS V14.01,2013-05-03 02:06:00,
2013-05-02 21:07:00,44.1,16.1,25.78,NNE,22,23.0,23.0,32,0.00,,---,0.00,VWS V14.01,2013-05-03 02:07:00,
2013-05-02 21:08:00,44.1,16.1,25.78,NNE,22,16.8,23.0,32,0.00,,---,0.00,VWS V14.01,2013-05-03 02:08:00,
2013-05-02 21:09:00,44.1,16.1,25.81,NNE,22,13.9,18.8,32,0.00,,---,0.00,VWS V14.01,2013-05-03 02:09:00,
2013-05-02 21:10:00,44.1,16.1,25.81,NNE,22,13.9,13.9,32,0.00,,---,0.00,VWS V14.01,2013-05-03 02:10:00,
2013-05-02 21:11:00,43.9,15.9,25.81,NNE,22,22.8,22.8,32,0.00,,---,0.00,VWS V14.01,2013-05-03 02:11:00,
2013-05-02 21:12:00,43.9,15.9,25.81,NNE,22,19.7,22.8,32,0.00,,---,0.00,VWS V14.01,2013-05-03 02:12:00,
2013-05-02 21:13:00,43.9,15.9,25.81,NNE,22,19.7,19.7,32,0.00,,---,0.00,VWS V14.01,2013-05-03 02:13:00,
2013-05-02 21:14:00,43.9,15.9,25.81,NNE,22,19.2,19.7,32,0.00,,---,0.00,VWS V14.01,2013-05-03 02:14:00,
2013-05-02 21:15:00,43.7,15.8,25.81,NNE,22,17.5,19.2,32,0.00,,---,0.00,VWS V14.01,2013-05-03 02:15:00,
2013-05-02 21:16:00,43.7,15.8,25.81,NNE,22,17.5,17.5,32,0.00,,---,0.00,VWS V14.01,2013-05-03 02:16:00,
2013-05-02 21:17:00,43.5,15.6,25.81,NNE,22,16.8,17.5,32,0.00,,---,0.00,VWS V14.01,2013-05-03 02:17:00,
2013-05-02 21:18:00,43.5,15.6,25.81,NNE,22,16.8,16.8,32,0.00,,---,0.00,VWS V14.01,2013-05-03 02:18:00,
2013-05-02 21:19:00,43.5,15.6,25.81,NNE,22,16.1,16.8,32,0.00,,---,0.00,VWS V14.01,2013-05-03 02:19:00,
2013-05-02 21:20:00,43.5,15.6,25.81,NNE,22,13.2,16.1,32,0.00,,---,0.00,VWS V14.01,2013-05-03 02:20:00,
2013-05-02 21:21:00,43.5,15.6,25.81,NNE,22,17.0,17.0,32,0.00,,---,0.00,VWS V14.01,2013-05-03 02:21:00,
2013-05-02 21:22:00,43.5,15.6,25.81,North,0,17.5,19.9,32,0.00,,---,0.00,VWS V14.01,2013-05-03 02:22:00,
2013-05-02 21:23:00,43.5,15.6,25.81,NNE,22,17.5,17.9,32,0.00,,---,0.00,VWS V14.01,2013-05-03 02:23:00,
2013-05-02 21:25:00,43.3,15.5,25.81,NNE,22,17.5,17.5,32,0.00,,---,0.00,VWS V14.01,2013-05-03 02:25:00,
2013-05-02 21:26:00,43.3,15.5,25.81,NNE,22,12.8,17.5,32,0.00,,---,0.00,VWS V14.01,2013-05-03 02:26:00,
2013-05-02 21:27:00,43.3,15.5,25.81,NNE,22,17.2,17.2,32,0.00,,---,0.00,VWS V14.01,2013-05-03 02:27:00,
2013-05-02 21:28:00,43.3,15.5,25.81,NNE,22,15.4,17.2,32,0.00,,---,0.00,VWS V14.01,2013-05-03 02:28:00,
2013-05-02 21:29:00,43.3,15.5,25.81,NNE,22,15.4,15.4,32,0.00,,---,0.00,VWS V14.01,2013-05-03 02:29:00,
2013-05-02 21:30:00,43.3,15.5,25.81,NNE,22,12.5,15.4,32,0.00,,---,0.00,VWS V14.01,2013-05-03 02:30:00,
2013-05-02 21:31:00,43.2,15.3,25.81,NNE,22,18.6,18.6,32,0.00,,---,0.00,VWS V14.01,2013-05-03 02:31:00,
2013-05-02 21:32:00,43.0,15.2,25.81,NNE,22,18.6,18.6,32,0.00,,---,0.00,VWS V14.01,2013-05-03 02:32:00,
2013-05-02 21:33:00,43.0,15.2,25.81,NNE,22,17.0,18.6,32,0.00,,---,0.00,VWS V14.01,2013-05-03 02:33:00,
2013-05-02 21:34:00,43.0,15.2,25.81,NNE,22,17.0,17.0,32,0.00,,---,0.00,VWS V14.01,2013-05-03 02:34:00,
2013-05-02 21:35:00,43.0,15.2,25.81,NNE,22,17.0,17.0,32,0.00,,---,0.00,VWS V14.01,2013-05-03 02:35:00,
2013-05-02 21:36:00,43.0,15.2,25.81,NNE,22,17.0,17.0,32,0.00,,---,0.00,VWS V14.01,2013-05-03 02:36:00,
2013-05-02 21:37:00,43.0,15.2,25.81,NNE,22,17.0,17.0,32,0.00,,---,0.00,VWS V14.01,2013-05-03 02:37:00,
2013-05-02 21:38:00,43.0,15.2,25.81,NNE,22,15.2,17.0,32,0.00,,---,0.00,VWS V14.01,2013-05-03 02:38:00,
2013-05-02 21:39:00,42.8,15.0,25.81,NNE,22,15.2,15.2,32,0.00,,---,0.00,VWS V14.01,2013-05-03 02:39:00,
2013-05-02 21:40:00,42.8,15.0,25.81,North,0,15.7,17.2,32,0.00,,---,0.00,VWS V14.01,2013-05-03 02:40:00,
2013-05-02 21:41:00,42.8,15.0,25.81,NNE,22,21.3,21.3,32,0.00,,---,0.00,VWS V14.01,2013-05-03 02:41:00,
2013-05-02 21:43:00,42.8,15.0,25.81,NNE,22,16.3,21.3,32,0.00,,---,0.00,VWS V14.01,2013-05-03 02:43:00,
2013-05-02 21:44:00,42.8,15.0,25.81,NNE,22,17.0,17.0,32,0.00,,---,0.00,VWS V14.01,2013-05-03 02:44:00,
2013-05-02 21:45:00,42.8,15.0,25.81,NNE,22,17.0,17.0,32,0.00,,---,0.00,VWS V14.01,2013-05-03 02:45:00,
2013-05-02 21:46:00,42.6,14.8,25.81,NNE,22,15.4,17.0,32,0.00,,---,0.00,VWS V14.01,2013-05-03 02:46:00,
2013-05-02 21:47:00,42.6,14.8,25.81,NNE,22,17.0,17.0,32,0.00,,---,0.00,VWS V14.01,2013-05-03 02:47:00,
2013-05-02 21:48:00,42.6,14.8,25.81,NNE,22,17.0,17.0,32,0.00,,---,0.00,VWS V14.01,2013-05-03 02:48:00,
2013-05-02 21:49:00,42.6,14.8,25.81,NNE,22,17.0,17.0,32,0.00,,---,0.00,VWS V14.01,2013-05-03 02:49:00,
2013-05-02 21:50:00,42.4,14.7,25.81,NNE,22,17.0,17.0,32,0.00,,---,0.00,VWS V14.01,2013-05-03 02:50:00,
2013-05-02 21:51:00,42.4,14.7,25.81,NNE,22,15.4,17.0,32,0.00,,---,0.00,VWS V14.01,2013-05-03 02:51:00,
2013-05-02 21:52:00,42.4,15.4,25.81,NNE,22,15.4,15.4,33,0.00,,---,0.00,VWS V14.01,2013-05-03 02:52:00,
2013-05-02 21:53:00,42.4,15.4,25.81,NNE,22,14.5,15.4,33,0.00,,---,0.00,VWS V14.01,2013-05-03 02:53:00,
2013-05-02 21:55:00,42.4,15.4,25.84,NNE,22,14.5,14.5,33,0.00,,---,0.00,VWS V14.01,2013-05-03 02:55:00,
2013-05-02 21:56:00,42.3,15.2,25.84,NNE,22,14.5,14.5,33,0.00,,---,0.00,VWS V14.01,2013-05-03 02:56:00,
2013-05-02 21:57:00,42.3,15.2,25.84,NNE,22,14.5,14.5,33,0.00,,---,0.00,VWS V14.01,2013-05-03 02:57:00,
2013-05-02 21:58:00,42.1,15.1,25.84,NE,45,15.7,15.7,33,0.00,,---,0.00,VWS V14.01,2013-05-03 02:58:00,
2013-05-02 21:59:00,42.1,15.1,25.84,NE,45,15.7,15.7,33,0.00,,---,0.00,VWS V14.01,2013-05-03 02:59:00,
2013-05-02 22:00:00,42.1,15.1,25.84,NNE,22,14.5,15.7,33,0.00,,---,0.00,VWS V14.01,2013-05-03 03:00:00,
2013-05-02 22:01:00,42.1,15.1,25.84,NNE,22,17.2,17.2,33,0.00,,---,0.00,VWS V14.01,2013-05-03 03:01:00,
2013-05-02 22:02:00,42.1,15.1,25.84,NNE,22,15.2,17.2,33,0.00,,---,0.00,VWS V14.01,2013-05-03 03:02:00,
2013-05-02 22:03:00,42.1,15.1,25.84,NE,45,16.1,16.1,33,0.00,,---,0.00,VWS V14.01,2013-05-03 03:03:00,
2013-05-02 22:04:00,42.1,15.1,25.84,NE,45,16.1,16.1,33,0.00,,---,0.00,VWS V14.01,2013-05-03 03:04:00,
2013-05-02 22:05:00,41.9,14.9,25.84,NE,45,16.1,16.1,33,0.00,,---,0.00,VWS V14.01,2013-05-03 03:05:00,
2013-05-02 22:06:00,41.9,14.9,25.84,NE,45,16.1,16.1,33,0.00,,---,0.00,VWS V14.01,2013-05-03 03:06:00,
2013-05-02 22:07:00,41.9,14.9,25.84,NNE,22,11.2,16.1,33,0.00,,---,0.00,VWS V14.01,2013-05-03 03:07:00,
2013-05-02 22:08:00,41.7,14.8,25.84,NNE,22,11.2,11.2,33,0.00,,---,0.00,VWS V14.01,2013-05-03 03:08:00,
2013-05-02 22:09:00,41.7,14.8,25.84,NNE,22,11.2,11.2,33,0.00,,---,0.00,VWS V14.01,2013-05-03 03:09:00,
2013-05-02 22:10:00,41.7,14.8,25.84,NNE,22,11.2,11.2,33,0.00,,---,0.00,VWS V14.01,2013-05-03 03:10:00,
2013-05-02 22:11:00,41.7,14.8,25.84,NNE,22,11.2,11.2,33,0.00,,---,0.00,VWS V14.01,2013-05-03 03:11:00,
2013-05-02 22:12:00,41.7,14.8,25.84,NNE,22,11.2,11.2,33,0.00,,---,0.00,VWS V14.01,2013-05-03 03:12:00,
2013-05-02 22:13:00,41.7,14.8,25.84,NNE,22,11.2,11.2,33,0.00,,---,0.00,VWS V14.01,2013-05-03 03:13:00,
2013-05-02 22:14:00,41.5,14.6,25.84,NE,45,14.8,14.8,33,0.00,,---,0.00,VWS V14.01,2013-05-03 03:14:00,
2013-05-02 22:15:00,41.7,14.8,25.84,NE,45,14.8,14.8,33,0.00,,---,0.00,VWS V14.01,2013-05-03 03:15:00,
2013-05-02 22:16:00,41.7,14.8,25.84,NE,45,14.8,14.8,33,0.00,,---,0.00,VWS V14.01,2013-05-03 03:16:00,
2013-05-02 22:17:00,41.7,14.8,25.84,NE,45,14.8,14.8,33,0.00,,---,0.00,VWS V14.01,2013-05-03 03:17:00,
2013-05-02 22:18:00,41.7,14.8,25.84,NE,45,14.8,14.8,33,0.00,,---,0.00,VWS V14.01,2013-05-03 03:18:00,
2013-05-02 22:19:00,41.5,14.6,25.84,NE,45,14.8,14.8,33,0.00,,---,0.00,VWS V14.01,2013-05-03 03:19:00,
2013-05-02 22:20:00,41.5,14.6,25.84,NE,45,14.8,14.8,33,0.00,,---,0.00,VWS V14.01,2013-05-03 03:20:00,
2013-05-02 22:21:00,41.5,14.6,25.84,NE,45,14.8,14.8,33,0.00,,---,0.00,VWS V14.01,2013-05-03 03:21:00,
2013-05-02 22:22:00,41.5,14.6,25.84,NE,45,14.8,14.8,33,0.00,,---,0.00,VWS V14.01,2013-05-03 03:22:00,
2013-05-02 22:23:00,41.4,14.4,25.84,NE,45,14.8,14.8,33,0.00,,---,0.00,VWS V14.01,2013-05-03 03:23:00,
2013-05-02 22:24:00,41.4,14.4,25.84,NE,45,14.8,14.8,33,0.00,,---,0.00,VWS V14.01,2013-05-03 03:24:00,
2013-05-02 22:25:00,41.4,14.4,25.84,NE,45,14.8,14.8,33,0.00,,---,0.00,VWS V14.01,2013-05-03 03:25:00,
2013-05-02 22:26:00,41.4,14.4,25.84,NNE,22,17.5,17.5,33,0.00,,---,0.00,VWS V14.01,2013-05-03 03:26:00,
2013-05-02 22:27:00,41.4,14.4,25.84,NNE,22,17.5,17.5,33,0.00,,---,0.00,VWS V14.01,2013-05-03 03:27:00,
2013-05-02 22:28:00,41.2,14.3,25.84,NNE,22,17.5,17.5,33,0.00,,---,0.00,VWS V14.01,2013-05-03 03:28:00,
2013-05-02 22:29:00,41.2,14.3,25.84,NNE,22,17.5,17.5,33,0.00,,---,0.00,VWS V14.01,2013-05-03 03:29:00,
2013-05-02 22:30:00,41.2,14.3,25.84,NNE,22,17.5,17.5,33,0.00,,---,0.00,VWS V14.01,2013-05-03 03:30:00,
2013-05-02 22:31:00,41.2,14.3,25.84,NE,45,13.0,17.5,33,0.00,,---,0.00,VWS V14.01,2013-05-03 03:31:00,
2013-05-02 22:32:00,41.0,14.8,25.84,NE,45,13.0,13.0,34,0.00,,---,0.00,VWS V14.01,2013-05-03 03:32:00,
2013-05-02 22:34:00,41.0,14.8,25.84,NE,45,13.0,13.0,34,0.00,,---,0.00,VWS V14.01,2013-05-03 03:34:00,
2013-05-02 22:35:00,40.8,14.6,25.84,NE,45,13.0,13.0,34,0.00,,---,0.00,VWS V14.01,2013-05-03 03:35:00,
2013-05-02 22:36:00,40.6,14.5,25.84,NE,45,13.0,13.0,34,0.00,,---,0.00,VWS V14.01,2013-05-03 03:36:00,
2013-05-02 22:37:00,40.6,14.5,25.84,NE,45,13.0,13.0,34,0.00,,---,0.00,VWS V14.01,2013-05-03 03:37:00,
2013-05-02 22:38:00,40.6,14.5,25.84,NE,45,13.0,13.0,34,0.00,,---,0.00,VWS V14.01,2013-05-03 03:38:00,
2013-05-02 22:39:00,40.6,14.5,25.84,ENE,68,14.1,14.1,34,0.00,,---,0.00,VWS V14.01,2013-05-03 03:39:00,
2013-05-02 22:40:00,40.6,14.5,25.84,NNE,22,15.9,15.9,34,0.00,,---,0.00,VWS V14.01,2013-05-03 03:40:00,
2013-05-02 22:41:00,40.6,14.5,25.84,NNE,22,12.8,15.9,34,0.00,,---,0.00,VWS V14.01,2013-05-03 03:41:00,
2013-05-02 22:42:00,40.6,14.5,25.84,NNE,22,12.8,12.8,34,0.00,,---,0.00,VWS V14.01,2013-05-03 03:42:00,
2013-05-02 22:43:00,40.6,14.5,25.84,NNE,22,12.8,12.8,34,0.00,,---,0.00,VWS V14.01,2013-05-03 03:43:00,
2013-05-02 22:44:00,40.6,14.5,25.84,NNE,22,12.8,12.8,34,0.00,,---,0.00,VWS V14.01,2013-05-03 03:44:00,
2013-05-02 22:45:00,40.6,14.5,25.84,NNE,22,12.8,12.8,34,0.00,,---,0.00,VWS V14.01,2013-05-03 03:45:00,
2013-05-02 22:46:00,40.6,14.5,25.84,NNE,22,12.8,12.8,34,0.00,,---,0.00,VWS V14.01,2013-05-03 03:46:00,
2013-05-02 22:47:00,40.5,14.3,25.84,NNE,22,12.8,12.8,34,0.00,,---,0.00,VWS V14.01,2013-05-03 03:47:00,
2013-05-02 22:48:00,40.5,14.3,25.84,NNE,22,12.8,12.8,34,0.00,,---,0.00,VWS V14.01,2013-05-03 03:48:00,
2013-05-02 22:49:00,40.5,15.0,25.84,NNE,22,12.8,12.8,35,0.00,,---,0.00,VWS V14.01,2013-05-03 03:49:00,
2013-05-02 22:50:00,40.5,15.0,25.84,NNE,22,12.8,12.8,35,0.00,,---,0.00,VWS V14.01,2013-05-03 03:50:00,
2013-05-02 22:51:00,40.5,15.0,25.84,NNE,22,12.8,12.8,35,0.00,,---,0.00,VWS V14.01,2013-05-03 03:51:00,
2013-05-02 22:52:00,40.5,15.0,25.84,NNE,22,12.8,12.8,35,0.00,,---,0.00,VWS V14.01,2013-05-03 03:52:00,
2013-05-02 22:53:00,40.5,15.0,25.84,NNE,22,12.8,12.8,35,0.00,,---,0.00,VWS V14.01,2013-05-03 03:53:00,
2013-05-02 22:54:00,40.3,14.8,25.84,NNE,22,12.8,12.8,35,0.00,,---,0.00,VWS V14.01,2013-05-03 03:54:00,
2013-05-02 22:55:00,40.3,14.8,25.84,NNE,22,12.8,12.8,35,0.00,,---,0.00,VWS V14.01,2013-05-03 03:55:00,
2013-05-02 22:56:00,40.3,14.8,25.84,NNE,22,12.8,12.8,35,0.00,,---,0.00,VWS V14.01,2013-05-03 03:56:00,
2013-05-02 22:57:00,40.3,14.8,25.84,NNE,22,12.8,12.8,35,0.00,,---,0.00,VWS V14.01,2013-05-03 03:57:00,
2013-05-02 22:58:00,40.3,14.8,25.84,NNE,22,12.8,12.8,35,0.00,,---,0.00,VWS V14.01,2013-05-03 03:58:00,
2013-05-02 22:59:00,40.1,14.7,25.84,NNE,22,12.8,12.8,35,0.00,,---,0.00,VWS V14.01,2013-05-03 03:59:00,
2013-05-02 23:00:00,40.1,14.7,25.84,NNE,22,12.8,12.8,35,0.00,,---,0.00,VWS V14.01,2013-05-03 04:00:00,
2013-05-02 23:01:00,40.1,14.7,25.84,NNE,22,12.8,12.8,35,0.00,,---,0.00,VWS V14.01,2013-05-03 04:01:00,
2013-05-02 23:02:00,39.9,14.5,25.84,NNE,22,12.8,12.8,35,0.00,,---,0.00,VWS V14.01,2013-05-03 04:02:00,
2013-05-02 23:03:00,39.9,14.5,25.84,NNE,22,13.4,13.4,35,0.00,,---,0.00,VWS V14.01,2013-05-03 04:03:00,
2013-05-02 23:04:00,39.9,14.5,25.84,NNE,22,13.4,13.4,35,0.00,,---,0.00,VWS V14.01,2013-05-03 04:04:00,
2013-05-02 23:05:00,39.9,14.5,25.84,NNE,22,13.4,13.4,35,0.00,,---,0.00,VWS V14.01,2013-05-03 04:05:00,
2013-05-02 23:06:00,39.9,14.5,25.84,NNE,22,13.4,13.4,35,0.00,,---,0.00,VWS V14.01,2013-05-03 04:06:00,
2013-05-02 23:07:00,39.9,14.5,25.84,NNE,22,13.4,13.4,35,0.00,,---,0.00,VWS V14.01,2013-05-03 04:07:00,
2013-05-02 23:08:00,39.9,14.5,25.84,NNE,22,13.4,13.4,35,0.00,,---,0.00,VWS V14.01,2013-05-03 04:08:00,
2013-05-02 23:09:00,39.7,14.3,25.84,NNE,22,13.4,13.4,35,0.00,,---,0.00,VWS V14.01,2013-05-03 04:09:00,
2013-05-02 23:10:00,39.7,14.3,25.84,NNE,22,13.4,13.4,35,0.00,,---,0.00,VWS V14.01,2013-05-03 04:10:00,
2013-05-02 23:11:00,39.7,14.3,25.84,NNE,22,13.4,13.4,35,0.00,,---,0.00,VWS V14.01,2013-05-03 04:11:00,
2013-05-02 23:12:00,39.7,14.3,25.84,NNE,22,13.4,13.4,35,0.00,,---,0.00,VWS V14.01,2013-05-03 04:12:00,
2013-05-02 23:13:00,39.6,14.2,25.84,NNE,22,13.4,13.4,35,0.00,,---,0.00,VWS V14.01,2013-05-03 04:13:00,
2013-05-02 23:14:00,39.6,14.8,25.84,NNE,22,13.4,13.4,36,0.00,,---,0.00,VWS V14.01,2013-05-03 04:14:00,
2013-05-02 23:15:00,39.6,14.8,25.84,NNE,22,13.4,13.4,36,0.00,,---,0.00,VWS V14.01,2013-05-03 04:15:00,
2013-05-02 23:16:00,39.6,14.8,25.84,NNE,22,13.4,13.4,36,0.00,,---,0.00,VWS V14.01,2013-05-03 04:16:00,
2013-05-02 23:17:00,39.6,14.8,25.84,NNE,22,13.4,13.4,36,0.00,,---,0.00,VWS V14.01,2013-05-03 04:17:00,
2013-05-02 23:18:00,39.4,14.7,25.84,NNE,22,13.4,13.4,36,0.00,,---,0.00,VWS V14.01,2013-05-03 04:18:00,
2013-05-02 23:19:00,39.4,14.7,25.84,NNE,22,13.4,13.4,36,0.00,,---,0.00,VWS V14.01,2013-05-03 04:19:00,
2013-05-02 23:20:00,39.4,14.7,25.84,NNE,22,13.4,13.4,36,0.00,,---,0.00,VWS V14.01,2013-05-03 04:20:00,
2013-05-02 23:21:00,39.2,14.5,25.84,NNE,22,13.4,13.4,36,0.00,,---,0.00,VWS V14.01,2013-05-03 04:21:00,
2013-05-02 23:22:00,39.2,14.5,25.84,NNE,22,13.4,13.4,36,0.00,,---,0.00,VWS V14.01,2013-05-03 04:22:00,
2013-05-02 23:23:00,39.2,14.5,25.84,NNE,22,13.4,13.4,36,0.00,,---,0.00,VWS V14.01,2013-05-03 04:23:00,
2013-05-02 23:24:00,39.2,14.5,25.84,NE,45,17.2,17.2,36,0.00,,---,0.00,VWS V14.01,2013-05-03 04:24:00,
2013-05-02 23:25:00,39.0,15.0,25.84,NE,45,17.2,17.2,37,0.00,,---,0.00,VWS V14.01,2013-05-03 04:25:00,
2013-05-02 23:26:00,38.8,14.8,25.84,NE,45,17.2,17.2,37,0.00,,---,0.00,VWS V14.01,2013-05-03 04:26:00,
2013-05-02 23:27:00,38.8,14.8,25.84,NE,45,17.2,17.2,37,0.00,,---,0.00,VWS V14.01,2013-05-03 04:27:00,
2013-05-02 23:28:00,38.8,14.8,25.84,NE,45,17.2,17.2,37,0.00,,---,0.00,VWS V14.01,2013-05-03 04:28:00,
2013-05-02 23:29:00,38.8,14.8,25.84,NE,45,17.2,17.2,37,0.00,,---,0.00,VWS V14.01,2013-05-03 04:29:00,
2013-05-02 23:30:00,38.7,14.6,25.84,NE,45,17.2,17.2,37,0.00,,---,0.00,VWS V14.01,2013-05-03 04:30:00,
2013-05-02 23:31:00,38.7,15.3,25.84,NE,45,17.2,17.2,38,0.00,,---,0.00,VWS V14.01,2013-05-03 04:31:00,
2013-05-02 23:32:00,38.7,15.3,25.84,NE,45,17.2,17.2,38,0.00,,---,0.00,VWS V14.01,2013-05-03 04:32:00,
2013-05-02 23:33:00,38.5,15.1,25.84,NE,45,17.2,17.2,38,0.00,,---,0.00,VWS V14.01,2013-05-03 04:33:00,
2013-05-02 23:34:00,38.5,15.1,25.84,NE,45,17.2,17.2,38,0.00,,---,0.00,VWS V14.01,2013-05-03 04:34:00,
2013-05-02 23:35:00,38.5,15.1,25.84,NE,45,17.2,17.2,38,0.00,,---,0.00,VWS V14.01,2013-05-03 04:35:00,
2013-05-02 23:36:00,38.5,15.1,25.84,NNE,22,10.1,17.2,38,0.00,,---,0.00,VWS V14.01,2013-05-03 04:36:00,
2013-05-02 23:37:00,38.5,15.1,25.84,NNE,22,10.1,10.1,38,0.00,,---,0.00,VWS V14.01,2013-05-03 04:37:00,
2013-05-02 23:38:00,38.5,15.1,25.84,NNE,22,10.1,10.1,38,0.00,,---,0.00,VWS V14.01,2013-05-03 04:38:00,
2013-05-02 23:39:00,38.5,15.1,25.84,NNE,22,10.1,10.1,38,0.00,,---,0.00,VWS V14.01,2013-05-03 04:39:00,
2013-05-02 23:40:00,38.3,15.5,25.84,NNE,22,10.1,10.1,39,0.00,,---,0.00,VWS V14.01,2013-05-03 04:40:00,
2013-05-02 23:41:00,38.1,15.4,25.84,NNE,22,10.1,10.1,39,0.00,,---,0.00,VWS V14.01,2013-05-03 04:41:00,
2013-05-02 23:42:00,38.3,15.5,25.84,NNE,22,12.3,12.3,39,0.00,,---,0.00,VWS V14.01,2013-05-03 04:42:00,
2013-05-02 23:43:00,38.1,15.4,25.84,NNE,22,12.3,12.3,39,0.00,,---,0.00,VWS V14.01,2013-05-03 04:43:00,
2013-05-02 23:44:00,38.3,15.5,25.84,NNE,22,12.3,12.3,39,0.00,,---,0.00,VWS V14.01,2013-05-03 04:44:00,
2013-05-02 23:45:00,38.3,15.5,25.84,NNE,22,12.3,12.3,39,0.00,,---,0.00,VWS V14.01,2013-05-03 04:45:00,
2013-05-02 23:46:00,38.3,15.5,25.84,NNE,22,12.3,12.3,39,0.00,,---,0.00,VWS V14.01,2013-05-03 04:46:00,
2013-05-02 23:47:00,38.1,15.4,25.84,NNE,22,12.3,12.3,39,0.00,,---,0.00,VWS V14.01,2013-05-03 04:47:00,
2013-05-02 23:48:00,38.1,15.4,25.84,NNE,22,12.3,12.3,39,0.00,,---,0.00,VWS V14.01,2013-05-03 04:48:00,
2013-05-02 23:49:00,38.1,15.4,25.84,NNE,22,12.3,12.3,39,0.00,,---,0.00,VWS V14.01,2013-05-03 04:49:00,
2013-05-02 23:50:00,38.1,15.4,25.84,NNE,22,12.3,12.3,39,0.00,,---,0.00,VWS V14.01,2013-05-03 04:50:00,
2013-05-02 23:51:00,38.1,15.4,25.84,NNE,22,12.3,12.3,39,0.00,,---,0.00,VWS V14.01,2013-05-03 04:51:00,
2013-05-02 23:52:00,38.1,15.4,25.84,NNE,22,12.3,12.3,39,0.00,,---,0.00,VWS V14.01,2013-05-03 04:52:00,
2013-05-02 23:53:00,37.9,15.2,25.84,NE,45,14.8,14.8,39,0.00,,---,0.00,VWS V14.01,2013-05-03 04:53:00,
2013-05-02 23:54:00,37.9,15.2,25.84,NE,45,14.8,14.8,39,0.00,,---,0.00,VWS V14.01,2013-05-03 04:54:00,
2013-05-02 23:55:00,37.9,15.2,25.84,NE,45,14.5,14.8,39,0.00,,---,0.00,VWS V14.01,2013-05-03 04:55:00,
2013-05-02 23:56:00,37.9,15.2,25.84,NE,45,14.5,14.5,39,0.00,,---,0.00,VWS V14.01,2013-05-03 04:56:00,
2013-05-02 23:57:00,37.9,15.2,25.84,NE,45,14.5,14.5,39,0.00,,---,0.00,VWS V14.01,2013-05-03 04:57:00,
2013-05-02 23:58:00,37.9,15.2,25.84,NE,45,14.5,14.5,39,0.00,,---,0.00,VWS V14.01,2013-05-03 04:58:00,
2013-05-02 23:59:00,37.8,15.0,25.84,NE,45,14.5,14.5,39,0.00,,---,0.00,VWS V14.01,2013-05-03 04:59:00,